GFSWCAN_850_rhum_000.txt.gz
RH
97 96 99 96 97 81 70 62 66 73 73 80 84 83 88 97 94 92 85 79 72 70 63 62 59 50 54 54 74 58 62 58 65 72 78 80 79 70 64 67 75 75 88 84 84 82 81 50 48 54 57 58 52 50
99 99 96 96 96 84 65 58 57 63 69 76 81 83 90 99 100 92 86 81 75 73 76 69 66 58 59 62 56 56 69 64 59 82 83 83 79 78 76 75 58 69 72 80 74 73 55 48 50 51 51 53 55 55
100 95 99 92 92 85 65 57 54 52 60 62 76 81 81 95 100 100 92 86 79 80 90 84 82 76 68 67 60 59 63 60 62 63 79 85 76 82 84 81 67 59 59 70 62 58 67 54 53 54 57 58 58 59
100 91 100 86 92 86 64 60 57 51 48 52 63 78 79 91 99 99 98 94 84 82 94 98 92 87 85 72 67 64 59 60 64 65 81 85 82 75 86 79 80 67 66 74 79 67 57 60 60 60 62 63 62 62
100 92 100 82 90 86 66 63 61 54 50 52 58 77 86 87 98 100 99 96 91 83 95 99 92 87 82 85 73 69 64 64 66 76 86 90 90 86 93 94 98 78 76 81 83 64 61 60 57 55 61 67 70 70
100 98 100 80 90 86 69 68 66 60 54 53 58 82 100 96 99 86 81 80 94 80 76 97 97 92 89 88 92 84 78 73 76 79 92 88 83 77 96 85 70 67 66 62 63 62 58 55 58 61 64 65 65 71
99 100 98 84 95 87 73 73 70 66 62 62 61 88 99 91 85 81 87 95 86 84 74 100 99 97 100 95 98 94 85 85 80 88 93 88 79 78 98 92 70 63 65 62 55 56 62 62 60 63 70 77 82 85
100 100 100 100 97 87 77 78 77 72 68 70 85 99 98 92 97 93 95 100 100 88 83 100 100 94 95 98 99 100 99 89 91 98 94 94 92 92 98 83 68 64 64 60 61 62 65 66 68 72 71 74 94 98
100 100 100 100 100 95 85 81 84 79 75 86 98 97 93 90 84 95 98 100 99 89 99 99 99 100 95 99 98 96 90 97 99 98 95 91 98 98 85 78 69 66 64 58 64 65 67 62 47 44 48 54 76 84
100 100 100 100 100 100 100 100 94 84 98 100 95 97 98 87 87 94 99 99 98 98 90 99 90 99 92 97 98 91 89 99 100 95 95 99 98 78 69 70 68 67 64 66 70 69 56 34 35 42 58 74 84 88
98 99 100 100 100 100 100 100 100 100 100 100 98 94 99 97 86 88 96 93 95 100 99 99 90 97 93 94 98 83 96 99 96 91 90 92 96 83 63 61 64 66 64 56 40 30 33 36 43 60 67 79 88 91
98 99 99 100 100 100 100 100 100 100 99 96 84 99 99 94 96 90 93 91 99 84 99 98 98 90 98 91 91 92 89 95 90 90 91 91 84 61 63 57 50 42 35 30 30 34 36 40 52 66 73 84 91 90
97 98 99 99 100 100 100 100 100 100 99 88 88 91 90 98 99 93 99 87 98 98 100 100 100 93 95 97 97 98 95 96 91 97 90 89 60 59 59 51 39 29 30 32 41 42 38 40 53 71 81 83 83 45
96 98 99 98 99 100 100 100 100 100 100 99 100 99 96 99 93 93 90 92 85 97 100 95 99 96 100 98 97 95 98 88 97 100 92 84 54 51 52 48 34 32 33 39 48 45 39 45 58 70 71 57 26 21
96 98 97 97 98 99 100 100 100 100 100 100 99 91 98 83 93 92 99 100 100 96 89 88 92 88 99 97 91 97 98 97 87 87 88 55 44 42 43 42 40 38 36 41 53 56 45 45 56 66 63 38 20 23
95 95 91 96 95 97 99 99 100 100 100 100 99 97 98 96 100 100 99 100 100 86 82 82 91 97 96 95 96 94 90 90 87 92 52 51 46 45 52 55 53 47 38 41 61 64 56 51 59 62 60 37 25 23
96 90 86 96 96 98 99 99 99 100 100 100 99 94 87 82 94 88 93 99 91 81 100 91 92 82 93 94 100 94 91 91 63 48 47 49 52 53 60 62 59 57 49 53 65 68 57 57 71 68 62 55 42 38
95 90 89 96 95 98 99 99 99 100 99 100 98 90 86 86 85 89 86 96 92 85 95 96 87 100 94 93 95 88 69 61 56 52 54 52 54 56 56 61 60 58 57 60 78 68 50 56 74 78 73 66 59 51
84 89 89 95 98 98 99 99 99 99 99 99 100 90 95 87 73 73 77 92 83 80 84 99 97 95 95 87 80 45 46 46 45 52 56 55 59 63 65 67 63 59 66 75 71 53 58 72 82 83 80 79 69 65
86 91 95 98 99 98 99 99 98 98 98 99 100 98 95 91 88 80 86 89 90 82 97 98 95 82 65 37 43 52 55 59 63 65 64 63 68 69 69 68 63 64 76 79 65 57 63 74 81 85 82 77 71 63
92 94 96 98 99 95 99 100 99 99 98 98 99 97 99 97 94 92 96 99 96 86 98 88 63 41 48 51 51 55 59 64 69 73 73 70 68 71 72 70 68 81 89 78 77 74 70 72 75 74 72 67 60 50
88 98 98 97 98 97 97 98 99 99 92 98 98 96 100 100 100 99 100 100 98 78 73 63 55 56 59 60 62 64 67 68 69 66 70 77 79 78 74 72 85 94 98 96 85 83 90 87 76 67 61 51 51 51
83 88 97 98 97 97 98 98 96 97 96 97 97 96 98 99 99 100 100 98 96 82 68 66 64 62 65 62 60 64 68 68 67 69 75 79 80 79 82 93 94 96 95 94 95 91 86 74 62 53 53 53 53 49
86 80 85 93 97 97 96 97 97 96 96 96 96 96 96 96 97 97 98 91 80 62 55 50 49 52 56 61 70 68 66 69 74 78 79 80 84 93 95 97 96 96 95 92 81 73 64 56 56 55 56 53 49 48
84 96 86 95 85 88 88 96 97 94 95 95 95 100 98 97 98 100 98 80 60 52 56 61 66 67 68 65 68 73 77 80 81 84 92 97 98 97 96 96 96 92 75 67 61 58 58 58 58 56 52 50 50 51
96 98 88 97 93 95 88 93 93 94 96 100 97 98 99 96 100 89 91 80 83 81 73 68 65 65 69 73 77 82 88 90 90 94 96 96 97 98 97 96 69 65 62 59 61 61 61 58 54 50 47 50 54 56
100 100 94 86 83 91 94 88 88 95 100 97 97 99 97 98 98 85 79 82 77 74 71 68 67 69 74 81 86 87 90 94 99 98 97 97 96 95 80 68 65 61 62 62 62 61 57 52 50 52 52 53 55 57
84 84 92 95 94 87 96 99 100 99 94 88 89 100 91 85 82 78 81 77 73 72 73 78 82 86 87 90 94 96 97 98 98 97 96 94 89 80 70 64 63 64 65 64 60 55 52 54 54 55 57 59 59 62
98 84 84 92 100 95 92 90 90 71 71 82 90 91 88 77 79 78 77 77 80 82 86 86 87 89 91 94 95 96 94 95 96 94 94 92 88 77 69 70 70 68 63 58 54 55 58 58 57 61 66 69 70 70
100 91 90 99 99 100 81 78 77 75 80 80 77 78 80 80 83 86 86 88 90 90 90 91 93 94 97 99 95 95 94 95 96 93 93 88 78 75 75 73 68 62 57 57 57 57 58 61 64 68 70 70 69 66
92 98 95 95 96 90 84 90 93 94 97 96 94 90 88 90 93 93 92 92 93 94 95 96 98 97 98 97 96 95 95 95 95 94 94 94 87 77 73 69 65 62 61 60 60 61 62 64 64 64 66 69 71 72
100 94 97 100 100 100 100 100 99 98 99 97 96 96 97 96 95 96 97 97 98 99 100 98 97 96 96 96 96 96 96 96 96 95 94 91 84 78 73 69 70 66 64 66 68 70 71 71 71 70 66 66 71 72
95 95 95 94 100 100 100 93 96 96 96 97 98 98 97 96 96 98 100 100 100 98 97 96 96 96 96 96 96 96 96 96 96 96 97 98 98 91 82 70 67 68 70 72 74 75 75 76 73 71 66 62 68 70

GFSWCAN_850_rhum_003.txt.gz
RH
88 93 100 100 96 100 95 99 82 73 85 76 86 90 90 95 93 89 79 77 72 59 67 62 56 50 54 54 70 54 58 57 67 74 79 81 77 68 69 70 68 66 78 77 84 79 71 53 52 60 62 60 54 54
97 92 99 100 98 97 90 98 80 73 84 73 78 87 90 95 100 96 86 79 76 69 68 66 62 61 60 60 50 55 68 62 59 85 84 85 81 80 75 75 67 73 68 72 70 70 60 54 53 51 50 52 54 52
100 94 96 100 99 96 92 95 74 68 77 71 70 79 89 98 99 99 88 82 76 78 87 78 79 69 68 64 54 60 65 60 65 59 82 84 72 83 82 79 68 61 64 70 68 69 63 54 53 52 54 56 57 58
100 88 88 100 100 94 91 91 70 65 66 68 61 69 79 92 98 100 93 86 78 78 93 97 92 88 81 69 67 62 55 59 62 67 80 87 82 77 85 75 76 69 71 77 76 70 67 60 57 57 59 61 63 64
100 83 83 99 100 94 91 88 64 62 58 62 59 59 68 86 98 98 98 93 83 75 95 99 92 88 85 84 69 64 60 60 65 77 86 89 93 85 96 95 95 80 78 80 77 63 60 63 59 60 64 65 68 67
99 63 75 99 99 94 88 84 65 64 58 58 63 66 75 93 99 100 88 95 89 74 78 99 96 95 92 91 73 71 70 71 75 78 92 91 85 77 95 94 72 70 70 65 63 60 58 57 62 61 60 61 60 58
100 87 74 100 99 93 88 81 69 68 63 60 76 98 100 100 99 71 74 86 94 73 63 100 96 98 100 96 93 88 82 84 77 88 92 87 87 81 96 95 68 65 68 66 60 59 66 68 65 64 63 62 51 51
100 99 100 100 100 99 88 81 75 71 69 76 98 100 99 94 78 78 83 93 94 68 61 100 98 95 96 98 99 100 93 90 92 95 92 89 88 90 89 83 76 70 66 62 62 61 61 64 62 64 51 37 36 42
98 100 100 100 98 100 96 81 79 77 86 100 99 98 98 89 78 84 97 100 90 73 98 99 99 99 93 99 98 92 89 97 99 98 93 84 97 98 82 78 72 67 66 61 65 67 64 64 55 34 35 38 43 50
98 99 100 100 99 100 100 86 84 85 99 98 98 86 92 82 88 92 96 98 81 86 82 98 86 99 92 96 98 88 89 99 100 98 94 98 97 80 80 72 70 66 66 63 62 65 64 44 34 38 41 49 61 73
98 98 100 100 100 100 100 100 100 100 99 100 95 96 100 100 86 83 98 92 99 97 99 92 90 96 93 94 97 83 97 98 97 88 95 94 95 85 66 62 61 72 70 64 51 37 35 40 41 40 46 60 72 79
97 98 99 100 100 100 100 100 100 100 100 89 82 98 97 84 90 92 92 94 93 84 95 98 94 89 96 84 92 86 91 92 79 91 93 87 88 64 62 66 64 55 43 32 38 44 47 46 43 42 46 61 74 88
96 97 99 99 100 100 100 100 100 100 100 97 96 99 92 99 98 95 97 87 92 92 99 100 99 92 96 90 94 92 91 90 86 92 89 91 64 67 62 47 37 31 32 36 43 48 52 52 47 43 47 65 81 84
93 97 98 99 99 100 100 100 100 100 99 100 100 99 98 99 93 91 90 91 77 98 100 96 100 98 99 98 98 95 96 95 98 100 96 92 58 54 54 44 35 34 34 37 41 47 56 63 61 51 46 58 69 64
86 95 96 97 99 99 100 100 100 100 99 100 100 97 98 91 95 90 96 99 100 100 95 88 90 89 100 98 90 97 99 94 90 90 90 56 53 46 43 42 41 42 42 42 40 40 54 66 66 62 57 62 66 49
86 92 96 95 99 98 99 100 99 100 100 100 100 99 98 94 99 100 100 99 100 92 75 74 97 97 98 95 98 95 93 94 87 93 52 50 44 45 44 44 47 51 52 53 49 44 51 66 70 63 62 64 64 49
94 94 92 95 97 97 99 99 99 100 100 100 99 99 88 87 92 99 98 99 92 79 99 94 96 89 94 97 100 93 90 86 70 55 48 43 45 45 50 52 52 59 59 57 57 57 57 69 72 59 58 66 65 52
94 95 92 90 95 98 98 99 99 99 99 100 98 100 93 91 93 98 98 95 86 87 89 92 90 99 95 98 95 91 71 59 49 47 48 50 53 57 61 60 64 65 62 61 61 61 71 72 62 54 74 83 71 63
88 94 94 95 98 98 99 99 99 99 99 100 98 100 97 98 95 90 97 92 83 77 82 98 93 96 90 88 78 60 60 58 55 55 57 60 63 65 66 67 64 64 66 61 63 73 75 67 61 72 85 82 78 78
89 94 96 95 98 98 97 98 99 99 98 99 100 99 99 99 100 100 100 98 95 79 96 99 82 74 68 60 54 56 57 60 61 61 54 54 62 62 61 63 67 68 67 65 71 80 74 63 68 76 82 85 82 78
85 94 92 96 97 99 98 95 98 98 98 97 99 98 99 100 100 99 99 96 84 85 100 76 61 61 59 58 59 65 69 66 64 67 67 57 58 62 67 73 74 72 69 79 86 85 84 79 82 81 81 81 77 66
91 95 100 96 97 98 94 98 99 98 97 98 98 97 97 97 100 100 98 94 93 70 67 62 57 59 63 67 70 71 67 65 65 64 65 64 66 72 78 79 76 76 88 94 97 94 84 85 92 89 78 66 55 52
88 82 95 97 97 97 98 98 96 97 96 97 97 97 97 97 98 98 98 97 89 85 81 77 77 81 80 72 65 63 62 62 63 63 66 69 75 80 82 81 86 94 97 97 96 98 99 94 83 69 57 54 54 53
84 77 81 94 96 96 97 97 97 96 96 95 96 95 97 100 100 97 97 93 90 84 80 77 75 67 62 64 68 66 63 64 67 71 75 78 80 84 88 92 95 98 98 99 98 94 82 71 59 57 56 56 53 47
72 90 83 94 88 88 92 96 96 94 95 95 95 95 96 96 96 96 96 80 75 82 75 67 64 60 62 64 66 69 71 74 77 82 85 89 93 96 96 97 98 99 97 84 71 66 60 59 59 59 56 49 46 44
96 96 94 96 94 90 91 97 96 95 94 95 95 95 95 94 93 85 90 79 81 83 79 73 67 64 65 68 72 76 78 81 85 90 93 96 98 100 100 98 97 88 69 65 61 61 61 61 58 52 46 50 53 53
100 99 95 88 86 89 94 90 88 90 96 94 96 98 94 92 92 85 76 78 74 73 70 67 67 69 72 77 79 79 81 84 89 94 96 97 97 96 97 86 70 65 64 63 63 63 61 55 48 47 48 52 58 61
83 90 94 89 98 91 99 100 100 99 95 89 88 100 88 81 80 76 77 74 71 69 70 72 76 80 82 82 84 87 90 93 96 98 98 98 97 95 83 70 64 64 65 65 63 58 51 49 49 51 53 57 60 65
89 86 88 89 98 96 93 92 92 74 71 80 90 91 89 77 74 75 74 70 74 74 82 85 84 85 86 88 91 94 97 99 99 97 95 92 93 91 86 70 68 68 66 61 53 52 54 53 54 57 60 62 65 68
97 91 95 100 100 100 84 80 76 76 79 76 73 72 73 73 77 78 77 76 79 85 86 86 86 86 90 92 94 96 97 97 97 96 95 95 93 90 77 73 71 66 58 54 56 57 58 61 62 62 62 62 62 61
96 97 97 96 96 92 88 90 92 92 92 91 89 85 85 86 89 89 89 91 91 91 92 91 90 93 94 95 98 97 95 95 95 96 95 94 94 91 78 72 67 61 59 60 60 62 64 64 65 66 67 67 64 60
100 93 94 100 100 100 100 100 100 100 100 99 97 100 100 96 94 98 94 96 96 95 95 97 99 97 96 97 97 96 95 96 96 95 95 95 94 91 80 75 71 68 63 63 65 67 69 72 73 74 70 66 61 57
95 95 96 95 100 100 100 93 98 97 97 98 98 98 98 96 96 100 98 100 100 100 100 98 97 97 96 96 95 95 96 96 96 96 96 94 96 96 89 77 67 66 68 71 72 72 74 75 75 74 71 67 64 58

GFSWCAN_850_rhum_006.txt.gz
RH
94 98 98 99 96 100 100 100 100 97 100 99 100 100 100 97 99 93 81 81 77 58 73 65 57 50 53 52 56 49 53 51 69 72 77 84 78 71 70 67 62 58 73 78 84 76 69 52 53 56 60 61 52 51
94 97 99 99 98 100 100 99 99 98 92 100 100 100 99 94 98 99 92 85 72 57 77 69 66 61 57 58 48 57 63 62 57 86 83 85 83 80 74 74 70 64 61 66 69 69 62 58 54 50 49 52 55 53
96 98 98 99 97 97 100 100 97 98 88 99 100 95 97 98 98 99 94 86 77 69 90 83 79 72 69 58 47 59 63 57 61 60 83 83 71 80 81 76 68 64 65 70 68 68 62 57 55 52 52 54 56 58
96 98 100 98 96 94 99 100 92 97 82 96 100 95 95 100 98 97 95 85 80 75 93 96 91 86 77 69 64 58 55 57 59 63 81 86 80 79 82 73 71 68 69 76 77 76 67 62 57 56 58 60 62 63
96 98 99 98 77 89 98 100 95 98 74 85 99 94 99 98 98 98 96 90 81 78 95 100 92 91 88 74 68 61 58 59 64 79 87 89 92 89 97 92 93 80 75 78 75 66 65 63 58 57 60 62 64 65
97 98 98 95 74 84 99 100 100 89 71 77 75 91 100 99 99 98 97 95 86 78 82 100 96 99 90 74 69 69 67 68 73 78 94 93 90 78 92 91 73 73 70 67 64 61 58 59 59 61 62 63 62 54
96 98 99 100 79 91 100 100 100 79 72 66 71 97 100 99 98 86 76 90 80 65 65 100 99 100 95 87 85 84 80 80 75 88 93 89 89 77 90 86 65 68 66 64 64 62 70 69 67 65 64 60 44 35
94 97 98 98 99 100 100 100 99 75 68 70 99 99 99 99 100 83 78 96 78 61 59 100 100 95 96 99 99 95 88 87 90 94 91 89 89 88 87 80 79 73 77 68 65 62 62 66 64 62 51 35 36 40
94 95 98 100 100 100 100 100 98 79 75 99 98 100 100 95 82 89 100 94 80 66 94 98 94 99 95 99 97 88 87 98 96 95 93 83 93 96 73 76 77 72 68 71 71 68 67 67 52 35 37 40 44 45
93 96 98 100 99 100 98 100 100 90 98 98 99 84 87 80 82 96 94 91 81 81 76 97 91 97 92 96 98 87 90 99 100 98 97 97 96 81 72 66 66 68 66 67 70 73 63 36 37 40 42 43 45 51
92 96 98 99 99 100 100 100 100 100 100 99 93 94 100 99 83 78 95 95 97 97 98 98 92 97 93 94 96 86 98 97 98 92 92 98 95 86 76 73 69 70 66 67 56 37 39 40 41 43 44 43 45 53
94 97 98 98 99 100 100 100 100 100 99 90 81 100 94 81 84 88 91 95 97 96 99 95 95 90 90 80 87 86 97 92 91 96 98 95 86 68 72 78 67 76 73 53 39 41 40 45 50 51 48 43 42 52
92 97 98 98 99 100 100 100 100 100 98 94 94 98 90 100 98 96 100 88 99 94 100 100 99 94 89 79 94 90 88 91 86 93 78 90 69 70 59 68 75 71 45 40 42 44 48 54 58 58 56 52 47 53
85 95 98 97 98 100 100 100 100 100 99 98 99 99 97 99 95 93 92 91 77 90 100 89 100 98 97 90 95 82 93 90 94 95 98 93 60 63 46 38 34 35 35 38 40 44 46 51 59 62 63 63 58 54
80 94 96 97 99 98 99 100 100 100 99 100 99 97 99 97 97 92 91 98 99 100 88 89 92 92 99 98 93 98 100 95 79 95 90 61 54 57 44 39 37 36 37 39 41 43 44 42 49 60 67 66 63 61
82 95 96 98 98 98 99 100 100 100 100 100 99 97 97 94 99 98 96 98 99 93 72 71 97 96 100 95 98 96 91 92 87 92 57 56 54 45 41 41 43 44 46 49 51 52 51 51 54 60 68 68 61 64
84 97 98 97 98 96 98 99 100 100 100 99 99 94 86 88 96 99 100 99 97 80 99 93 91 91 95 99 100 93 94 87 73 65 55 43 42 43 48 51 52 56 58 58 58 59 59 60 60 68 70 63 64 70
88 96 97 97 97 97 98 99 99 99 99 99 99 100 92 91 99 100 99 98 90 90 79 86 85 99 96 97 98 92 77 76 64 52 49 46 48 52 54 53 53 55 57 56 56 62 63 63 71 72 67 66 79 80
85 90 93 92 95 98 98 98 98 98 99 100 100 100 98 98 92 92 99 94 81 74 68 88 90 92 91 89 85 79 70 58 58 59 55 60 60 56 55 54 56 58 59 62 66 65 65 71 75 70 68 78 82 79
88 96 98 89 93 98 98 98 98 98 98 99 100 100 100 100 100 100 98 86 78 68 85 92 77 72 70 59 56 55 54 53 50 55 54 52 51 55 58 58 58 64 68 69 68 67 75 80 75 75 79 84 86 87
80 86 84 83 90 98 99 98 98 98 98 97 99 98 100 100 100 98 99 84 81 88 93 75 70 67 65 64 64 62 61 58 55 54 55 60 59 58 60 68 75 75 74 71 73 84 86 88 87 88 92 88 93 90
80 85 92 91 96 97 97 98 98 98 97 98 97 98 98 98 98 99 99 98 98 84 86 83 78 80 73 68 66 63 60 56 54 55 56 57 61 70 77 79 80 77 76 83 94 97 98 94 91 94 95 83 60 53
72 75 85 88 96 93 97 98 96 97 97 97 97 97 97 97 98 99 98 98 99 95 91 86 84 83 75 73 67 57 55 57 58 59 60 62 66 74 80 83 85 89 97 97 97 95 96 97 96 81 63 55 54 55
80 76 82 90 94 96 96 96 96 96 96 96 96 96 96 97 97 96 97 97 100 97 88 77 87 81 72 67 66 64 61 61 64 68 71 75 78 80 85 88 92 94 97 99 99 99 97 84 67 58 57 57 56 47
69 90 81 93 85 92 95 95 95 92 96 95 95 96 95 96 96 96 96 90 94 87 77 72 63 59 62 65 68 69 70 72 74 75 77 80 81 89 94 95 96 98 97 96 94 82 68 60 59 59 58 50 42 41
98 94 87 99 96 88 94 95 96 96 95 95 95 95 96 95 95 90 92 88 87 88 79 77 70 67 68 69 71 73 74 74 76 80 85 91 94 96 99 98 97 96 93 77 67 62 61 61 60 54 46 46 46 47
100 100 95 90 87 88 92 88 86 92 95 95 95 95 93 89 88 88 87 84 83 85 78 74 70 69 71 73 74 74 75 77 81 87 92 94 96 97 96 97 92 80 71 64 63 63 62 58 48 46 47 50 54 57
86 95 95 86 98 94 98 100 99 96 94 88 85 95 84 74 79 86 87 81 78 77 78 78 79 79 77 77 76 77 79 83 88 93 95 98 99 98 95 89 72 66 66 65 64 61 53 47 47 47 48 50 54 59
95 90 88 87 97 99 97 93 95 77 76 80 89 92 90 80 80 84 83 83 84 85 85 86 84 84 84 84 85 88 91 93 95 96 96 93 94 93 93 82 70 68 67 64 56 50 48 49 49 51 56 59 62 66
96 96 97 99 100 100 90 88 81 79 80 76 74 73 74 77 80 79 80 81 82 83 86 88 89 88 88 88 88 91 94 96 98 96 97 96 96 94 85 79 77 71 62 53 53 55 56 59 62 66 69 70 66 62
99 98 96 98 99 95 96 95 94 90 89 89 87 82 84 84 85 85 82 82 85 93 95 95 94 94 93 92 93 95 96 97 97 96 96 96 95 92 86 78 71 63 56 56 56 59 63 66 68 68 68 68 67 64
100 95 94 100 100 100 100 100 100 100 100 100 98 100 100 97 91 97 91 94 94 97 96 96 95 94 94 94 96 96 95 96 96 96 95 95 94 92 85 78 68 63 59 60 64 67 67 67 68 66 64 63 63 61
96 95 96 95 98 100 100 93 99 99 97 98 99 98 98 97 96 100 96 96 96 98 98 98 96 96 97 96 95 95 96 96 95 94 95 96 96 95 91 80 68 64 66 69 70 69 69 70 67 60 53 51 51 51

GFSWCAN_850_rhum_009.txt.gz
RH
98 99 98 95 93 98 97 96 100 100 100 100 100 99 98 100 100 100 92 86 89 67 77 67 57 51 55 46 56 49 49 49 80 80 81 80 74 71 69 60 57 57 68 68 79 71 55 51 50 54 58 64 56 52
98 99 98 95 95 98 98 92 100 100 100 99 100 99 99 100 100 100 100 91 90 68 81 74 66 60 57 54 40 56 56 57 52 81 86 87 82 80 74 71 69 60 54 63 63 63 66 60 56 55 56 52 53 50
96 99 99 96 96 99 98 93 99 100 100 100 100 98 100 99 100 100 100 94 78 77 92 84 80 73 68 51 39 56 65 54 59 61 83 85 72 82 82 77 70 67 68 74 66 68 64 63 57 51 50 51 53 53
94 99 100 95 98 100 90 94 99 100 100 100 100 100 100 97 100 100 100 94 85 74 93 92 92 83 72 65 55 54 52 55 57 61 82 86 77 78 80 70 70 67 67 78 83 76 66 62 56 54 55 56 57 60
90 100 100 97 98 100 86 88 97 99 100 100 100 100 100 99 100 100 100 96 88 82 93 99 93 93 80 70 66 59 59 59 64 80 86 88 89 90 96 88 84 80 74 75 73 67 65 61 59 60 59 61 63 62
88 99 100 97 98 100 97 88 98 100 100 100 100 100 100 98 99 100 100 99 91 79 83 100 97 95 81 74 67 66 64 64 71 78 96 95 92 80 92 89 70 71 64 56 63 64 59 60 61 62 60 62 61 56
86 100 100 96 98 100 99 92 98 100 100 100 100 100 99 98 100 99 86 93 89 76 71 100 100 99 90 83 81 80 75 75 73 88 91 91 93 76 87 82 64 69 73 68 63 58 74 68 67 65 59 58 55 38
88 100 98 98 99 100 98 90 100 100 100 100 100 99 98 100 100 93 86 97 84 64 67 100 100 98 97 98 99 92 86 84 86 92 92 89 95 88 89 78 75 71 74 73 67 61 58 62 64 62 60 45 37 42
89 100 96 96 98 100 100 98 100 100 100 100 99 97 100 100 96 88 95 96 79 67 96 92 98 100 97 99 95 85 88 98 95 93 93 86 93 94 76 81 79 77 71 73 73 69 68 62 62 48 37 40 44 48
91 99 97 96 98 100 98 100 100 100 99 100 99 96 91 87 90 90 90 80 72 73 73 97 89 99 93 95 98 89 91 99 100 99 96 97 95 76 66 61 60 74 68 68 74 79 69 53 36 39 41 41 40 42
90 98 97 97 98 99 100 100 100 100 100 100 91 87 96 100 85 74 91 94 95 97 93 99 91 97 93 93 94 87 96 96 98 93 92 98 98 89 79 75 74 72 66 67 61 59 45 36 37 38 40 43 43 44
82 97 96 95 96 98 100 100 99 100 100 96 82 99 95 78 79 84 96 98 95 96 99 96 96 91 88 74 85 86 97 91 89 92 96 98 87 71 75 78 80 74 70 62 44 37 35 35 42 47 48 47 47 46
54 91 92 95 98 98 100 100 99 100 99 93 92 97 90 99 98 90 94 88 100 98 100 100 99 96 80 76 97 88 89 92 90 98 91 88 72 71 71 70 78 77 65 40 42 37 39 44 49 54 57 58 58 57
51 86 92 96 98 97 100 100 100 100 98 98 100 99 97 99 96 93 91 92 78 93 100 96 98 97 91 91 91 81 90 86 91 90 88 91 63 68 80 86 81 82 55 43 42 42 46 50 55 60 63 64 64 62
52 80 94 95 98 97 99 100 100 100 98 100 100 98 99 98 98 85 95 98 97 100 85 90 95 90 98 92 88 97 99 87 78 91 90 63 61 54 56 68 66 48 41 41 41 41 42 45 46 53 62 66 68 65
63 84 98 98 96 97 99 100 100 100 100 100 99 97 96 97 100 99 94 99 99 89 68 70 99 98 99 95 97 99 89 90 86 91 60 60 62 43 39 38 37 37 38 42 48 52 52 51 54 59 63 69 68 64
72 92 95 92 93 97 98 99 99 100 100 99 98 95 87 92 98 94 92 96 95 77 97 94 88 88 96 98 99 96 92 87 70 63 60 59 45 42 41 44 49 52 55 56 57 58 59 60 62 64 71 70 67 70
78 84 92 86 91 96 98 99 99 99 98 98 98 97 93 92 100 100 100 98 83 76 76 84 86 98 98 99 99 93 81 86 71 64 59 49 46 51 55 58 60 60 61 61 62 63 67 66 67 72 74 70 72 78
80 88 91 81 91 97 98 98 98 98 98 98 100 100 100 97 96 98 100 93 74 57 64 84 86 94 93 93 89 83 80 78 82 69 60 58 58 60 62 60 55 54 59 62 66 70 70 70 74 76 74 72 75 77
76 75 74 75 89 97 98 98 98 98 98 99 99 99 100 100 100 100 99 87 73 72 83 86 76 72 70 65 68 64 65 63 56 62 65 62 59 55 49 44 42 44 51 61 69 70 71 76 80 79 79 79 83 87
60 59 73 85 94 97 98 98 98 98 98 95 98 99 99 100 100 100 96 82 92 98 93 74 72 70 65 62 60 56 54 49 48 48 46 43 42 39 36 38 46 55 65 71 73 74 82 86 87 89 91 89 90 89
64 70 78 89 96 97 97 97 98 98 97 98 97 98 98 98 98 99 99 98 98 93 81 78 80 74 67 62 57 51 45 41 38 37 38 39 42 47 56 65 73 76 76 76 82 90 94 96 93 91 93 87 65 54
66 69 78 84 86 83 97 96 96 97 97 97 97 97 97 97 98 99 97 98 97 100 80 75 77 77 68 69 65 57 50 46 44 46 50 56 62 66 71 77 80 82 84 91 96 96 94 95 95 92 69 57 55 56
66 71 80 92 89 96 91 96 96 96 96 96 96 96 96 96 97 97 96 96 97 98 91 86 85 82 79 74 65 60 58 59 58 60 65 69 74 80 86 87 89 92 95 96 97 97 97 95 76 60 57 58 57 49
62 86 80 93 83 89 95 95 96 94 95 95 95 96 96 96 96 96 96 96 96 97 98 98 94 82 72 68 68 67 71 74 74 71 78 79 80 84 89 93 95 97 98 98 96 95 79 63 60 60 59 53 42 40
95 97 85 99 97 87 96 95 96 95 95 95 95 95 96 96 95 96 95 96 96 96 96 94 84 74 69 65 67 70 70 71 72 72 77 82 89 94 94 92 94 97 94 91 76 65 61 61 61 57 46 42 41 42
100 98 98 96 92 89 91 88 84 94 95 96 95 95 94 95 95 90 96 96 96 95 89 79 74 71 69 72 74 72 71 72 73 77 81 87 92 95 96 94 96 89 76 67 63 63 62 60 52 45 44 44 45 47
85 94 95 86 95 96 98 100 98 93 96 88 84 91 84 81 86 94 93 93 90 86 82 78 77 77 75 74 73 72 72 74 78 83 88 91 94 96 95 89 80 71 66 66 65 63 57 48 46 46 48 51 55 57
93 90 88 90 95 100 100 93 94 84 86 83 91 94 94 92 97 95 93 87 84 83 83 82 80 80 78 76 77 78 80 84 87 88 90 88 93 92 86 78 75 71 67 65 60 52 48 48 49 53 56 58 60 64
95 98 98 98 100 100 97 94 91 92 86 81 76 78 84 93 93 91 88 87 87 84 87 87 85 85 83 81 80 84 87 89 92 94 90 90 91 92 86 80 78 75 66 56 52 53 54 57 60 62 63 62 62 62
100 99 97 100 100 100 99 100 99 95 91 88 86 79 88 90 91 89 88 89 88 88 93 92 90 88 87 86 88 89 91 94 95 95 94 94 93 92 89 85 77 66 57 56 57 59 63 65 64 62 60 54 52 52
100 93 97 100 100 100 100 100 100 99 100 98 97 96 99 96 96 98 96 98 98 99 98 97 96 96 95 96 98 97 96 95 95 95 95 96 96 93 88 82 73 64 60 61 63 66 67 67 66 66 58 45 43 44
96 95 96 96 100 100 100 95 98 99 97 99 99 100 100 100 98 100 100 100 100 100 99 98 96 97 98 98 99 98 98 97 97 97 97 97 96 95 91 82 70 65 66 67 67 67 68 68 62 50 45 43 43 47

GFSWCAN_850_rhum_012.txt.gz
RH
84 84 89 99 99 96 93 94 98 98 100 100 100 100 98 100 100 100 99 83 91 72 73 66 61 54 61 69 82 57 70 70 91 88 80 83 74 66 49 46 46 51 58 55 60 85 63 46 47 43 49 58 55 54
87 87 86 99 98 96 96 93 99 98 100 100 100 99 98 99 99 100 100 92 98 91 80 78 70 61 54 46 61 61 63 62 77 90 76 66 62 64 50 50 55 48 45 41 42 42 59 61 55 53 55 55 56 54
89 87 87 99 99 98 94 96 100 98 98 100 100 99 98 96 100 100 100 95 97 82 88 85 84 83 67 54 47 56 60 48 56 56 69 72 65 60 56 53 54 57 57 50 54 59 58 61 62 61 56 52 50 48
92 86 86 97 98 97 95 98 100 98 99 100 100 98 99 97 100 100 100 93 80 73 81 87 88 84 75 62 45 53 50 48 53 57 69 69 64 69 64 56 52 51 55 57 66 65 61 62 60 54 53 51 50 53
94 86 83 96 98 95 96 98 99 99 97 100 100 99 97 98 100 100 100 100 91 86 83 91 93 88 74 71 65 60 55 55 67 70 71 74 72 72 80 66 60 56 51 50 47 50 49 52 61 57 55 56 56 55
93 88 84 97 99 94 96 99 98 97 98 100 99 99 98 99 100 100 100 99 99 89 85 98 95 90 81 75 71 68 64 62 68 78 85 90 88 70 78 68 55 61 60 53 47 58 59 60 62 60 57 60 60 57
92 91 88 97 98 94 97 99 100 95 99 100 100 99 98 100 100 100 95 97 99 89 82 99 99 95 88 82 79 78 73 73 72 90 84 83 85 74 69 66 50 68 65 61 58 59 77 70 68 64 59 61 58 48
91 92 88 97 98 95 98 100 100 98 100 100 100 98 100 100 100 100 89 100 100 87 85 100 99 98 93 96 92 88 91 85 90 91 91 76 90 78 77 60 67 77 75 72 71 62 64 63 65 65 60 56 50 35
88 92 90 98 98 93 98 99 98 100 100 100 99 99 100 100 96 95 97 98 82 75 94 93 100 100 98 99 92 85 86 94 94 83 84 83 78 90 69 62 71 79 68 72 69 65 66 64 64 62 58 41 38 40
89 92 60 96 96 92 98 100 100 100 100 100 99 95 94 92 89 91 92 85 83 77 73 87 91 99 94 94 96 88 93 99 100 98 96 95 83 72 62 60 61 65 67 67 72 83 74 67 62 52 38 40 41 42
87 83 49 98 91 93 98 100 100 100 100 100 98 89 96 91 82 73 96 91 89 97 91 96 88 94 93 91 91 89 96 96 99 88 87 91 90 77 76 64 65 66 67 67 59 59 58 52 38 38 39 40 42 44
70 70 57 88 90 93 97 100 100 99 98 96 80 99 98 76 74 88 97 99 97 92 99 92 95 88 88 70 85 84 92 86 88 83 92 92 75 72 89 79 75 72 72 68 63 58 46 37 36 38 42 44 46 47
67 52 71 86 94 95 98 100 100 99 100 94 92 91 89 97 97 93 98 99 99 98 100 100 100 89 76 72 85 78 86 85 84 91 88 75 74 76 87 83 78 76 75 68 54 37 36 39 46 49 50 52 52 53
61 36 85 96 91 97 99 99 100 100 98 98 100 100 97 100 92 87 81 89 80 99 100 97 98 90 85 86 78 84 80 75 88 92 80 62 71 73 77 87 81 78 52 42 39 42 46 49 52 54 55 56 59 61
51 43 87 88 90 98 98 100 100 100 100 100 99 98 99 95 98 91 88 91 97 100 90 94 95 87 90 88 77 89 93 88 72 73 68 73 72 71 78 88 78 52 46 44 44 47 48 46 48 50 55 60 65 66
33 62 86 90 86 97 98 100 100 100 100 100 99 96 96 96 98 99 100 98 98 88 62 67 94 92 96 86 89 89 81 82 73 82 70 67 69 86 83 84 77 49 48 47 44 43 46 48 49 55 62 67 69 67
43 78 86 90 87 98 99 100 99 100 100 99 97 96 90 94 92 95 94 97 96 75 89 88 84 90 91 94 93 82 86 76 79 70 63 57 54 65 80 74 51 43 42 46 48 51 53 55 59 64 70 71 69 67
64 76 80 82 88 97 98 99 99 99 98 99 96 99 99 97 93 95 98 98 85 75 75 79 87 98 96 98 96 83 87 86 75 71 68 48 44 44 43 45 47 47 47 48 52 57 62 65 66 70 72 72 70 71
63 65 66 75 92 98 98 98 98 97 98 98 100 100 99 100 100 98 99 95 73 56 64 75 77 82 76 76 77 85 84 80 86 79 61 53 51 52 52 52 52 54 60 64 66 66 68 70 72 74 74 73 73 74
42 49 65 78 93 97 98 98 98 98 97 98 98 98 99 99 100 100 98 93 78 73 87 76 60 63 66 66 70 69 72 72 68 72 70 65 62 60 59 58 58 59 60 62 67 70 71 72 76 78 79 78 80 81
40 52 60 81 95 97 97 97 98 98 98 97 98 98 99 99 99 99 99 100 100 99 84 78 82 75 72 71 70 73 76 69 63 59 62 67 65 59 56 57 58 59 60 65 69 73 78 83 85 86 87 88 88 90
55 57 66 79 95 97 97 97 98 98 97 98 97 98 98 98 99 99 100 98 99 98 80 78 80 79 73 69 67 62 58 55 53 54 53 50 51 55 56 58 67 66 70 73 77 81 88 92 93 92 92 90 77 59
55 61 67 76 80 81 96 96 97 96 96 97 97 96 96 97 98 99 97 98 98 100 88 82 80 72 65 69 59 54 49 40 36 36 40 41 45 51 55 60 65 69 72 77 85 92 92 92 93 93 83 63 55 55
63 62 69 84 87 97 88 96 96 96 97 94 95 94 94 96 97 97 95 95 98 100 93 86 77 73 73 67 53 50 46 44 36 40 46 48 50 58 66 70 74 76 82 87 91 93 94 94 91 73 59 57 57 54
60 81 73 90 81 87 94 94 95 93 94 94 94 94 94 96 95 95 94 95 96 97 99 91 82 69 60 57 54 50 48 50 51 51 59 65 69 72 75 78 83 88 92 93 94 95 94 84 64 58 58 57 49 40
92 98 92 99 96 89 93 94 95 95 94 94 94 95 96 94 94 94 92 97 96 96 97 96 82 73 64 58 56 62 64 63 62 62 67 73 78 84 84 85 88 94 94 100 96 88 69 61 60 59 53 43 39 40
86 96 100 98 94 91 86 84 82 87 95 95 94 94 94 94 94 91 96 95 95 95 96 96 97 92 65 66 70 68 68 70 72 72 73 78 84 90 95 92 93 92 93 81 70 64 62 61 57 48 42 42 43 45
83 92 87 93 94 97 95 95 96 91 90 88 94 94 94 88 91 96 96 96 96 96 96 95 87 76 74 72 70 69 69 71 72 76 83 89 94 96 94 92 88 81 72 66 65 64 60 53 46 44 46 48 51 51
93 92 88 98 98 100 100 92 89 95 95 90 84 89 93 99 99 96 96 96 96 95 92 86 82 77 73 71 71 73 75 78 82 85 84 84 92 94 91 83 75 70 69 66 63 57 50 46 47 50 52 51 49 48
94 99 98 99 100 100 100 98 98 97 88 81 82 86 94 100 100 100 97 95 93 94 93 90 85 83 81 79 80 85 87 86 88 89 83 84 85 85 81 77 74 71 68 63 55 50 50 51 54 54 52 52 50 46
100 99 97 100 100 100 100 100 100 96 92 90 86 79 89 92 92 94 93 94 92 93 94 92 90 88 87 85 85 85 87 89 90 90 88 88 88 88 84 83 82 73 63 56 54 53 56 59 58 58 58 59 51 43
100 95 95 100 100 100 100 100 100 99 100 95 96 94 96 93 93 90 88 89 89 90 95 95 94 93 90 88 89 89 90 93 94 93 93 94 95 93 91 85 80 70 60 56 58 60 62 63 64 64 59 47 44 43
97 95 97 98 100 100 100 98 98 98 97 100 100 100 100 100 98 99 97 96 95 96 97 97 96 96 97 95 92 90 92 96 97 96 97 98 96 93 91 88 76 64 62 62 63 64 66 68 58 45 46 46 46 42

GFSWCAN_850_rhum_015.txt.gz
RH
95 90 90 86 89 97 99 98 91 92 98 98 98 99 100 100 100 100 98 100 96 77 73 67 68 61 96 92 78 68 87 77 85 88 82 77 66 53 54 56 72 71 83 90 78 84 84 38 42 40 47 45 39 39
96 91 92 88 88 94 99 98 93 92 97 97 97 100 100 100 100 100 100 100 88 98 96 78 73 62 69 88 81 63 70 73 83 95 76 70 74 58 45 56 43 60 46 45 43 53 49 46 48 50 48 47 47 48
98 93 93 90 89 95 100 99 90 91 98 98 98 100 100 99 100 100 100 100 100 99 96 91 90 80 67 74 84 80 80 73 78 78 81 71 72 57 60 52 41 42 44 40 40 47 48 48 56 54 49 51 53 55
99 95 92 90 87 96 98 98 93 94 99 98 99 100 100 99 100 99 99 99 98 88 77 85 89 85 75 67 73 84 81 66 64 68 88 80 63 58 55 50 44 43 46 45 47 56 56 56 55 57 57 58 57 56
99 95 93 88 87 94 99 97 96 97 98 97 99 100 100 99 99 100 100 100 95 95 76 83 92 85 75 70 55 59 62 62 61 70 72 74 67 66 64 56 50 47 41 46 40 43 41 46 55 60 60 60 52 49
100 98 93 90 87 92 99 97 94 98 98 98 100 100 100 100 100 100 99 97 99 98 89 87 98 95 81 78 81 79 78 73 73 66 73 74 80 65 75 63 44 44 48 49 40 47 51 54 62 61 63 61 59 54
99 99 94 92 89 91 100 97 95 99 98 98 100 100 100 99 100 100 97 98 95 100 89 99 88 97 85 84 82 85 78 78 80 80 74 71 71 71 63 63 44 48 53 58 59 58 61 63 66 67 61 58 57 51
96 99 94 93 90 94 100 94 95 98 100 100 100 100 100 100 100 100 97 92 100 94 88 100 99 96 89 86 85 86 84 85 91 83 82 68 77 68 74 55 47 55 61 63 65 61 60 64 72 75 62 59 53 42
89 88 85 93 85 94 98 94 96 99 99 100 100 100 100 100 100 99 95 100 100 96 98 99 100 100 96 98 93 86 91 82 93 77 73 78 68 89 66 55 55 63 64 69 74 68 71 73 76 67 62 57 44 38
85 80 83 89 51 97 89 93 96 99 97 100 100 99 100 98 99 90 97 98 92 90 82 91 90 99 93 92 95 86 92 94 100 90 91 87 82 64 66 60 58 68 72 66 71 92 82 77 70 65 57 49 43 39
83 81 71 62 67 88 94 95 98 100 100 100 100 95 100 99 85 83 97 100 93 100 89 86 80 93 91 89 91 90 98 99 100 87 87 83 81 67 77 69 67 72 64 64 60 57 65 62 64 56 42 39 36 34
78 84 56 36 86 91 98 98 99 100 100 97 95 100 95 72 71 95 98 98 97 90 95 84 86 79 86 69 86 85 96 90 98 78 90 88 68 72 78 80 83 73 71 72 64 68 68 61 46 38 36 35 37 39
81 62 47 45 88 98 94 98 100 100 100 99 97 88 81 96 99 100 97 98 94 99 100 97 98 81 77 71 89 81 98 89 77 87 85 74 77 88 85 85 84 82 76 72 68 60 50 38 36 33 36 41 46 48
68 48 30 82 88 98 96 98 100 100 100 100 100 100 100 100 90 87 79 93 86 99 100 95 89 84 74 86 74 96 76 73 87 89 77 56 68 81 90 91 83 77 70 63 50 39 36 35 40 45 49 50 52 55
47 30 53 81 90 92 97 99 100 100 100 100 100 100 100 95 100 98 94 91 99 100 90 93 90 77 88 92 71 87 93 88 74 70 68 76 76 83 94 86 73 68 59 43 39 38 40 45 49 51 53 56 59 59
29 44 74 81 92 94 98 100 100 100 100 100 99 99 95 96 98 98 99 98 98 91 69 71 96 96 94 84 86 84 80 80 77 90 80 80 80 87 93 79 65 50 41 40 43 45 45 46 47 50 57 60 61 62
38 76 67 66 70 96 99 100 100 100 99 99 98 88 95 94 91 91 93 99 93 78 97 92 92 90 80 88 82 71 79 81 89 85 82 76 77 86 89 66 48 45 45 45 43 43 47 49 51 56 58 62 64 65
42 44 48 61 78 93 98 98 99 99 98 99 95 94 89 90 88 91 98 97 83 78 80 99 84 96 91 90 84 82 86 88 85 88 82 80 85 88 75 51 49 47 41 43 47 50 52 54 58 62 67 70 70 70
35 39 47 64 87 98 98 98 98 97 98 99 99 100 99 99 100 95 99 94 75 56 63 77 85 85 76 74 84 96 92 83 82 71 62 73 82 81 67 46 44 46 47 51 54 57 60 63 66 70 73 73 72 71
30 38 50 64 88 97 97 98 98 98 96 98 98 100 99 100 100 100 97 81 66 69 92 88 56 56 63 76 69 75 72 78 71 71 74 63 54 50 51 50 52 54 54 57 58 61 64 69 73 76 76 75 75 75
31 38 43 68 88 95 97 97 97 98 98 97 99 98 99 100 99 99 99 99 99 100 92 79 83 83 78 75 72 70 78 71 60 61 75 73 68 59 57 57 54 55 54 58 63 72 75 77 79 80 81 82 84 85
44 45 55 62 83 88 97 96 98 98 98 98 98 98 98 98 99 99 100 99 98 98 98 95 98 94 88 82 84 76 72 67 59 56 59 59 62 57 54 52 54 57 64 68 72 75 80 84 86 88 89 88 88 77
45 52 58 69 75 80 96 96 97 97 96 95 97 95 96 96 98 99 96 98 98 98 100 94 83 79 79 79 73 68 64 56 58 58 57 52 49 50 54 61 69 67 69 76 81 85 88 91 92 90 90 81 63 54
54 55 60 72 83 90 85 94 97 96 96 93 93 93 92 95 97 96 93 91 98 100 93 85 74 71 69 63 58 57 55 50 46 46 47 46 50 59 64 67 73 77 80 82 88 91 91 92 92 88 71 57 56 55
56 73 68 81 76 84 90 89 92 91 94 94 94 94 94 97 95 94 93 94 96 96 98 88 79 73 58 57 57 54 51 47 41 43 60 59 54 62 72 78 82 84 87 88 90 92 92 92 83 64 57 57 54 45
83 90 91 89 89 84 86 91 92 94 93 94 94 95 97 94 93 94 90 98 95 96 96 97 84 67 68 65 64 64 62 62 60 49 63 71 72 70 69 73 81 89 90 94 92 90 89 73 60 58 57 51 41 36
72 84 92 97 94 86 77 74 76 82 94 94 93 93 94 94 93 88 100 95 95 96 96 96 91 68 63 67 70 69 67 64 60 57 62 68 72 74 80 81 83 83 88 90 91 77 63 59 59 55 48 40 38 40
76 84 88 87 89 94 89 82 84 89 83 90 94 94 94 92 91 100 96 96 96 96 96 96 96 95 94 94 86 74 70 68 66 68 72 74 79 84 85 86 86 90 88 76 66 62 62 58 52 44 40 42 45 45
90 92 90 98 95 94 94 88 86 94 98 94 85 91 91 98 96 96 96 95 96 96 96 96 96 96 94 81 74 74 73 73 70 71 76 79 87 90 90 85 83 75 68 64 64 61 55 48 44 44 48 49 47 46
95 95 92 97 97 90 96 96 100 98 90 87 91 93 96 96 96 96 96 96 95 96 96 96 96 96 85 77 78 82 84 83 81 79 78 80 82 84 83 76 71 71 68 65 61 54 48 47 50 52 51 51 51 52
99 97 97 94 98 99 98 99 98 96 95 90 86 90 96 96 95 95 95 95 95 95 95 96 95 90 82 82 81 81 81 80 78 77 77 80 83 82 77 76 74 74 70 63 56 51 50 53 55 54 54 57 57 48
100 96 94 100 99 99 100 100 98 97 96 93 93 92 93 92 94 94 90 92 92 92 93 90 88 86 84 83 83 81 80 82 83 85 85 86 86 84 83 83 79 73 66 58 54 55 57 58 58 60 60 49 42 42
97 96 98 97 98 99 99 98 98 96 95 98 100 100 100 98 96 94 91 90 90 92 93 94 94 93 92 91 90 89 89 92 93 95 97 96 94 90 87 83 80 72 63 60 60 61 62 64 63 50 39 38 36 40

GFSWCAN_850_rhum_018.txt.gz
RH
94 97 94 93 90 89 86 98 98 98 96 92 96 98 100 99 100 100 98 100 100 93 83 76 72 63 98 94 92 88 82 82 94 93 95 85 73 71 84 82 80 86 95 96 96 99 92 38 41 45 53 43 40 42
94 100 98 94 91 92 87 96 98 98 94 93 97 97 99 100 100 100 100 98 100 99 99 89 76 71 65 95 88 92 87 75 80 93 90 78 79 62 56 88 67 75 66 73 79 80 51 46 52 48 47 45 50 54
96 93 91 93 91 91 87 94 98 98 92 93 97 98 100 100 100 100 100 100 100 99 85 93 89 79 69 75 93 89 88 89 84 82 87 82 79 71 67 60 55 46 44 52 47 53 54 52 52 50 48 50 53 53
94 88 95 93 94 86 84 93 98 99 96 94 98 91 99 99 98 100 99 99 100 97 93 95 90 86 83 74 87 94 93 89 90 87 94 89 80 63 73 62 54 50 52 54 56 58 56 53 52 52 52 54 55 55
94 90 89 96 95 86 86 89 98 99 95 95 98 93 100 96 99 100 100 99 100 100 96 87 92 86 80 77 78 86 95 96 77 94 91 93 76 71 72 65 63 52 49 56 56 47 46 54 55 55 55 56 56 54
93 92 87 99 97 89 86 88 98 97 94 97 100 96 100 100 100 100 100 98 100 100 96 90 94 94 87 84 74 64 74 79 70 72 82 74 74 75 85 81 49 45 42 42 49 47 46 56 58 58 58 57 56 51
100 97 91 100 94 94 86 92 97 90 97 97 98 96 100 100 100 99 96 98 90 99 96 98 92 95 94 92 89 83 77 74 81 78 85 80 78 75 78 83 55 46 49 49 50 51 63 60 63 62 59 62 56 53
99 95 91 82 84 94 86 97 94 94 96 98 99 98 100 100 100 100 96 96 100 99 94 100 100 95 87 87 92 87 85 85 84 86 80 82 80 76 88 68 50 51 55 56 55 54 57 62 65 65 61 58 51 43
87 84 82 75 82 93 60 97 95 96 97 98 98 100 100 100 100 99 100 99 100 98 98 99 100 100 92 94 89 84 88 87 86 88 87 85 85 96 75 66 54 57 58 65 64 62 64 66 70 67 62 54 43 40
80 83 83 78 76 66 86 89 99 94 97 99 98 100 100 98 99 96 100 100 98 97 94 97 96 99 94 90 95 90 93 96 100 91 88 97 95 69 63 60 55 59 59 62 70 84 77 78 73 70 58 49 39 39
80 80 78 79 67 41 85 98 93 96 96 100 100 97 100 99 92 91 100 100 100 100 96 91 94 97 91 93 94 90 99 100 99 94 94 97 87 82 76 64 59 61 63 63 60 56 66 65 69 60 52 45 41 38
76 70 71 49 34 86 89 100 95 99 99 99 100 100 100 85 87 98 100 100 100 97 93 94 91 82 80 74 89 88 99 97 98 86 93 89 87 70 70 75 70 68 70 70 62 63 72 71 61 52 43 39 35 37
68 58 43 31 56 84 98 100 96 99 100 100 100 100 97 99 100 98 96 94 91 99 96 92 97 74 72 70 92 93 98 96 83 87 88 91 82 78 79 83 82 79 77 73 74 71 69 60 47 37 34 36 38 38
47 34 27 63 77 89 100 98 97 99 100 100 100 100 96 100 94 98 92 93 86 97 100 87 87 92 77 95 89 88 89 85 95 98 89 92 74 86 85 84 81 76 72 69 67 62 47 38 36 37 37 40 39 42
31 25 52 60 50 84 98 97 97 100 100 100 100 99 98 99 100 100 99 97 98 99 80 81 81 81 97 93 88 86 94 98 89 88 91 79 82 90 89 82 72 69 65 58 47 39 36 35 36 42 46 47 48 51
30 27 39 33 48 71 99 95 99 100 100 100 100 99 97 95 99 97 97 99 98 91 68 65 99 95 94 94 95 93 92 90 84 96 79 75 87 91 77 70 66 61 49 41 37 35 38 40 40 43 50 54 55 56
31 44 35 38 47 73 98 98 99 99 100 99 99 88 94 89 93 93 96 98 92 76 98 96 89 89 88 95 94 86 89 94 97 83 78 77 91 84 70 67 58 46 41 40 41 42 41 44 45 49 51 59 62 64
36 34 37 44 55 78 94 98 99 99 98 99 99 92 89 90 90 92 95 97 86 81 77 98 85 95 94 93 94 93 95 92 87 84 80 83 93 80 69 57 48 43 43 43 40 43 45 48 51 58 63 67 68 67
32 33 36 44 70 95 98 97 98 98 98 98 98 95 96 99 96 90 94 91 80 62 66 83 91 96 95 94 97 93 81 90 86 82 85 90 90 76 58 48 46 44 42 43 47 48 52 58 60 65 68 70 68 68
29 30 33 42 69 91 95 96 98 98 98 99 99 99 99 100 100 100 99 88 63 56 82 89 77 71 73 72 75 80 72 78 81 87 84 86 76 58 52 47 45 46 46 51 55 57 59 63 70 72 72 72 72 71
28 33 31 46 76 88 94 96 97 98 97 98 98 99 99 100 99 99 99 99 99 100 95 81 86 82 78 72 78 75 77 73 80 82 88 79 60 50 52 52 50 52 48 55 56 65 67 67 70 72 73 74 76 78
41 38 47 55 72 78 94 95 97 97 98 98 98 99 99 99 99 99 100 99 98 98 98 89 90 83 80 82 83 76 67 61 69 72 64 59 64 59 58 54 50 51 50 51 55 59 67 72 76 79 81 83 85 84
41 48 53 62 63 70 89 91 95 96 97 97 97 98 98 98 98 99 98 97 97 97 98 99 99 98 90 86 80 76 67 54 57 60 58 57 57 53 48 49 47 43 50 64 69 71 75 81 85 86 86 86 78 61
50 52 51 64 74 93 74 93 95 96 97 96 96 96 97 97 97 97 96 97 98 97 97 97 98 96 91 88 80 75 68 58 60 62 59 51 47 53 52 54 59 64 64 66 74 80 85 88 89 89 84 69 56 55
54 64 64 82 70 86 91 91 95 95 96 96 96 96 96 96 97 96 96 96 95 96 97 96 94 83 78 80 82 80 77 65 58 53 56 48 45 54 62 67 72 73 77 77 84 87 89 91 90 79 62 56 55 50
63 79 86 89 91 90 96 98 95 96 96 96 96 96 97 97 95 95 94 96 95 96 96 96 93 77 77 77 71 66 62 56 46 38 59 61 61 60 66 68 73 82 85 90 85 87 89 87 73 59 57 55 47 37
68 79 89 85 88 82 87 73 72 90 96 96 95 96 96 96 95 93 96 96 95 96 96 96 93 75 76 75 69 63 59 60 57 56 69 79 78 77 72 66 72 75 85 88 90 89 80 66 58 57 53 44 36 37
76 81 87 85 88 90 95 94 92 96 93 90 95 95 95 95 94 98 96 96 96 96 96 96 96 88 82 79 74 71 71 70 70 73 77 77 79 79 78 76 78 86 88 91 81 66 60 59 57 51 42 38 41 40
90 89 86 97 94 94 98 97 98 98 98 96 97 95 94 96 96 96 95 95 96 96 96 96 96 97 96 95 95 96 94 83 73 76 65 71 75 82 85 84 86 87 79 70 63 62 60 54 47 41 42 44 43 44
97 94 93 98 93 95 99 96 100 100 91 92 94 94 96 97 96 96 96 96 95 95 96 96 96 96 96 96 95 94 85 78 72 65 62 70 74 81 83 80 75 69 66 65 62 59 53 47 44 47 49 48 49 52
98 94 92 91 100 98 97 97 96 95 94 87 91 93 99 97 96 96 95 95 96 96 95 95 95 96 96 95 88 77 73 73 71 70 70 71 76 78 76 71 71 70 68 65 60 53 47 48 51 52 52 55 54 43
98 97 99 100 100 99 98 96 97 95 96 93 91 93 96 98 98 96 96 96 95 95 96 96 96 95 95 88 80 75 73 73 73 72 73 76 78 76 75 76 76 74 68 62 56 53 54 55 55 56 59 50 36 34
96 95 96 94 98 100 97 94 96 95 93 96 97 97 96 94 94 92 92 94 96 96 95 94 92 89 87 86 84 82 82 82 82 84 86 84 83 83 83 81 77 73 67 61 59 59 59 59 61 56 38 32 30 27

GFSWCAN_850_rhum_021.txt.gz
RH
86 98 94 94 90 79 91 91 88 96 98 97 90 90 97 97 100 100 98 100 99 95 83 83 76 66 90 95 96 94 95 93 97 98 94 90 90 92 90 76 83 86 93 95 93 98 90 41 38 38 51 48 58 62
85 99 98 97 94 81 94 88 87 99 95 97 88 88 99 99 100 100 100 99 100 99 95 95 88 81 74 80 86 97 96 88 88 93 94 90 85 75 89 92 77 84 76 88 78 72 54 51 50 49 47 50 61 57
97 100 98 89 85 92 92 90 88 98 99 98 92 90 98 99 100 100 98 99 100 100 95 93 85 80 80 68 82 94 94 97 91 86 88 84 87 78 75 72 76 64 57 68 62 56 54 53 50 50 48 48 54 54
98 100 98 91 81 96 88 91 88 94 100 97 94 93 98 96 100 100 98 99 100 96 99 94 96 94 84 75 91 95 99 95 94 88 92 89 89 70 81 64 64 59 56 59 61 62 56 54 50 53 54 54 56 56
95 99 99 96 86 96 98 92 89 91 96 91 91 96 99 100 100 100 99 98 100 97 98 94 93 91 88 84 83 98 100 97 95 93 91 91 81 73 76 67 67 57 55 61 63 52 47 53 54 55 54 56 55 51
98 91 100 99 85 78 82 88 91 93 97 87 90 96 100 100 100 100 100 98 99 100 98 100 95 92 91 86 88 90 100 93 90 90 87 81 76 75 81 79 57 47 42 40 48 48 47 53 57 55 54 56 54 49
95 86 87 92 83 83 78 90 69 91 94 94 94 95 99 99 100 99 94 90 81 94 100 98 97 91 90 90 89 86 86 87 85 81 88 87 80 74 88 90 60 49 48 47 46 48 65 60 64 58 56 58 55 55
82 83 80 80 79 76 81 53 68 94 98 86 83 89 97 100 100 100 99 97 100 99 100 100 100 97 90 93 90 90 90 86 86 89 82 89 83 83 89 73 57 54 55 56 54 49 53 59 62 61 58 58 55 52
79 81 85 77 76 84 46 31 88 94 83 84 87 99 100 100 100 99 96 100 100 100 99 99 100 100 95 93 87 87 92 95 90 93 92 89 90 95 74 70 58 59 56 63 60 57 64 63 65 65 61 55 44 48
74 85 81 76 81 47 29 85 86 97 87 98 98 100 98 100 99 96 100 99 100 100 94 97 95 97 94 91 96 92 97 99 98 92 88 95 96 75 69 65 54 56 52 59 68 81 72 71 68 66 56 45 39 41
51 58 63 56 43 29 64 93 96 98 91 100 100 99 100 100 95 96 100 100 100 100 99 93 91 97 91 93 93 92 99 99 97 89 94 98 97 85 73 69 61 57 57 58 54 58 63 60 65 59 52 47 42 39
46 40 34 29 31 75 83 99 99 99 99 99 99 100 100 94 96 99 92 100 100 98 99 98 97 88 95 85 91 91 96 95 96 89 94 94 87 70 70 72 66 63 64 63 61 62 68 69 63 54 48 45 39 36
30 24 22 31 54 61 85 98 96 99 98 100 100 100 100 99 99 98 99 99 99 100 95 92 97 76 88 91 95 93 93 97 85 93 92 88 83 75 80 80 80 78 74 67 73 72 73 64 55 47 41 38 37 39
22 22 20 26 34 47 97 100 99 99 99 100 100 99 99 99 96 91 83 92 80 89 98 80 90 89 77 92 89 86 92 87 98 100 88 89 77 82 85 84 83 82 75 76 78 74 63 55 45 39 36 39 38 43
22 24 23 21 28 41 88 100 98 98 99 99 100 99 99 98 99 100 96 99 98 95 80 79 82 78 98 89 89 90 98 100 88 84 87 77 81 87 86 84 80 78 77 74 68 59 48 41 40 46 49 48 45 48
26 25 28 24 25 40 71 92 99 99 99 99 100 99 99 96 98 98 99 100 99 87 66 63 97 92 94 93 97 91 87 87 78 91 77 80 91 85 78 76 74 72 68 62 50 42 40 42 42 49 55 54 54 53
29 30 28 25 22 41 81 96 99 99 99 99 99 98 97 95 97 95 97 98 91 72 89 94 81 72 93 99 97 91 87 84 98 82 73 85 90 83 76 72 69 64 53 45 43 45 44 45 46 48 49 58 56 58
34 27 26 28 26 42 87 97 98 99 98 98 99 99 90 92 94 94 94 97 86 80 78 84 85 97 94 90 94 91 100 98 82 76 79 92 83 73 70 67 58 47 45 46 44 44 44 46 47 48 50 59 61 63
38 29 27 28 34 80 99 96 97 98 98 99 99 98 97 100 99 95 93 93 81 65 67 84 92 96 94 94 97 99 90 85 90 88 92 89 74 69 64 55 48 48 47 45 45 46 49 50 47 54 58 64 61 65
32 25 24 28 48 86 88 89 96 98 98 98 99 99 99 99 100 100 99 84 66 50 72 84 82 81 79 78 72 74 72 76 85 96 90 79 71 64 55 50 49 47 46 49 48 48 53 58 64 66 66 68 66 67
31 28 26 37 66 80 89 92 92 98 97 98 98 99 99 99 100 100 99 77 86 100 95 82 81 76 71 65 72 75 75 75 84 88 93 82 68 56 52 50 47 47 43 49 51 59 58 56 65 69 70 72 73 75
42 37 40 50 64 72 89 86 96 97 98 98 97 98 99 99 99 99 100 98 98 98 98 90 88 89 82 86 85 76 73 79 84 86 88 73 65 55 53 51 50 49 48 48 47 52 61 66 72 75 76 77 81 82
42 45 47 52 52 58 67 82 90 90 97 96 96 97 97 98 98 99 97 97 97 97 98 98 90 86 81 81 78 74 72 72 84 88 76 64 57 56 57 56 49 41 48 59 58 60 66 76 81 80 82 83 82 72
50 49 46 56 67 84 68 81 84 92 95 95 96 96 96 97 96 97 96 98 98 99 97 97 97 97 95 84 77 76 78 80 84 72 65 61 64 67 60 53 50 46 43 53 67 70 75 81 84 86 84 78 63 55
51 56 63 79 72 82 95 94 94 95 96 96 96 96 96 96 97 96 96 96 95 96 97 98 97 97 97 96 96 93 86 85 91 73 74 61 52 56 58 59 59 58 61 60 73 78 84 87 87 84 72 59 55 52
54 69 67 94 92 87 96 100 98 98 97 96 96 96 97 96 95 95 94 96 96 96 96 96 96 96 96 97 97 97 97 88 76 61 65 57 48 36 39 49 62 75 82 79 74 81 85 87 81 69 58 56 50 42
64 73 87 84 85 85 88 81 78 95 98 97 96 95 96 95 95 92 96 96 95 96 95 96 96 96 96 96 96 95 95 85 62 53 51 61 66 63 59 58 68 73 83 89 86 83 80 77 64 58 55 49 39 34
73 81 78 87 89 93 95 97 99 100 99 87 93 95 95 94 93 96 95 96 95 95 95 96 96 96 96 96 97 96 94 83 65 69 72 75 74 74 79 78 80 83 87 89 86 78 66 59 57 54 46 37 36 37
91 91 84 98 99 96 100 98 100 100 97 98 99 95 93 96 96 96 96 95 95 95 96 96 96 96 96 96 96 92 83 79 72 72 68 78 82 86 85 86 87 87 85 75 64 61 60 57 51 43 39 40 39 38
96 97 95 100 93 94 94 96 99 99 92 94 94 94 95 94 95 96 96 96 96 96 96 96 96 96 95 96 96 96 96 96 97 94 82 72 76 87 95 91 84 74 68 63 62 60 55 50 45 42 42 42 42 44
100 97 92 95 100 98 97 96 97 98 95 91 96 93 95 94 95 95 95 96 96 95 96 96 96 96 96 96 96 95 94 94 82 74 69 72 80 83 78 73 68 66 65 63 59 54 50 45 44 45 45 45 48 45
98 96 95 100 100 100 99 97 97 95 96 93 94 99 96 96 96 96 96 95 96 95 96 96 96 95 96 96 96 94 83 67 68 69 70 72 74 72 70 70 69 68 66 63 58 53 49 48 48 49 51 52 39 30
97 96 97 97 100 100 100 96 98 97 95 95 96 98 98 97 94 95 95 95 96 95 96 96 96 96 96 96 90 78 73 74 77 80 78 75 73 74 75 75 73 70 66 62 58 56 55 55 56 55 44 29 28 28

GFSWCAN_850_rhum_024.txt.gz
RH
94 93 94 100 96 86 92 88 93 90 88 98 95 93 90 98 99 100 99 88 99 94 85 81 79 76 97 91 96 94 99 95 97 96 93 93 91 92 89 69 83 85 90 94 93 96 87 47 38 37 46 60 64 66
97 99 97 100 97 84 94 89 90 92 89 98 98 94 88 98 99 100 100 98 100 98 94 94 86 84 80 82 88 96 99 92 86 91 93 90 90 92 89 97 79 90 79 91 80 79 59 52 50 52 48 54 62 65
97 95 87 93 99 91 89 92 84 92 89 95 100 92 91 99 100 100 100 98 100 99 97 98 88 83 83 85 87 96 95 93 98 86 89 87 88 73 91 90 85 75 67 78 70 59 56 52 52 50 48 48 54 58
91 98 96 83 99 94 81 88 76 89 89 94 97 89 92 99 100 98 100 94 100 97 97 90 94 94 90 83 79 94 100 97 100 98 93 87 86 76 81 68 78 76 65 64 67 59 56 54 52 51 53 53 56 61
91 97 99 95 86 94 81 85 79 89 82 95 92 86 84 92 100 99 100 97 98 98 99 97 94 92 90 91 87 100 100 100 100 99 92 90 86 77 81 77 78 61 64 68 73 52 49 52 54 54 53 57 57 55
96 100 88 76 79 82 80 79 82 56 71 98 94 94 72 90 99 100 99 98 98 100 95 100 97 94 94 94 93 100 100 95 100 94 90 86 75 76 84 82 56 50 44 46 49 48 49 54 59 57 55 58 57 51
80 79 76 74 76 79 80 82 47 28 91 84 95 76 73 90 100 99 96 85 82 97 100 99 96 93 93 92 94 93 93 98 98 94 94 85 79 77 88 93 63 56 50 47 48 50 68 63 65 60 54 57 52 51
78 74 79 78 78 81 88 50 26 72 81 95 91 73 73 95 100 98 100 93 93 99 100 100 100 95 96 94 95 98 95 93 88 93 86 91 85 86 91 75 63 61 58 58 54 48 49 58 62 62 57 57 57 58
47 48 55 60 58 49 47 26 78 92 92 88 92 78 86 100 100 98 100 99 99 99 99 99 100 99 92 97 90 94 95 98 93 94 94 92 91 94 73 68 63 60 54 61 60 58 62 61 64 63 58 57 53 59
36 38 37 34 25 24 47 92 92 100 97 100 99 100 99 100 99 96 100 100 100 100 91 97 91 99 95 92 97 92 98 99 100 93 91 96 96 73 68 68 62 57 55 56 66 80 71 70 66 66 59 52 43 43
26 24 21 22 27 44 53 56 100 94 98 94 99 100 100 100 99 99 100 100 100 100 100 95 92 98 91 92 92 92 99 100 97 92 93 97 98 88 74 69 69 58 56 55 50 52 59 57 63 62 56 45 41 39
27 20 21 21 25 32 39 82 96 92 100 98 99 98 100 100 97 100 96 100 99 97 99 98 97 86 90 82 92 93 95 97 95 90 95 98 88 73 70 74 69 64 62 62 60 58 63 63 64 57 47 44 40 35
31 22 22 22 23 24 56 99 99 95 98 100 99 99 100 100 100 98 98 100 100 100 98 98 99 90 96 93 97 92 93 97 86 96 93 88 81 72 74 79 80 77 72 65 67 67 67 66 59 48 44 41 36 39
36 26 24 25 25 28 30 86 100 99 99 99 99 98 99 99 97 94 90 95 76 90 97 82 91 90 79 93 93 91 93 86 100 100 82 90 77 73 82 85 80 80 75 71 74 74 69 60 52 46 40 37 36 42
34 28 24 25 26 24 27 56 92 98 99 99 100 98 100 99 99 97 99 98 98 93 83 80 82 76 94 91 86 92 98 100 87 79 86 73 76 85 88 87 82 81 80 80 78 69 60 54 46 42 41 42 42 48
37 31 30 24 22 22 26 75 98 99 99 99 99 99 99 98 98 97 99 98 99 92 71 64 91 85 90 91 96 89 88 85 75 91 72 76 87 88 87 85 83 81 81 78 67 59 52 43 39 43 50 49 49 49
35 38 32 23 20 22 40 88 98 100 99 99 99 99 100 99 97 96 96 99 96 78 90 92 78 76 92 99 90 88 83 81 77 81 73 82 84 85 83 81 80 78 76 68 59 49 43 44 44 46 49 57 56 57
43 36 29 25 23 24 74 95 98 100 99 98 99 98 99 97 97 94 94 93 95 83 72 78 84 98 94 84 88 87 93 94 82 72 77 87 83 79 78 77 76 72 66 57 46 45 44 44 44 48 50 57 59 61
47 38 30 28 29 61 100 98 97 100 96 99 96 98 99 99 100 99 96 100 94 79 66 80 87 92 88 92 91 94 92 79 82 86 92 91 83 76 74 72 70 63 51 46 46 45 46 46 44 49 53 59 56 60
39 32 28 26 32 81 89 88 90 100 98 94 99 98 99 99 99 99 100 99 78 58 72 87 79 78 80 77 80 80 74 71 69 94 90 79 75 73 71 66 55 49 49 50 50 52 54 56 57 58 59 60 58 61
37 33 29 28 50 72 84 86 82 96 99 99 95 100 99 99 99 99 98 82 82 98 93 78 71 67 64 60 58 67 74 72 75 82 86 80 74 68 62 54 51 51 48 51 53 60 58 58 63 65 66 65 66 68
45 37 36 40 54 66 84 85 83 91 100 95 92 97 98 98 99 99 99 99 98 100 100 98 87 81 75 72 74 77 77 80 79 84 83 73 75 67 60 55 52 50 51 51 52 56 61 62 68 70 69 70 72 76
45 42 46 47 49 52 57 66 87 87 99 94 91 97 97 97 97 98 97 96 96 97 99 100 96 92 88 85 80 77 78 75 80 87 82 72 68 62 57 52 48 45 51 58 57 57 62 69 73 72 74 78 79 74
50 50 43 48 62 76 63 67 77 92 93 95 97 95 96 97 96 96 95 96 96 96 96 97 98 96 93 90 83 85 87 83 82 87 81 71 65 64 58 55 55 50 49 54 62 62 67 74 77 79 81 80 72 60
56 49 59 60 75 79 98 94 96 96 99 97 98 95 96 96 96 95 94 94 94 95 95 96 96 98 97 96 92 90 89 88 89 91 88 74 71 72 70 66 63 58 56 55 65 67 73 79 83 83 80 70 60 54
64 59 60 80 86 80 94 95 98 98 98 99 97 94 96 96 95 95 93 96 96 95 95 95 95 96 98 97 97 97 98 100 96 88 98 98 91 87 65 55 57 63 67 65 60 70 78 83 84 78 66 57 54 49
71 71 85 84 84 86 89 84 83 96 100 100 98 97 97 96 94 92 95 95 95 95 96 96 95 96 96 97 97 97 97 98 98 97 98 99 95 66 48 40 48 56 67 77 76 73 72 78 76 66 58 54 47 37
73 75 85 92 92 94 92 98 100 100 100 90 89 97 97 95 94 93 94 93 94 94 96 96 95 96 96 96 96 96 97 98 98 96 78 74 74 74 74 69 69 79 83 85 83 82 78 72 62 57 54 47 36 32
94 90 84 100 100 98 98 95 97 98 94 96 100 96 96 92 93 94 95 96 97 96 96 96 96 96 96 96 96 96 97 97 93 95 94 95 95 92 88 91 87 80 82 85 84 73 62 58 56 53 44 36 35 34
95 97 94 100 96 94 91 95 97 96 93 95 95 95 94 91 93 95 96 95 95 95 95 96 96 96 96 96 96 96 96 97 97 97 94 94 94 94 93 84 80 80 80 72 62 60 58 56 49 43 39 38 37 38
100 100 93 95 97 98 99 98 98 98 96 94 97 97 95 94 95 95 96 95 95 95 96 96 96 96 96 96 96 96 96 96 97 97 98 94 86 79 83 82 78 71 66 62 61 58 54 49 44 42 42 42 43 46
99 95 96 100 100 100 100 100 100 98 97 95 95 98 95 95 95 96 96 96 95 95 96 96 96 96 96 96 96 96 96 96 96 94 87 79 80 83 78 70 65 64 63 60 56 52 48 46 45 46 48 50 49 37
98 98 99 99 100 100 100 98 99 98 97 96 96 96 96 96 95 97 95 96 95 95 95 96 96 96 96 96 96 96 96 95 92 89 85 76 71 68 68 67 67 65 62 59 56 53 51 52 53 54 53 41 28 26

GFSWCAN_850_rhum_030.txt.gz
RH
99 98 100 99 99 100 98 82 84 72 81 81 89 88 98 98 98 100 100 93 100 89 88 83 80 84 94 90 96 92 98 98 98 95 97 94 93 83 84 65 85 87 95 90 86 96 76 57 51 48 52 57 62 63
97 96 100 96 87 93 83 76 86 76 77 82 88 87 99 99 98 99 98 99 100 95 96 84 83 82 85 87 89 97 95 98 86 90 96 91 93 94 87 94 81 90 80 79 84 84 60 59 57 58 60 63 68 72
89 89 88 78 82 78 80 68 77 73 76 85 63 87 98 98 97 98 98 100 92 97 90 88 80 85 86 92 95 96 96 91 99 99 90 88 92 90 98 96 85 78 78 84 78 62 64 58 56 57 60 68 74 70
96 74 71 70 66 73 74 74 75 75 85 67 30 75 93 96 97 92 100 100 100 96 98 87 90 93 95 96 99 100 95 100 95 100 97 90 88 76 88 81 87 80 77 77 79 70 62 55 57 57 61 70 72 72
94 42 46 40 39 72 74 74 82 77 38 27 65 80 84 86 88 88 92 99 90 100 99 97 92 95 97 96 98 100 98 100 98 99 99 96 88 82 89 85 90 75 76 78 76 60 54 55 60 59 58 64 69 65
68 28 22 25 20 22 65 55 70 73 80 94 94 93 76 69 80 98 90 92 100 95 93 100 98 96 96 96 99 96 98 100 100 98 97 92 86 76 90 92 70 59 55 57 60 53 54 61 65 62 60 66 68 65
40 28 22 21 21 18 46 48 91 94 89 95 98 97 85 64 86 99 100 100 96 100 100 99 95 96 98 95 96 100 100 100 100 100 99 95 83 81 87 92 61 62 59 53 53 56 68 65 65 63 59 66 67 66
36 31 27 22 24 20 37 45 91 91 100 100 99 92 69 68 72 88 94 97 97 98 97 100 99 96 97 99 99 100 100 100 99 100 94 95 88 87 94 78 68 62 59 60 60 55 53 57 63 64 62 62 61 59
36 35 33 27 25 25 25 28 85 95 93 90 97 86 74 80 92 97 100 100 100 99 100 100 100 94 96 99 94 96 97 99 94 97 95 96 93 96 78 68 66 65 59 62 61 58 61 62 68 67 60 56 49 52
34 37 35 33 28 29 25 25 82 96 82 89 90 99 100 100 100 100 100 99 99 98 96 99 87 97 95 95 97 94 97 99 100 94 93 99 98 74 66 61 60 59 57 59 64 78 74 74 68 65 57 49 42 43
29 36 36 34 30 27 25 22 61 93 80 81 92 99 99 100 100 97 93 100 100 100 100 95 88 98 90 94 92 93 99 100 97 92 96 88 97 89 76 69 68 62 55 57 53 50 58 56 60 58 54 47 44 44
29 36 34 32 30 26 23 19 40 76 100 98 98 96 99 99 99 99 100 100 100 94 99 98 93 85 90 86 91 94 96 97 94 92 97 96 91 76 77 80 77 66 60 60 57 55 59 61 59 54 50 48 46 45
31 35 33 31 28 29 22 16 19 75 97 99 100 99 100 99 99 92 99 100 100 98 100 98 99 90 92 89 95 92 86 93 87 97 97 93 79 71 74 78 78 72 68 64 60 62 62 64 62 54 52 49 45 45
30 31 32 30 32 28 22 16 17 86 99 98 99 98 98 99 99 100 99 98 96 100 100 88 94 94 91 96 96 100 93 87 98 100 85 89 64 72 74 76 81 80 75 68 65 67 68 67 64 58 50 45 40 37
29 30 31 33 34 26 20 15 33 100 99 100 99 96 99 99 100 100 100 99 97 99 97 81 84 75 95 96 84 95 98 99 94 84 87 59 61 75 81 85 84 81 78 73 72 72 72 67 60 54 47 42 36 35
32 33 35 36 30 24 19 18 97 98 98 99 100 98 99 99 98 98 93 90 93 99 91 75 91 91 86 93 98 99 95 93 80 91 60 63 73 79 83 89 88 82 77 74 75 74 69 61 52 46 47 41 39 38
34 44 44 34 27 23 22 72 98 99 95 98 98 98 99 99 99 99 100 92 95 100 98 94 89 81 90 98 98 89 86 83 67 59 66 69 79 83 88 89 87 82 80 78 76 72 64 56 48 43 46 48 47 51
38 47 42 34 28 22 48 100 98 99 94 97 98 94 96 95 100 99 98 100 100 100 92 86 81 100 91 88 88 86 72 59 68 72 72 78 84 89 90 87 86 83 80 78 74 67 57 51 44 41 41 53 56 60
48 51 43 36 32 26 47 92 98 97 97 99 98 99 100 100 86 88 94 98 100 100 100 98 90 93 90 92 92 63 63 71 73 78 82 86 87 87 88 87 86 84 81 76 69 60 54 46 39 40 44 54 50 56
54 50 40 38 28 31 64 88 88 99 97 97 100 100 99 100 88 95 98 98 100 100 100 99 89 79 84 79 83 85 78 73 75 85 89 88 88 88 86 84 85 84 80 72 63 53 47 46 46 43 44 49 46 53
49 43 41 36 32 46 66 79 80 89 99 99 100 99 95 95 99 99 99 100 100 100 99 98 97 91 86 75 70 69 64 74 76 73 71 84 86 85 84 84 83 81 72 65 56 54 48 42 45 49 48 50 51 52
58 51 48 39 39 58 72 88 81 75 92 99 98 96 100 99 98 97 97 99 96 96 96 96 96 96 89 80 80 79 78 71 78 79 75 77 82 85 84 82 82 75 66 57 49 44 44 43 46 49 53 55 55 55
59 54 48 44 47 49 56 64 89 93 99 98 92 94 97 98 96 90 96 96 96 96 95 95 95 96 96 95 95 87 87 79 81 82 76 81 80 80 80 81 78 67 57 54 48 44 45 50 54 55 56 57 60 64
61 52 53 44 52 52 54 69 77 89 94 95 100 99 92 97 93 96 96 96 94 95 95 95 95 95 97 97 98 98 92 89 90 87 86 85 85 83 80 78 75 64 52 49 51 50 50 55 57 58 58 59 64 69
63 54 58 54 73 74 81 91 100 96 99 99 100 99 95 97 99 99 98 92 86 94 94 95 95 96 96 96 96 97 98 95 96 93 91 88 85 84 86 78 72 63 55 47 52 52 54 55 59 60 61 66 71 68
72 53 70 71 74 70 84 77 97 95 100 100 99 92 90 98 99 96 96 89 87 88 94 95 94 90 93 96 95 96 97 98 98 100 96 91 87 80 80 89 84 68 60 51 44 50 53 57 59 64 70 79 70 60
81 73 67 70 76 80 91 90 86 95 100 100 99 99 99 97 98 91 92 78 82 84 89 96 96 96 94 94 96 96 96 96 97 98 97 98 93 91 97 96 71 58 57 58 54 50 46 54 64 76 85 70 61 55
76 72 86 93 93 88 86 98 100 98 95 92 97 100 100 92 89 78 75 80 83 85 88 93 95 95 95 95 95 95 96 97 96 96 97 98 97 97 98 98 89 92 98 69 59 60 60 63 83 83 70 61 55 48
90 83 75 100 100 100 95 84 86 74 80 81 93 96 93 81 76 75 78 82 86 87 89 92 93 95 95 94 95 95 96 96 96 96 96 95 97 98 98 98 99 98 74 67 72 83 96 91 77 69 60 54 48 42
95 90 90 100 96 90 81 86 93 93 90 86 85 86 84 79 75 76 80 85 88 90 94 95 95 95 96 96 95 95 96 96 96 96 95 96 96 96 97 98 93 75 76 94 96 95 89 77 66 59 54 48 40 34
98 99 91 92 95 92 93 94 95 94 93 93 93 96 87 84 81 80 83 86 91 93 94 97 97 95 96 95 95 95 95 95 96 96 97 97 96 96 96 95 89 95 97 96 95 87 74 64 58 53 45 40 36 36
100 97 98 100 100 100 100 99 98 97 99 99 93 99 96 93 92 88 87 88 92 96 95 96 96 96 96 96 95 95 96 96 96 96 97 97 96 97 97 97 97 97 96 92 76 66 59 55 50 45 41 39 38 40
98 98 99 98 100 100 99 98 100 98 100 99 97 98 96 96 92 87 88 89 94 95 95 95 95 95 96 96 96 95 96 97 97 97 97 97 97 97 96 96 96 92 77 63 59 56 51 48 45 43 43 44 45 45

GFSWCAN_850_rhum_033.txt.gz
RH
76 83 98 98 94 84 87 79 81 73 68 75 85 56 70 93 98 98 98 100 100 97 84 82 80 85 91 87 97 95 98 99 98 99 98 90 97 86 83 73 88 86 92 98 93 91 89 62 56 57 58 60 63 64
33 79 100 98 97 90 75 73 74 74 75 76 86 47 74 94 99 98 98 100 100 95 94 87 84 81 80 76 85 92 95 93 90 93 95 91 95 91 86 94 77 92 83 76 75 78 63 63 60 60 66 72 72 75
23 73 95 97 90 89 75 80 82 78 82 84 88 46 64 89 94 99 99 100 100 96 83 82 80 83 87 87 90 94 95 88 95 100 90 87 96 84 94 96 84 78 78 86 77 61 68 56 58 60 67 75 79 74
29 82 54 64 38 43 45 87 89 72 57 55 75 90 93 80 71 80 96 100 100 99 98 87 91 93 93 93 96 100 95 94 98 96 99 94 89 80 89 83 88 80 81 80 81 72 64 60 60 60 67 74 70 72
38 84 27 26 31 25 19 82 93 92 91 95 92 92 92 69 39 65 86 96 100 100 98 93 96 96 96 92 97 100 94 98 98 100 99 97 87 84 88 86 92 82 78 79 74 60 57 58 64 65 66 68 67 62
39 36 29 30 27 24 22 62 93 92 91 91 98 99 99 74 45 97 97 100 100 100 100 99 98 96 94 95 100 100 100 93 99 97 94 90 86 77 94 93 70 65 60 59 62 55 56 62 64 66 68 68 67 65
32 30 33 36 32 26 25 46 71 91 92 95 99 99 99 54 52 97 99 100 100 97 100 99 96 96 100 99 100 99 100 100 100 97 98 99 89 83 94 92 65 55 56 58 56 56 68 68 67 67 66 69 66 65
23 29 37 39 35 29 26 32 29 71 96 98 99 99 78 42 59 80 95 100 93 100 100 100 99 94 97 100 99 99 100 100 100 99 99 98 91 90 96 81 67 62 59 60 59 59 59 61 66 68 71 69 68 68
27 29 39 40 36 29 24 23 20 38 57 81 95 95 77 70 78 94 100 100 100 99 100 100 100 93 96 98 96 99 99 99 96 99 97 97 95 98 80 74 66 66 60 59 66 62 69 65 71 70 70 69 65 66
28 28 36 41 33 28 23 21 16 16 68 79 74 98 97 100 100 100 100 100 100 99 98 99 88 94 92 96 97 97 97 98 100 95 94 99 98 76 71 68 63 62 65 62 68 79 78 73 70 69 68 59 50 51
28 26 36 42 32 26 26 20 16 18 68 75 80 90 99 100 99 98 97 98 99 100 98 98 90 94 92 97 94 95 98 100 99 91 96 93 96 88 75 72 69 69 65 63 59 57 62 60 66 64 61 51 47 46
32 28 37 39 32 28 28 20 16 23 89 92 93 95 98 99 99 98 100 100 99 92 97 99 94 85 90 90 91 94 95 97 95 90 98 95 88 70 74 81 80 70 64 63 59 57 62 64 62 57 52 49 48 48
32 30 35 38 32 31 30 20 14 18 83 99 98 98 98 100 99 95 99 97 100 98 100 98 99 90 92 87 93 92 87 93 87 97 96 94 77 66 73 80 83 71 66 64 60 64 65 65 62 53 48 50 50 51
27 30 32 37 33 34 27 19 14 34 95 97 98 93 93 98 99 99 99 100 98 100 99 98 96 96 92 97 97 80 94 89 98 100 90 90 63 67 75 79 81 77 74 67 64 66 69 66 61 54 48 48 47 46
30 31 32 34 38 30 24 18 32 89 98 98 97 96 99 99 100 100 100 99 92 98 99 87 86 80 95 96 88 94 97 97 98 89 88 61 58 72 77 79 83 81 75 68 65 66 70 65 60 58 54 49 42 35
37 32 33 39 35 27 21 21 95 99 98 97 94 98 96 93 97 91 95 95 93 100 100 90 94 94 88 95 94 98 99 96 82 91 62 62 66 76 78 84 87 84 78 73 73 72 71 66 61 55 54 50 38 36
44 40 43 43 34 25 22 65 98 95 91 96 98 100 100 99 99 99 100 90 98 99 100 99 98 84 91 100 100 93 89 86 68 53 56 63 74 78 83 87 88 85 81 78 77 77 72 67 59 50 47 46 42 42
53 42 42 42 32 25 35 98 98 98 90 93 98 99 100 99 98 100 97 98 99 100 100 99 88 98 94 92 90 89 69 61 56 64 67 70 78 83 89 87 86 84 81 81 79 76 70 61 50 44 40 44 48 53
46 46 50 45 33 27 30 74 97 97 94 97 98 97 98 99 99 94 100 99 100 100 99 99 98 95 92 93 91 70 81 78 75 74 76 77 82 86 88 90 87 86 83 82 80 73 62 52 43 39 39 45 48 56
54 51 49 42 35 24 42 80 85 99 94 99 99 98 99 100 91 98 98 98 100 99 99 99 98 96 98 96 95 93 85 85 85 84 81 82 86 87 90 89 87 86 85 84 78 67 59 52 46 41 39 46 44 52
60 49 46 44 35 29 52 76 86 94 99 98 98 100 98 99 99 88 87 100 100 99 99 100 100 97 97 97 90 96 88 86 80 88 78 76 84 89 89 89 89 88 84 80 72 67 57 48 46 49 49 48 47 51
64 55 52 44 40 52 69 89 91 83 86 98 100 100 100 98 99 99 95 100 97 96 96 95 95 95 94 97 97 95 88 89 84 90 85 76 79 85 91 88 89 88 84 76 66 58 53 47 49 49 52 52 55 53
68 56 52 46 47 49 60 71 84 96 99 98 93 95 98 100 97 91 97 97 94 89 87 90 92 95 95 95 97 97 97 99 97 99 88 74 79 81 86 87 88 86 81 73 63 54 51 54 56 53 53 53 54 54
66 61 56 47 49 47 57 72 80 91 97 99 100 100 89 95 95 99 98 95 81 86 86 88 90 87 93 96 96 96 97 97 98 98 97 82 84 88 87 85 87 85 76 66 61 72 53 52 54 54 53 52 54 58
63 58 57 56 71 72 73 86 99 95 95 100 100 100 96 99 100 100 100 85 77 74 70 73 82 92 94 92 95 95 96 96 96 97 98 94 91 92 91 88 87 84 75 62 62 54 51 51 54 54 53 55 59 66
73 58 68 68 76 65 77 75 97 96 99 100 100 94 93 100 100 99 94 78 78 69 74 78 83 90 86 96 94 94 95 96 96 96 97 98 97 91 87 87 89 90 93 70 55 50 50 53 54 55 57 63 67 78
82 76 60 60 61 68 88 88 85 94 100 100 100 99 99 99 100 89 78 76 70 73 77 81 85 91 94 90 95 95 95 96 96 96 96 97 97 98 94 89 87 88 94 87 53 59 45 51 56 59 63 71 90 72
76 71 82 91 93 83 86 98 100 96 92 86 95 96 97 93 87 66 65 68 73 75 77 82 86 91 93 94 95 95 95 96 96 96 96 96 97 97 97 97 97 98 98 72 95 69 53 52 54 61 72 89 70 55
88 78 74 100 100 100 87 80 82 60 69 79 90 94 91 72 62 58 62 71 75 78 79 81 82 92 92 94 95 96 95 95 95 96 96 96 96 96 97 97 97 98 98 97 98 80 59 60 68 92 96 68 56 50
94 80 85 98 93 91 74 76 82 84 85 81 80 77 72 60 53 57 65 73 78 81 86 89 91 91 92 97 95 95 95 95 95 95 95 95 95 96 96 97 97 97 98 98 85 76 73 90 97 92 63 56 50 44
96 91 89 88 92 89 86 88 87 90 90 87 86 90 84 75 62 53 63 74 80 84 86 88 91 95 97 98 97 95 95 96 96 95 95 96 96 96 96 97 98 97 97 94 76 85 96 97 94 64 55 49 42 35
100 99 96 100 99 99 98 96 95 95 96 95 90 96 92 92 82 70 72 79 81 85 91 94 93 93 97 97 98 96 95 95 96 95 96 96 96 96 96 97 96 96 94 94 97 97 97 89 60 54 48 41 36 37
99 99 100 96 99 100 99 96 100 98 100 99 97 100 96 94 90 73 77 81 82 88 92 93 94 97 97 96 96 96 96 96 96 96 96 96 96 96 96 96 97 97 97 96 96 90 65 57 51 44 40 39 40 43

GFSWCAN_850_rhum_036.txt.gz
RH
30 18 83 100 95 64 70 88 90 76 73 79 86 62 24 71 95 94 99 100 100 99 90 83 79 87 88 84 94 96 94 98 99 99 99 72 72 67 71 60 68 73 82 97 98 90 82 54 49 56 53 60 61 64
19 30 96 95 78 25 37 39 91 77 80 74 69 50 28 49 95 85 98 100 100 99 96 87 83 81 78 75 85 94 91 91 90 97 89 72 80 72 66 67 66 72 59 64 61 54 49 59 57 62 70 69 71 74
16 49 97 83 29 20 23 23 83 92 90 86 89 90 94 82 76 82 85 99 92 95 86 84 79 82 82 83 81 90 94 90 92 100 93 70 86 71 73 68 69 63 62 65 65 50 53 54 63 66 69 79 84 78
15 69 96 40 26 21 23 28 92 94 89 87 88 92 93 88 77 43 74 95 99 99 96 83 87 87 84 90 91 96 92 94 95 94 93 96 70 68 70 66 67 56 66 65 64 52 50 61 67 70 69 70 74 70
18 82 90 39 27 25 24 36 94 93 88 92 100 98 98 99 64 34 67 89 99 99 98 92 87 88 93 94 98 99 100 100 99 97 98 78 79 79 70 74 72 61 56 60 54 51 53 54 68 69 70 68 71 69
19 81 34 49 30 28 27 38 95 94 89 95 96 99 99 99 82 94 100 100 100 100 100 94 94 95 93 96 100 100 93 100 95 94 94 80 75 75 83 75 56 61 62 58 50 56 61 66 66 68 70 68 67 71
22 45 26 35 28 27 28 34 65 79 92 98 100 99 99 100 94 99 100 100 100 97 100 98 95 95 98 100 100 99 99 99 96 92 95 94 93 85 85 74 50 58 60 61 59 59 67 68 69 69 69 70 70 70
18 19 24 29 26 24 26 28 25 23 74 99 90 99 93 98 86 87 92 100 96 91 100 100 98 91 98 99 97 96 100 100 100 99 99 97 92 94 97 68 65 65 63 59 60 61 59 61 66 71 70 69 70 70
18 19 26 28 29 24 26 25 22 18 55 77 89 97 94 74 81 89 98 100 98 100 99 99 100 95 98 97 96 99 98 99 98 99 97 98 96 95 70 65 66 66 67 65 68 66 63 65 68 68 67 66 65 68
18 23 25 28 30 22 23 27 18 16 68 74 75 99 100 99 99 98 100 99 96 100 97 100 85 83 90 96 95 95 97 98 100 97 96 100 95 76 73 76 70 64 66 66 70 82 72 75 69 76 73 71 68 60
18 24 26 28 29 22 22 28 19 15 65 67 74 85 100 100 100 100 98 99 98 100 96 95 97 81 91 92 88 94 97 99 100 89 89 91 84 74 72 71 70 68 65 65 62 59 65 69 63 72 73 70 61 55
23 22 26 27 26 26 24 26 20 14 71 81 83 98 99 98 98 98 100 99 99 92 96 95 94 90 91 93 88 95 98 95 97 83 94 94 76 68 69 77 80 75 66 64 62 58 60 69 62 64 68 59 53 48
27 24 27 27 26 27 27 24 18 13 79 89 92 98 97 99 100 99 95 100 99 97 100 99 99 94 92 88 91 90 99 92 83 96 90 80 71 64 67 79 86 79 71 66 60 61 66 67 65 62 57 51 46 46
24 28 26 24 29 29 28 23 16 27 97 98 95 93 92 97 96 97 98 100 97 99 100 100 98 96 93 97 92 99 87 87 96 98 88 61 61 59 74 79 87 79 76 70 64 66 68 68 66 60 51 46 45 45
27 32 27 24 31 32 25 22 23 80 98 97 95 97 93 98 99 100 98 98 93 94 100 96 90 85 97 98 86 93 96 94 88 87 74 64 57 65 76 78 84 82 76 72 71 71 71 68 62 57 51 48 47 46
35 34 24 27 36 32 24 22 70 98 98 95 94 98 97 97 94 90 98 99 99 99 100 100 98 97 95 94 96 92 94 95 81 93 68 60 62 72 76 76 81 85 79 74 74 76 74 69 60 54 54 53 53 45
67 41 33 34 37 30 25 32 98 95 89 93 89 98 98 98 98 97 99 100 98 100 100 100 100 98 92 97 99 93 92 87 82 61 62 63 68 73 76 80 84 85 82 79 77 80 76 68 60 56 58 61 53 49
71 57 44 40 38 29 35 78 99 98 86 88 97 96 98 100 100 100 100 99 100 100 99 100 99 98 95 96 86 81 83 88 76 76 74 76 77 79 82 84 86 86 84 81 81 80 76 69 65 61 55 50 48 49
77 57 44 45 39 34 30 71 94 98 94 96 98 98 98 99 100 100 100 100 99 99 99 99 98 95 90 88 94 100 100 100 100 89 78 79 81 84 88 88 88 87 85 84 84 82 78 71 61 55 47 43 45 52
92 57 52 49 39 31 36 76 81 99 93 97 99 100 99 99 100 100 98 90 97 99 100 99 93 95 97 99 98 99 100 100 92 95 80 76 80 85 92 93 90 89 88 88 88 83 77 68 57 48 42 41 43 51
84 58 53 45 41 35 44 76 92 100 100 98 98 100 100 100 100 98 90 84 99 97 97 98 98 95 91 90 93 98 98 99 96 93 97 91 88 89 92 95 95 93 90 89 86 81 71 58 50 65 45 46 48 51
86 68 56 50 42 44 70 90 94 90 84 94 99 100 100 98 98 93 99 100 100 96 92 88 84 84 82 81 87 94 97 97 98 96 87 87 96 91 91 92 93 93 92 89 85 75 64 54 67 48 50 52 54 56
86 68 55 49 48 51 63 85 81 98 100 99 97 97 97 100 99 95 97 97 88 84 78 71 69 73 74 74 84 92 97 97 95 97 97 91 94 98 95 92 92 91 92 91 84 73 61 54 50 52 58 54 56 58
70 58 60 51 50 54 61 75 86 96 100 99 100 98 85 93 94 99 96 96 81 75 67 63 64 62 61 68 77 88 94 97 94 92 98 98 95 93 99 94 91 92 93 88 84 74 61 56 56 57 56 55 56 51
65 65 58 62 65 70 77 84 94 91 91 100 100 98 91 99 100 100 98 84 73 72 63 64 67 71 74 69 73 81 88 97 96 93 90 97 97 97 98 100 95 93 91 90 96 78 66 62 76 58 54 53 50 51
77 62 65 67 77 68 72 77 89 90 94 100 98 94 96 97 100 99 88 71 68 67 63 66 70 70 69 74 80 81 86 93 96 94 92 96 97 97 97 98 98 96 95 93 95 78 72 96 60 57 56 54 52 55
86 81 60 56 52 58 79 82 79 84 100 89 94 96 94 98 99 79 64 60 58 55 63 69 71 75 75 75 78 83 88 93 97 93 95 96 96 96 96 97 97 92 96 94 97 95 97 72 58 56 54 54 57 58
78 68 76 81 85 76 82 91 92 86 77 78 87 97 87 85 78 56 51 42 46 55 64 71 74 79 82 80 84 86 85 90 96 95 94 95 96 96 96 96 96 97 98 97 97 98 93 54 51 52 52 56 64 81
85 77 69 100 96 93 81 75 75 55 59 74 85 82 81 61 48 46 43 43 46 56 68 72 73 81 84 88 89 89 92 95 100 96 95 95 96 96 96 96 96 96 97 98 98 98 76 79 53 52 58 66 89 75
93 76 79 95 88 86 68 68 73 71 75 77 75 71 64 51 41 40 43 46 52 63 73 77 80 85 85 88 85 82 89 96 99 98 96 96 95 96 96 96 96 96 96 97 97 97 98 89 74 66 75 97 94 54
93 82 84 85 88 84 80 82 84 83 85 84 82 84 74 63 53 45 42 45 57 71 75 79 86 95 93 92 94 93 84 92 97 97 96 95 96 95 95 96 96 96 96 97 97 96 95 94 69 79 96 94 56 45
100 92 91 98 97 95 95 92 91 92 93 91 84 82 81 81 77 55 56 62 70 75 81 89 92 90 93 93 94 95 94 92 93 95 96 95 96 96 96 96 96 96 96 96 97 97 89 83 95 96 94 56 44 37
98 99 100 96 99 100 99 93 100 96 100 97 97 99 95 91 85 64 64 70 76 80 87 91 91 90 91 93 93 95 96 95 95 96 95 96 96 96 96 96 96 96 96 97 97 96 96 97 96 94 60 44 37 36

GFSWCAN_850_rhum_039.txt.gz
RH
44 76 83 99 100 60 24 70 66 23 48 56 48 34 28 53 82 80 95 99 100 99 95 86 82 71 76 71 80 92 94 97 97 99 96 66 53 49 53 49 61 71 84 98 99 100 87 45 44 57 52 54 54 67
54 86 85 100 99 42 27 76 62 32 67 92 86 84 92 62 49 60 92 99 100 99 99 88 82 81 81 79 82 90 87 86 84 95 94 72 62 57 50 58 53 65 50 84 76 62 38 43 49 53 62 61 64 68
20 81 67 100 98 41 50 84 64 56 91 94 92 90 95 85 73 75 79 98 96 100 93 84 82 81 82 82 80 88 95 90 92 93 92 64 74 61 60 53 52 50 47 58 58 46 42 44 49 63 69 71 75 78
17 41 79 94 96 48 83 95 61 68 91 93 89 99 98 94 74 72 85 89 93 100 98 82 80 84 81 83 87 85 91 92 92 98 94 94 69 57 60 61 59 49 54 51 53 44 43 53 63 67 72 71 71 71
20 26 87 99 70 48 89 96 64 67 89 96 92 99 98 99 98 46 50 79 91 96 97 91 86 83 88 92 97 98 100 99 99 98 97 81 77 67 56 65 61 47 49 47 47 49 49 53 66 70 72 71 72 73
21 21 93 94 35 54 96 70 42 69 94 94 96 94 97 98 96 98 100 100 100 100 100 89 88 91 91 90 92 99 100 95 93 91 88 79 74 69 69 63 45 43 45 48 43 57 60 64 64 66 70 72 72 74
22 24 90 83 29 35 64 36 29 35 93 99 98 97 99 96 90 99 100 99 100 100 100 97 83 92 92 97 99 100 100 96 98 90 86 84 92 77 79 72 43 43 51 55 58 62 62 68 68 71 68 72 72 71
22 29 39 42 26 37 40 26 24 22 46 81 88 99 99 76 78 95 99 100 100 100 100 100 92 83 94 95 92 98 100 99 98 95 98 94 88 95 98 65 59 53 55 59 59 61 62 64 68 69 67 70 76 78
24 22 43 39 27 39 32 23 21 17 70 79 86 99 77 74 88 93 97 100 99 100 99 97 99 94 93 90 96 100 100 98 97 98 97 98 95 94 64 57 56 59 64 63 68 74 70 67 71 72 70 70 68 70
23 21 65 30 36 36 27 22 17 16 66 73 84 96 95 100 97 98 100 100 97 94 99 98 90 75 89 84 87 90 98 99 100 98 98 100 96 72 67 67 74 71 69 69 75 83 81 79 77 74 72 68 69 70
22 40 45 35 45 35 27 21 15 14 60 65 72 89 99 98 99 99 98 98 99 100 88 93 91 81 90 84 82 92 94 98 100 90 94 91 79 64 73 68 74 73 72 69 65 62 62 66 74 72 70 69 66 64
23 49 24 30 40 28 26 21 15 16 62 68 86 97 98 98 99 99 100 100 98 95 95 95 92 92 91 92 92 90 99 94 99 78 89 91 69 67 64 70 78 80 80 72 67 62 61 70 65 65 64 66 61 58
25 36 28 43 37 28 27 20 14 18 71 73 92 94 97 98 100 100 97 100 100 99 99 99 99 98 91 92 91 93 100 95 78 92 87 75 69 58 67 76 85 83 80 75 68 63 64 71 70 65 67 65 55 52
28 30 30 39 35 32 35 21 14 26 84 92 95 96 98 98 92 97 94 99 99 99 100 100 99 97 95 97 92 99 82 82 94 96 92 58 65 58 67 77 87 84 77 72 69 68 70 72 72 71 69 59 48 47
64 28 34 32 33 32 36 25 15 47 100 96 94 94 90 97 98 99 99 99 98 96 100 99 96 89 100 99 88 94 92 87 82 84 84 77 64 66 77 79 83 86 78 72 69 72 78 78 74 73 66 54 48 45
70 37 31 29 36 36 36 33 31 87 98 90 93 94 94 96 99 100 98 99 99 98 100 100 100 99 99 97 92 86 86 92 91 97 85 78 74 81 84 84 84 86 82 76 75 76 77 78 74 68 60 53 48 45
79 58 34 35 40 44 33 44 88 93 86 88 86 94 92 97 96 93 98 98 99 99 100 100 100 92 95 96 98 85 92 94 94 96 92 85 79 79 83 88 88 87 87 82 79 80 81 77 72 64 56 54 50 47
88 65 57 51 45 41 37 62 94 95 85 92 92 94 99 99 99 94 96 99 98 99 99 100 99 99 95 98 90 89 92 98 93 92 85 81 80 80 80 88 92 92 90 87 84 81 80 77 70 63 55 52 51 50
86 82 68 55 51 40 36 65 83 94 91 93 92 95 98 98 99 100 100 100 98 97 99 98 100 94 87 90 93 98 100 100 100 98 86 80 80 81 84 85 91 94 93 90 88 86 84 79 69 61 56 55 49 51
94 92 80 60 51 40 38 66 65 100 89 97 100 100 100 99 100 100 98 97 92 97 98 98 85 87 87 97 96 97 99 100 100 100 93 84 81 68 77 89 92 94 94 94 94 92 86 81 73 64 59 54 48 55
99 90 76 65 47 42 46 74 87 100 100 94 100 100 100 100 100 99 98 99 99 93 90 92 87 90 88 84 81 81 85 100 100 100 99 97 92 93 75 80 93 96 97 95 94 93 89 81 72 68 61 51 64 43
95 76 60 54 46 42 68 77 96 94 94 97 98 100 100 93 94 92 96 99 97 89 92 87 82 74 69 62 59 63 68 80 92 100 100 100 100 100 93 86 84 96 100 98 94 90 87 82 73 65 55 71 53 46
96 79 66 52 48 52 69 87 94 98 91 94 98 92 94 99 100 99 97 90 89 80 77 73 58 52 51 50 50 54 66 85 97 100 100 96 96 98 100 94 91 85 97 100 99 94 88 80 70 60 64 91 59 56
97 89 64 56 54 67 63 86 88 96 97 88 89 83 85 90 91 98 94 88 91 76 66 55 49 46 46 49 52 56 60 71 79 87 95 96 94 97 99 99 96 89 87 100 100 97 94 81 66 62 98 56 59 56
94 95 86 75 64 71 77 84 87 85 86 88 88 78 86 96 93 95 91 81 80 70 61 54 51 56 59 55 54 59 64 70 78 88 82 89 90 96 94 98 97 98 84 98 100 100 98 94 69 95 71 61 58 57
95 90 74 71 76 72 66 80 88 85 79 91 84 88 97 89 96 90 78 77 65 59 54 47 50 57 57 60 63 62 68 76 83 82 78 86 92 100 98 96 96 96 96 94 100 99 98 98 94 78 69 84 59 55
95 90 67 55 54 54 65 70 66 70 85 76 80 92 89 95 88 69 57 57 49 37 35 39 48 58 61 61 64 69 74 78 83 85 85 86 87 91 99 96 95 95 96 97 97 97 97 97 96 92 97 68 56 50
83 68 77 71 73 64 77 74 80 80 65 66 78 94 90 78 69 48 52 43 33 35 37 40 46 56 62 64 70 74 76 81 83 85 86 85 84 85 95 96 96 96 96 97 97 96 96 97 97 97 93 58 53 51
86 76 64 90 88 81 75 72 67 52 53 67 81 76 73 48 42 37 35 36 35 36 38 46 51 60 67 71 75 80 85 89 92 94 94 90 85 88 95 96 96 96 96 96 96 97 97 97 98 98 80 55 52 58
95 73 77 86 85 81 70 62 68 59 62 68 67 64 56 42 33 33 34 35 36 40 45 50 60 68 72 78 80 78 82 88 92 95 99 96 93 97 96 96 96 96 96 96 96 96 97 97 97 93 70 56 63 61
90 79 82 78 83 81 71 70 73 74 75 75 73 75 70 57 42 35 34 33 37 43 50 60 67 76 86 88 92 92 84 83 92 95 100 98 92 92 95 96 96 96 96 96 96 96 96 96 97 93 85 88 78 92
96 91 85 90 92 88 86 83 82 82 86 84 81 78 76 72 67 48 44 44 48 52 59 68 76 82 88 89 91 96 100 97 96 94 93 94 93 94 95 96 96 96 96 96 96 96 96 96 96 96 96 90 96 95
98 95 94 92 94 97 94 87 93 91 94 94 94 94 90 86 83 56 52 52 53 60 69 78 82 82 85 89 94 97 99 98 99 98 96 96 97 96 96 95 96 95 95 96 96 96 96 96 96 96 96 96 95 62

GFSWCAN_850_rhum_042.txt.gz
RH
38 63 82 84 95 99 99 97 86 90 92 88 92 89 90 92 53 58 94 99 99 99 87 78 77 70 64 68 80 95 93 95 92 97 96 86 63 59 57 68 80 87 97 98 86 95 93 46 50 66 66 60 60 69
47 74 52 86 94 98 99 98 94 94 96 92 92 92 92 96 78 60 99 97 100 100 98 89 82 78 78 77 79 88 84 84 84 93 95 89 83 62 65 62 53 70 62 82 79 77 52 44 50 59 61 66 69 68
38 46 24 88 95 98 100 100 98 95 95 89 97 92 100 97 95 84 85 98 96 100 91 82 89 77 80 79 76 85 93 86 87 86 90 85 83 70 73 66 59 56 52 67 68 55 50 52 55 63 63 70 72 75
34 20 42 76 95 100 100 100 99 93 95 91 89 99 96 99 97 77 97 94 92 100 99 88 80 80 78 81 82 83 82 86 88 92 94 92 92 70 77 71 74 62 59 64 63 55 51 57 59 65 66 66 69 71
28 20 47 79 98 99 97 100 100 94 92 94 91 96 95 99 100 88 52 77 86 93 98 95 91 82 83 86 89 92 94 98 100 100 98 86 79 80 75 76 80 56 63 65 62 52 52 60 62 66 65 67 69 72
24 30 60 49 98 97 82 89 94 88 90 94 97 95 93 98 98 100 100 100 95 98 100 98 90 87 89 90 94 97 100 99 100 99 90 80 72 76 89 80 52 43 46 44 52 54 56 60 62 64 63 67 70 72
27 38 41 40 96 97 38 73 38 81 81 97 90 94 98 98 93 99 100 99 99 100 100 98 93 93 92 96 97 97 100 97 97 91 91 82 82 80 89 87 51 48 50 51 55 57 62 62 66 65 64 68 70 72
30 39 29 27 96 62 46 32 28 34 34 76 93 98 98 98 90 99 100 99 100 100 100 100 98 88 93 95 95 98 100 100 94 94 89 96 91 91 98 81 66 61 60 56 58 58 60 61 66 67 67 68 69 76
32 32 26 24 99 34 39 26 22 24 37 80 96 97 98 98 100 97 100 100 98 100 100 98 100 99 89 89 95 99 100 99 95 98 97 97 93 98 80 66 66 65 63 64 63 62 67 66 66 68 69 76 74 71
29 31 25 34 97 39 31 28 21 20 52 76 93 98 96 100 100 100 100 100 100 99 100 98 86 90 80 77 88 94 97 99 100 98 98 99 98 72 70 70 71 73 71 66 70 76 78 77 72 69 71 71 69 71
32 29 27 56 57 35 28 29 21 20 63 71 82 93 99 95 98 100 100 100 99 100 95 93 84 92 88 89 92 90 97 100 100 95 96 99 94 77 67 61 64 69 75 78 73 67 65 67 68 69 70 68 69 69
35 27 27 60 49 32 29 27 21 27 65 70 90 98 98 97 97 100 99 99 100 100 99 98 97 93 92 88 95 93 100 98 99 82 93 96 81 62 56 73 80 85 84 84 79 71 65 68 71 69 66 67 67 67
50 33 30 86 60 34 32 28 22 33 77 82 94 98 93 97 100 100 99 100 100 99 99 98 100 96 90 90 94 97 100 98 81 96 91 93 77 68 70 84 88 89 86 82 76 69 68 74 76 70 67 66 63 62
88 89 50 55 52 36 34 27 23 38 81 99 99 98 96 99 97 93 98 100 100 100 99 99 100 98 93 99 97 95 92 87 94 89 93 92 82 80 86 88 89 92 84 78 74 71 72 76 76 72 69 65 60 57
95 92 84 41 49 43 40 29 28 53 91 97 99 96 95 97 99 97 94 99 99 96 100 100 100 92 100 99 95 98 91 82 77 95 100 93 83 83 85 86 90 91 89 84 79 77 76 76 77 75 72 68 59 54
92 93 91 43 46 46 42 34 32 77 92 94 91 91 93 98 100 100 99 100 100 98 99 100 100 100 99 94 94 82 82 86 98 99 95 84 82 81 84 87 91 91 92 88 84 83 82 81 78 75 72 66 57 52
96 98 93 58 51 48 45 39 56 96 89 87 81 86 86 91 96 96 93 94 97 98 100 100 96 94 99 95 89 79 84 99 100 95 90 83 83 83 82 83 91 92 89 91 89 86 85 83 79 75 69 63 56 51
98 98 93 73 64 48 42 55 81 96 83 84 86 86 93 91 91 92 93 98 95 99 99 99 99 99 95 98 95 99 98 100 95 93 89 85 84 78 74 78 82 90 93 91 91 89 86 82 78 73 67 60 54 52
98 99 92 74 59 47 38 60 78 94 86 87 89 92 93 93 97 95 98 100 98 94 94 99 99 98 94 98 96 96 95 100 100 96 81 80 89 86 83 77 80 87 91 93 92 92 89 86 80 74 67 60 55 53
98 99 95 85 64 42 37 56 62 99 93 96 94 93 95 96 97 99 99 96 92 84 98 99 94 85 85 91 91 87 83 83 86 94 87 84 77 79 81 90 83 85 93 94 96 94 92 89 84 78 70 61 56 53
99 99 98 83 61 46 41 62 82 99 98 95 93 98 96 98 98 99 94 97 97 94 98 77 89 86 83 82 75 68 65 65 67 79 83 87 83 92 94 93 91 88 90 96 97 98 96 91 86 80 72 65 61 53
99 98 91 71 51 43 48 65 92 92 93 98 99 100 97 94 95 93 92 93 93 83 82 83 81 81 73 61 50 47 47 48 52 57 81 99 100 100 97 100 100 97 95 95 99 95 97 95 90 83 76 69 63 59
98 97 83 56 48 45 68 67 95 95 96 95 96 99 97 96 94 100 95 85 82 91 86 80 74 57 43 33 32 36 43 46 48 53 61 71 77 83 91 96 100 100 99 93 99 100 98 97 93 85 79 74 65 60
97 95 94 95 94 82 59 90 89 95 95 92 97 93 95 95 97 98 93 85 92 79 76 72 47 27 25 25 26 35 49 53 54 55 61 71 69 69 79 81 85 92 95 98 100 100 100 98 97 90 82 73 70 92
96 96 96 96 80 73 87 94 91 90 91 92 94 91 94 87 99 100 98 83 86 77 70 49 40 29 30 28 31 44 52 58 58 57 59 70 73 71 71 77 82 88 96 100 98 100 100 100 97 96 96 94 84 98
96 93 94 84 82 81 80 87 90 87 87 95 92 89 88 98 100 95 92 67 64 62 55 37 31 32 31 34 36 47 59 65 67 64 60 72 78 85 91 89 83 82 94 98 97 97 97 100 97 96 97 91 90 98
96 97 89 67 60 56 67 67 63 79 88 85 93 99 97 98 93 81 50 52 52 44 32 29 29 31 32 37 43 53 62 68 72 71 72 74 75 78 83 85 81 77 89 96 97 96 96 97 97 97 96 96 97 97
86 78 77 64 65 63 81 82 80 80 79 59 80 99 94 82 71 39 44 46 47 35 28 30 33 37 42 47 53 60 65 72 75 78 76 73 73 76 78 82 87 92 96 96 96 96 96 96 97 96 96 97 96 97
85 73 63 90 81 74 72 72 73 50 48 57 87 89 84 49 37 36 39 38 36 34 32 34 39 45 46 53 64 71 76 81 86 87 86 79 77 72 86 90 96 99 98 97 96 96 96 96 96 96 96 96 97 97
94 73 82 82 82 80 65 58 67 57 54 61 66 59 51 38 30 30 30 30 30 32 36 38 43 47 55 66 68 72 78 83 87 93 95 92 88 87 88 91 92 96 96 96 96 96 96 97 97 97 96 96 97 97
86 78 84 79 87 79 69 64 63 63 62 60 62 66 60 49 36 31 29 28 30 33 36 41 48 62 70 76 80 78 77 82 88 96 100 100 98 91 88 89 94 96 95 95 96 96 96 96 96 96 96 97 97 90
91 86 86 92 94 81 79 73 74 76 81 77 76 69 70 66 57 40 35 35 36 40 46 51 63 71 76 79 80 86 97 92 92 93 95 97 98 94 93 95 97 96 94 96 96 96 96 95 95 96 96 96 95 92
96 94 95 92 93 96 88 82 90 90 90 90 91 91 86 78 77 50 47 44 44 47 55 67 72 73 76 78 80 85 90 92 94 98 99 100 100 100 100 97 96 95 95 96 95 96 96 96 96 96 96 96 96 95

GFSWCAN_850_rhum_045.txt.gz
RH
66 81 35 21 75 90 93 98 100 95 97 100 90 91 95 93 74 35 70 100 100 100 88 79 73 71 62 63 80 95 86 92 95 95 92 86 82 67 67 86 87 95 97 100 99 98 92 46 53 67 65 63 65 76
63 56 25 18 67 92 90 98 100 98 99 97 95 97 95 95 97 84 66 100 100 100 92 88 81 81 77 75 75 79 83 86 79 91 94 94 92 80 75 80 69 84 78 88 77 74 51 52 55 60 62 63 69 73
67 52 30 19 56 94 87 99 100 98 99 99 100 100 97 100 97 97 63 97 99 100 96 93 80 81 80 78 76 80 89 80 83 84 88 89 98 82 86 77 65 61 58 74 81 63 67 58 62 60 59 62 69 76
85 60 28 27 62 90 93 100 100 98 99 100 99 100 92 100 99 100 75 96 100 100 99 93 84 77 74 80 80 78 77 84 82 87 90 91 88 81 88 82 79 68 61 66 71 60 61 62 60 61 61 61 65 76
96 59 41 31 47 69 97 99 100 98 99 100 93 91 93 89 96 100 67 93 97 98 96 89 87 89 86 89 88 88 88 89 93 99 98 91 80 86 87 85 90 64 68 75 76 53 57 59 61 63 61 62 65 70
88 81 37 52 40 74 98 99 100 100 100 96 95 87 91 88 95 99 99 98 87 94 100 99 96 90 90 93 95 99 95 98 98 97 90 79 68 74 95 87 67 55 52 50 54 52 53 58 61 63 62 65 68 70
89 85 48 46 36 94 100 72 86 97 91 80 84 92 91 97 95 100 100 100 98 100 99 99 96 97 94 96 98 100 100 100 95 95 95 82 81 78 87 91 59 50 48 54 57 56 62 63 61 62 63 66 71 72
95 75 52 34 39 95 93 56 36 51 25 75 95 91 99 100 91 98 99 98 99 99 99 100 95 92 94 96 99 98 100 100 100 96 90 89 89 83 98 80 70 69 63 64 60 59 57 59 64 65 66 67 69 70
93 66 37 34 41 95 59 36 34 27 23 78 90 96 96 98 100 100 100 100 100 100 100 100 100 98 90 88 96 100 100 99 94 98 96 99 93 98 86 86 80 75 73 68 65 65 66 66 67 66 66 69 72 75
90 44 32 44 66 97 39 34 29 20 44 72 86 99 100 99 100 100 100 100 100 100 100 96 90 90 88 82 92 97 100 99 100 98 98 99 93 85 62 58 68 71 74 80 71 74 74 74 70 68 68 72 74 71
80 44 34 54 98 64 33 35 29 19 62 70 85 97 100 100 100 100 100 100 99 100 99 92 88 89 88 92 92 93 99 100 100 99 99 100 100 84 70 70 82 84 83 78 83 76 74 70 70 69 72 71 69 70
90 64 62 80 98 39 37 36 31 25 58 66 88 99 98 99 100 100 100 98 100 99 99 97 97 94 91 90 96 95 100 98 99 90 100 97 94 80 86 89 90 91 89 86 85 82 75 68 73 69 69 68 68 69
99 95 94 68 83 39 36 32 31 26 84 97 98 100 98 98 100 100 99 100 99 99 96 99 99 96 93 92 99 98 100 98 83 96 99 100 83 83 87 91 89 92 86 88 84 77 72 77 87 87 80 67 67 68
98 98 98 99 83 39 36 33 29 24 70 94 98 99 95 99 98 97 98 98 100 100 100 100 99 100 96 100 98 98 92 86 88 97 94 98 95 87 85 90 94 93 89 84 80 81 76 75 87 89 76 66 66 67
98 99 98 99 71 41 34 32 29 34 72 96 98 96 92 94 100 99 98 95 98 99 99 99 97 98 100 98 99 97 92 80 78 92 99 96 85 85 86 87 94 93 92 87 82 81 80 81 79 76 73 68 66 65
98 98 98 97 49 45 38 32 32 40 76 97 94 94 89 97 100 96 99 100 99 99 99 99 100 100 96 98 97 82 81 82 98 99 94 89 83 85 86 85 88 93 94 92 89 85 83 82 81 79 75 71 66 62
98 97 98 97 76 54 46 37 37 87 88 86 86 82 95 93 100 95 93 96 97 96 100 100 99 93 99 98 97 87 85 97 99 91 89 88 87 88 89 82 79 86 90 91 91 88 86 85 82 79 75 72 68 62
98 98 98 97 79 57 46 46 75 94 86 80 87 76 84 88 94 93 91 94 96 100 100 99 100 99 98 99 97 99 99 94 86 86 78 75 84 89 82 77 82 76 85 92 93 92 89 86 82 79 75 72 66 61
98 98 98 96 72 57 43 54 57 94 88 85 86 85 90 90 92 94 90 98 96 99 97 99 99 98 94 97 94 96 91 86 81 73 65 63 80 84 69 65 74 81 78 86 95 95 91 88 84 81 76 70 65 60
99 99 99 96 75 51 40 50 52 92 93 93 94 92 92 94 95 96 98 97 95 89 95 96 90 88 86 87 87 84 79 74 72 68 58 65 59 58 57 71 86 92 90 83 90 97 98 94 89 84 79 73 66 60
100 99 99 97 77 56 45 55 70 93 96 90 96 94 97 97 98 100 98 98 90 94 100 78 78 80 84 84 81 75 65 55 51 52 52 48 56 76 75 68 82 94 99 97 94 96 100 98 95 91 85 79 71 64
100 98 99 94 68 46 49 66 87 88 90 98 97 100 97 96 95 94 97 87 82 83 80 79 75 82 83 77 65 49 40 35 37 38 47 50 50 54 57 60 72 92 98 89 100 99 99 100 100 96 90 85 78 69
100 99 96 78 52 50 64 63 83 93 98 98 98 97 98 97 95 99 97 90 86 83 79 85 79 76 72 49 27 25 26 27 31 38 42 46 46 48 52 58 70 79 80 76 90 99 100 100 100 99 94 89 82 75
97 96 95 91 82 95 71 84 92 97 97 96 98 92 96 96 100 99 96 87 78 77 82 82 79 68 33 21 19 23 31 36 40 45 54 55 52 49 56 53 57 61 70 79 86 90 98 100 100 100 98 92 88 79
97 96 96 97 99 82 89 97 96 99 92 92 92 92 93 92 98 100 98 79 75 78 72 74 70 37 20 18 21 25 31 40 44 39 42 58 63 59 56 58 57 59 74 86 89 92 97 97 98 99 99 97 95 87
96 92 97 89 87 77 82 92 93 92 90 90 91 87 87 97 100 86 87 59 54 54 62 55 45 27 19 21 25 28 36 45 50 46 46 63 68 75 72 71 65 52 64 76 87 95 97 97 97 97 97 97 97 97
97 100 97 86 63 59 73 67 68 88 88 87 92 96 95 93 81 71 41 35 39 35 33 33 26 22 22 27 30 36 44 47 52 55 60 64 69 73 78 78 74 67 78 81 85 90 100 99 97 96 96 97 96 96
87 84 85 73 60 55 79 87 82 79 80 62 76 90 86 75 61 28 28 27 38 35 26 22 22 26 30 32 36 43 47 55 63 66 67 66 69 71 74 77 79 80 86 91 95 98 98 98 97 97 96 96 96 96
86 73 60 94 78 69 69 69 72 46 50 59 80 79 79 46 34 26 31 37 38 43 47 38 30 34 36 40 42 48 60 68 74 76 76 71 71 68 78 81 82 90 96 97 96 99 97 96 96 96 96 96 96 96
90 70 75 81 92 92 70 52 60 57 52 54 61 58 51 38 28 26 26 25 25 25 28 32 32 36 40 41 46 61 74 78 80 84 86 83 82 82 86 86 88 90 94 94 95 96 97 96 97 97 97 97 96 96
76 74 80 82 87 81 69 62 56 55 56 52 54 60 54 44 32 27 27 26 27 29 31 34 39 40 44 57 68 71 69 77 83 88 92 93 94 93 92 92 92 89 89 93 96 97 96 97 97 96 96 96 96 96
82 85 91 97 95 83 77 77 68 67 75 70 66 64 63 58 51 37 34 33 33 33 34 38 41 53 63 68 72 76 82 82 85 89 91 92 93 98 98 98 99 98 96 96 97 96 98 98 95 95 95 96 96 95
97 93 90 90 92 95 87 76 85 85 89 88 87 89 80 68 64 42 41 40 39 40 41 43 57 64 67 68 72 77 79 82 84 83 84 90 96 99 98 96 98 98 96 96 96 96 96 96 96 96 96 95 95 96

GFSWCAN_850_rhum_048.txt.gz
RH
67 50 71 79 56 23 27 76 88 96 100 100 99 93 95 93 96 80 64 98 100 100 90 89 92 74 62 63 76 89 81 86 91 94 91 85 93 70 77 78 75 82 92 96 93 97 94 46 59 71 64 64 64 72
60 85 75 55 41 22 25 80 89 94 96 97 98 97 90 97 100 100 64 100 100 98 96 93 89 83 78 75 70 80 79 86 79 88 93 92 92 88 78 90 78 91 81 90 83 76 52 47 56 58 61 64 65 73
85 96 92 80 45 54 34 79 91 99 98 95 99 88 89 96 99 99 96 72 100 100 97 92 82 80 83 79 78 74 85 74 78 76 87 92 96 88 90 83 76 68 62 76 73 61 60 54 58 56 58 60 64 70
90 100 97 92 69 47 73 85 92 99 98 98 95 85 87 93 100 100 99 82 100 100 100 99 98 84 83 79 78 80 76 79 78 82 88 91 90 83 90 84 84 70 67 70 75 67 61 61 58 58 59 59 63 74
100 99 100 99 92 52 85 91 96 99 99 100 89 86 81 88 88 97 99 61 99 100 99 94 87 85 85 85 84 85 85 84 90 99 98 96 81 83 87 89 92 69 71 80 78 55 58 56 54 59 61 60 63 74
99 100 99 98 76 66 92 94 100 100 98 99 88 84 80 81 87 96 96 52 100 100 100 98 96 93 91 90 92 94 94 95 93 98 92 85 74 82 91 91 62 64 60 59 59 56 56 56 58 60 61 61 64 70
100 100 99 94 86 54 95 93 92 99 100 76 91 87 86 84 91 93 100 100 100 99 100 99 94 97 96 97 99 98 100 100 100 95 93 89 81 77 88 83 60 69 72 68 64 64 62 59 59 60 62 62 66 70
100 99 98 91 67 68 84 97 90 66 30 61 98 92 96 100 86 95 100 99 100 100 100 100 98 90 95 99 98 97 98 99 100 98 96 91 85 84 98 82 81 74 72 70 66 65 64 62 62 64 64 65 68 71
100 99 98 54 38 39 85 79 42 28 22 85 90 98 89 97 99 100 99 100 100 100 100 100 99 95 97 92 95 100 100 99 97 98 97 100 95 99 87 72 76 81 81 81 78 69 67 68 67 68 67 68 69 70
99 99 80 75 40 86 93 47 31 24 48 86 94 100 99 100 100 100 100 100 100 100 100 99 94 94 92 87 93 99 100 99 100 98 99 100 98 94 75 85 89 92 93 87 87 82 75 72 71 69 67 66 68 72
99 95 92 76 43 98 65 41 32 24 78 85 92 98 99 100 100 100 100 99 99 100 95 94 91 89 91 90 91 95 99 100 100 99 100 100 100 91 80 85 92 96 93 91 90 82 84 79 76 72 70 69 72 74
99 95 92 93 61 97 62 40 31 31 65 71 90 99 99 100 100 100 100 99 100 99 99 97 94 90 91 91 95 94 100 99 98 95 100 99 98 84 81 84 90 96 91 90 90 87 85 82 76 75 70 68 71 70
96 98 98 98 71 95 62 37 34 38 80 97 100 99 99 99 100 100 99 100 100 98 100 100 100 96 98 93 99 99 100 98 87 98 97 99 88 80 83 87 89 95 91 88 82 82 81 79 79 74 69 76 69 71
97 98 98 98 97 92 69 38 34 34 95 98 97 99 98 99 98 98 98 98 99 99 99 99 100 99 99 100 98 99 88 84 88 99 94 96 90 85 83 86 90 93 92 90 88 83 79 80 95 99 97 90 86 77
98 98 99 98 98 62 53 42 35 38 83 97 97 94 98 90 100 98 99 100 99 100 100 100 98 89 100 100 99 97 92 85 73 89 97 95 86 85 84 84 87 92 92 89 87 83 80 77 77 84 88 85 74 68
98 99 98 98 96 40 44 46 42 54 70 98 93 98 90 98 100 96 89 99 99 99 100 94 100 99 95 99 99 89 77 82 94 96 89 88 83 86 84 82 81 81 90 90 89 87 85 83 81 80 79 77 72 68
99 98 98 98 95 50 49 48 50 71 84 89 85 86 95 94 100 94 94 98 96 100 100 100 99 92 99 100 99 88 85 96 85 84 82 80 82 84 81 72 69 77 72 79 88 89 87 85 83 81 80 78 74 69
98 98 98 98 94 71 52 50 79 92 90 86 86 80 84 88 93 96 94 94 93 99 100 99 99 99 98 99 98 100 97 87 86 81 72 68 67 80 79 61 58 70 78 74 80 86 89 88 86 83 80 77 74 70
98 98 98 98 89 75 48 52 60 93 88 88 86 82 83 92 89 93 93 95 97 98 98 100 100 98 94 97 92 95 89 82 75 71 63 55 57 67 55 55 53 57 67 78 77 80 89 91 87 84 81 78 74 71
99 98 99 98 84 62 45 49 50 90 94 89 91 93 89 92 95 97 94 94 97 96 98 98 96 82 83 84 88 84 80 73 67 62 51 46 48 46 49 50 52 55 55 61 83 88 88 93 94 92 86 81 76 71
100 99 99 99 91 63 53 56 68 88 96 88 96 94 94 97 96 95 94 97 96 93 100 82 79 77 84 84 85 82 72 65 55 48 43 36 39 38 39 42 46 45 53 65 81 83 95 98 100 98 94 89 82 76
99 100 100 98 85 61 49 66 86 88 90 97 98 97 95 98 96 96 98 99 93 81 70 61 47 63 77 85 82 74 58 42 32 30 31 31 31 33 36 44 48 43 45 59 75 76 86 98 99 98 100 97 92 85
98 99 98 92 64 52 61 65 79 90 98 96 99 96 97 98 96 97 99 94 83 72 66 68 70 70 84 80 66 47 26 20 20 26 30 34 36 39 42 45 51 53 50 44 57 64 70 84 99 100 99 100 97 92
98 97 96 77 63 91 83 76 91 98 100 99 98 94 95 96 98 98 99 85 70 62 67 73 80 85 80 72 30 20 18 19 21 23 34 33 33 37 48 48 49 51 58 57 58 61 68 77 93 97 98 99 99 95
97 96 99 100 100 89 84 95 97 100 98 93 94 89 93 100 100 100 99 75 62 62 65 79 90 86 73 37 20 20 22 24 25 25 31 40 42 39 44 51 53 55 63 65 61 67 65 78 95 98 100 99 97 97
96 93 97 94 98 84 82 90 94 93 93 95 95 87 90 97 100 86 83 51 40 41 53 52 52 64 54 29 18 22 26 28 31 30 31 36 39 52 58 60 55 47 62 73 74 75 74 75 89 99 100 100 99 97
96 100 98 91 73 64 78 69 71 86 92 94 94 100 97 94 80 67 30 27 27 27 31 37 38 32 17 18 22 24 29 31 34 36 34 33 46 60 68 70 65 63 72 76 79 80 84 86 84 96 100 99 97 97
88 90 94 89 65 59 78 88 83 83 80 65 78 94 89 74 60 26 22 19 27 28 19 18 18 20 21 23 26 29 34 38 38 38 40 49 59 63 68 71 72 76 79 82 84 87 91 98 99 98 99 97 97 96
87 84 75 94 73 62 65 69 73 48 46 52 80 79 77 40 31 22 20 24 29 34 30 27 28 28 31 33 33 34 37 40 46 54 58 56 57 61 75 77 78 84 87 93 97 100 100 99 99 98 96 95 96 97
89 73 68 76 81 79 57 46 50 46 45 52 53 50 46 34 26 24 21 22 23 24 25 27 31 34 32 32 32 35 42 56 64 67 68 65 69 73 80 83 87 93 96 98 93 86 86 92 95 97 99 98 99 100
76 72 74 69 86 80 71 71 63 53 54 50 50 53 50 41 32 29 28 26 26 26 27 27 30 33 33 34 36 42 51 62 66 72 78 79 78 79 81 86 96 100 98 97 94 89 87 92 97 97 98 98 96 96
78 77 88 97 96 90 81 70 81 83 74 67 60 60 60 56 53 41 38 37 35 34 33 33 32 34 34 44 53 57 58 60 67 74 80 81 80 79 87 86 96 100 97 97 99 95 94 97 96 96 96 96 96 96
98 90 87 89 92 96 94 88 81 80 85 85 82 84 76 66 63 43 38 32 33 33 33 35 34 38 51 55 58 61 65 70 79 87 94 95 93 100 100 98 99 96 98 97 97 97 96 96 95 96 96 96 96 96

GFSWCAN_850_rhum_051.txt.gz
RH
84 80 75 60 67 65 50 30 70 85 92 84 94 99 93 98 100 80 66 86 100 100 86 90 95 93 66 68 82 88 78 86 89 92 89 87 92 72 82 76 86 88 91 93 87 97 93 49 68 71 64 62 65 67
89 96 77 88 79 70 47 59 50 83 95 80 91 95 91 85 100 100 68 96 99 100 98 97 92 96 87 81 71 78 75 81 79 87 90 90 94 91 83 98 74 89 75 84 82 77 51 46 54 56 58 60 59 66
95 95 96 92 93 88 68 67 46 79 96 98 84 89 92 82 94 97 98 91 94 100 94 89 82 86 87 83 76 72 81 72 76 74 84 90 96 90 92 90 85 74 64 82 77 62 64 54 54 57 57 56 57 62
80 83 90 93 99 94 84 75 46 88 99 98 88 93 81 84 85 91 96 96 96 99 98 93 87 84 81 85 81 79 73 74 77 81 84 91 94 80 87 85 89 74 68 72 80 68 57 55 56 56 55 58 57 62
87 88 96 94 96 98 99 74 55 92 99 98 99 93 87 74 78 92 92 99 92 99 99 98 99 95 82 82 78 80 80 80 85 95 98 95 82 84 86 88 92 72 77 85 79 60 61 56 54 55 59 60 59 63
94 94 100 99 100 98 81 52 85 99 100 98 99 91 77 74 88 88 93 77 77 98 99 100 99 98 92 90 91 90 90 90 89 92 90 87 79 75 94 96 68 73 76 78 67 61 62 60 58 59 62 60 60 63
89 98 96 92 98 86 58 66 96 100 100 100 83 83 80 89 83 79 99 100 100 100 99 100 95 99 97 96 98 100 100 100 99 98 99 92 84 82 92 95 86 74 68 75 74 73 70 64 60 62 62 62 61 64
99 100 99 95 98 83 53 71 97 98 77 32 86 91 88 86 90 84 99 100 100 100 100 100 99 94 99 100 99 100 100 97 100 96 98 94 89 90 100 78 70 68 65 71 73 78 75 69 66 65 65 65 64 67
97 100 98 99 98 70 53 90 94 45 28 68 97 98 99 85 95 100 100 100 100 100 100 100 100 95 99 96 91 100 99 100 98 98 97 100 94 98 93 82 84 85 93 90 73 69 79 73 70 69 69 68 68 69
97 99 98 98 80 74 88 95 83 34 27 82 99 100 100 100 100 100 100 100 100 100 100 93 94 95 96 93 97 100 100 99 100 98 100 99 94 99 96 80 86 91 97 96 94 76 74 80 77 72 71 70 68 69
96 89 96 92 91 69 97 94 59 32 60 92 98 100 100 100 100 100 100 100 99 100 99 96 94 91 92 90 88 96 99 100 100 100 100 100 100 98 80 78 87 96 94 93 97 96 90 85 85 83 79 72 68 68
99 99 99 94 98 88 96 85 47 33 70 79 91 100 98 100 99 100 100 100 100 94 98 99 93 86 92 92 93 96 100 99 99 99 100 99 98 82 80 81 90 97 96 93 92 93 88 87 83 84 81 74 69 71
99 99 98 97 98 92 95 77 49 38 68 85 98 100 100 100 100 100 99 99 100 100 100 100 100 95 94 95 99 99 100 98 90 100 95 99 87 82 84 86 87 96 98 92 98 94 90 87 84 79 76 72 70 76
95 100 96 98 99 94 93 82 49 57 100 99 99 99 97 99 97 99 97 95 99 99 98 100 100 99 100 100 98 100 89 86 99 99 93 94 87 85 86 86 83 89 94 94 96 96 94 94 100 99 82 82 91 77
98 100 99 99 99 99 75 52 45 50 90 100 98 97 98 92 100 100 100 100 97 97 99 100 98 91 100 100 99 99 98 95 75 84 98 85 82 85 81 80 81 78 84 90 90 87 88 89 88 91 96 100 99 96
99 99 99 99 98 98 50 48 44 52 67 98 98 98 93 100 100 100 100 100 99 100 100 99 100 98 99 99 99 95 79 80 89 96 86 86 83 84 79 72 65 78 78 77 86 89 87 84 82 82 85 89 88 80
100 98 98 99 98 98 56 49 48 59 77 89 91 90 99 93 97 93 94 93 95 99 100 100 99 96 99 99 99 90 82 90 86 85 80 73 73 75 77 69 53 54 67 72 72 78 84 87 85 83 81 80 78 77
98 98 98 98 98 96 64 47 76 96 95 88 86 82 88 90 92 92 93 96 99 100 100 99 99 99 99 97 95 94 94 80 80 76 71 66 59 56 66 52 44 45 48 58 68 74 80 85 87 85 83 82 79 77
99 98 98 98 97 96 75 59 57 90 88 92 90 87 86 88 83 85 93 94 97 97 98 100 100 93 94 93 98 90 89 81 79 79 71 63 51 51 46 42 42 40 41 45 47 55 74 84 91 91 87 83 80 77
99 98 98 99 97 96 96 90 58 83 95 90 92 93 84 93 96 94 94 95 96 97 99 99 96 90 80 76 79 79 80 78 75 71 63 48 42 38 37 34 30 29 31 35 39 45 57 76 90 95 96 93 86 80
99 99 99 98 97 89 66 58 67 80 94 88 94 96 93 98 96 96 96 94 94 96 98 82 79 72 78 79 80 83 82 77 66 53 42 33 32 25 23 24 26 28 30 32 35 37 45 56 85 97 95 95 96 91
98 98 98 99 98 73 57 70 84 87 90 96 98 97 95 96 95 94 94 99 95 84 78 65 54 51 63 75 80 84 80 68 54 38 27 20 17 22 28 34 35 36 38 42 44 40 36 42 54 78 96 97 98 97
99 98 93 95 79 61 63 65 79 90 96 94 98 96 95 97 96 98 99 94 85 64 51 60 60 47 45 68 82 80 68 53 28 19 18 21 23 24 24 26 32 38 38 42 48 46 43 45 48 63 80 95 96 97
98 89 95 90 68 81 81 72 87 98 100 99 98 95 93 94 100 99 100 81 48 40 43 55 67 72 73 80 84 71 46 23 18 18 21 22 23 26 26 26 34 44 52 50 49 52 53 53 54 56 77 92 97 99
97 96 99 100 100 91 77 91 99 100 97 96 96 93 94 100 100 100 98 72 52 45 53 60 72 82 77 73 70 52 23 19 19 21 24 26 27 27 27 30 38 50 58 58 56 57 58 63 63 63 69 94 100 99
96 92 97 98 100 94 91 87 98 96 96 97 97 93 94 97 99 83 80 41 37 33 34 41 46 69 77 75 61 24 19 20 22 22 24 30 34 37 38 44 46 46 61 69 70 65 63 65 69 71 70 77 99 100
99 100 98 96 83 79 81 73 73 91 97 94 96 99 96 87 79 64 25 25 26 25 30 35 38 43 40 52 43 25 21 23 27 29 30 32 34 41 55 61 60 61 62 67 72 74 72 67 69 74 76 82 89 98
89 91 95 94 71 65 80 93 90 90 86 70 77 93 83 74 59 22 21 20 19 23 25 25 24 31 38 27 20 20 24 28 32 32 32 32 38 56 66 66 67 68 69 72 76 78 78 79 78 80 83 87 90 94
97 91 82 89 73 65 59 67 70 42 44 56 79 77 73 34 25 20 16 13 14 20 20 17 16 16 18 21 24 27 33 37 37 35 35 40 50 55 64 69 73 74 77 78 82 91 89 90 91 92 94 96 97 99
93 88 74 76 80 76 50 40 40 44 50 48 43 43 37 29 24 24 23 22 19 17 26 34 36 37 41 45 45 44 38 35 36 43 58 58 60 60 64 69 72 73 78 88 94 91 91 93 91 90 92 96 98 98
86 79 72 71 76 66 58 54 52 56 53 49 49 52 47 40 36 39 42 45 47 40 30 25 23 25 28 29 31 33 34 43 56 62 64 63 65 70 74 78 81 87 87 94 97 96 95 96 96 93 92 98 97 97
82 76 81 98 95 84 83 76 69 62 68 62 54 53 56 60 61 61 55 51 46 42 37 35 34 34 36 34 33 39 53 60 61 63 68 74 78 79 83 87 86 97 98 94 93 96 97 99 98 95 97 97 96 97
95 92 94 93 96 97 91 85 97 80 81 79 76 78 76 69 62 51 43 39 35 30 29 29 29 30 33 40 51 54 55 59 62 65 71 77 82 82 94 95 94 98 100 100 99 97 98 98 97 96 96 96 97 98

GFSWCAN_850_rhum_054.txt.gz
RH
86 92 94 83 77 79 68 66 41 44 85 89 87 93 94 84 92 82 73 88 100 100 86 86 93 99 76 75 85 80 77 82 88 86 80 87 92 84 86 78 89 84 97 93 92 96 94 52 67 75 62 61 63 64
97 99 100 98 100 95 86 81 60 63 50 84 92 85 89 96 83 91 82 92 98 100 98 100 92 90 100 93 81 82 69 77 75 87 89 87 94 90 85 97 75 88 72 80 79 75 52 52 56 50 56 58 59 61
95 98 98 100 98 94 96 87 74 72 49 70 96 95 83 97 82 98 87 98 91 92 96 89 77 80 91 88 88 77 78 70 74 72 82 89 91 91 94 93 90 73 66 83 81 63 64 58 55 56 59 59 58 58
72 88 96 95 86 88 94 95 95 93 68 80 96 85 92 85 80 92 96 89 96 98 97 92 83 90 90 91 87 82 72 71 74 78 81 91 95 81 90 82 84 78 70 73 81 70 59 58 54 56 56 58 58 58
92 97 86 84 90 87 87 92 98 90 75 94 98 90 96 85 77 83 92 94 96 93 99 98 100 94 94 87 84 86 80 77 82 90 92 92 82 84 89 91 95 75 76 82 83 66 65 60 59 59 58 59 61 59
98 99 90 93 89 87 99 95 88 70 92 98 96 98 83 81 84 93 93 84 96 95 98 100 100 96 88 79 83 84 87 87 84 84 88 87 81 82 96 92 76 82 80 80 82 76 73 66 66 63 61 62 60 59
98 99 82 93 82 92 94 88 69 80 96 98 99 98 82 83 89 88 84 100 91 95 99 99 99 100 98 96 99 98 97 97 93 95 98 86 86 86 96 98 85 74 72 68 83 74 73 72 72 70 66 64 62 62
99 99 92 94 81 91 95 75 66 85 96 95 83 87 83 83 89 89 78 99 99 99 99 100 96 96 99 100 100 100 100 100 100 96 97 96 94 93 97 78 74 74 72 69 82 76 74 80 73 72 71 68 67 66
100 99 99 100 98 94 91 72 78 95 57 42 97 99 91 94 79 92 100 100 99 100 99 100 98 98 95 97 92 99 94 99 97 98 97 100 94 95 86 79 76 79 87 86 68 72 70 68 78 75 72 71 70 68
100 97 96 100 96 100 82 73 90 86 37 78 99 100 99 100 100 100 100 100 100 100 100 99 94 96 98 95 100 100 100 99 100 98 99 100 97 99 93 80 74 80 86 97 99 92 82 79 85 85 78 76 73 70
96 97 99 89 95 90 81 84 90 54 52 99 99 99 100 100 100 100 100 100 99 97 94 90 97 94 95 92 91 96 99 100 97 100 100 99 99 99 94 74 80 89 94 92 96 95 95 98 94 86 77 84 82 71
96 92 84 87 94 94 86 90 75 44 77 96 95 99 100 100 100 100 99 97 97 85 96 99 97 89 94 94 92 96 100 100 98 99 100 97 97 84 78 81 87 94 99 99 100 100 98 95 92 89 85 84 86 74
95 97 85 88 94 98 96 94 74 44 52 85 99 100 100 100 99 99 98 99 99 100 100 100 100 94 94 94 99 99 100 98 94 100 94 97 86 81 82 84 89 97 100 100 100 100 98 99 97 87 83 82 78 72
95 94 94 96 98 100 90 99 80 65 98 100 100 99 99 99 94 96 95 94 98 100 99 100 100 99 100 100 97 100 95 91 99 99 86 93 81 83 85 86 84 88 93 95 95 95 97 96 96 99 91 75 74 76
92 96 96 99 100 99 98 90 61 62 99 99 100 96 99 94 97 99 100 99 100 99 97 99 98 91 100 99 98 99 99 98 86 84 95 82 81 84 78 68 70 79 77 80 89 93 90 87 91 95 95 98 100 99
96 98 99 100 100 99 98 71 50 65 76 100 99 99 91 100 100 100 100 100 100 100 99 99 100 97 99 99 99 96 90 75 85 96 82 79 84 81 77 67 53 54 65 70 76 81 87 88 86 84 82 85 95 96
99 98 99 99 99 98 98 53 50 67 83 94 96 95 95 90 92 94 92 94 96 100 100 100 98 96 98 99 99 91 91 87 82 81 78 76 76 72 68 66 45 40 40 41 45 58 70 80 86 85 83 82 79 78
99 99 100 99 98 97 97 68 70 96 98 93 88 85 86 80 82 92 93 94 98 100 100 99 96 99 99 98 97 94 87 74 72 72 69 67 64 58 57 49 37 34 34 34 36 38 43 57 71 84 87 84 82 80
98 99 100 98 97 96 96 95 73 90 89 96 94 92 93 91 88 84 77 88 97 99 99 99 99 94 94 91 89 85 84 71 76 76 75 72 65 55 48 34 30 29 27 26 27 30 34 47 72 80 86 91 90 85
99 98 99 97 97 97 96 97 96 95 96 97 96 95 89 91 92 88 76 84 93 93 99 98 95 86 80 71 71 73 72 75 76 80 77 70 58 48 35 28 23 18 18 20 23 23 25 31 46 70 84 92 95 94
100 99 99 98 97 96 96 95 94 94 97 96 96 97 96 97 94 96 94 85 89 91 99 80 80 69 74 75 74 76 78 79 77 77 70 54 40 31 23 18 20 22 25 24 23 25 30 31 29 35 48 72 91 96
94 100 98 98 99 80 67 76 86 92 95 96 96 96 96 95 94 94 96 100 95 79 68 67 66 64 67 67 72 78 81 82 77 66 50 35 26 18 18 20 20 25 32 38 41 39 38 39 36 34 34 44 66 86
92 97 93 98 85 67 70 70 80 90 96 92 95 96 95 95 94 96 98 91 83 62 55 59 64 69 64 52 66 81 83 80 67 50 30 19 16 19 21 24 25 24 25 34 43 46 45 45 45 43 43 42 50 70
94 94 94 94 79 80 76 78 88 98 98 98 97 94 92 93 99 99 99 83 53 44 43 45 54 64 66 63 60 67 76 70 55 28 17 17 20 23 25 25 26 26 27 34 42 47 50 50 51 52 52 50 52 58
94 95 97 100 98 88 81 91 99 98 95 96 98 94 94 100 100 100 98 71 47 37 43 48 54 61 70 62 60 74 77 61 31 18 19 20 22 21 23 26 26 28 39 47 50 51 55 57 59 61 61 61 60 64
98 92 96 100 100 95 93 81 96 95 96 97 97 94 98 97 100 84 82 34 30 26 33 37 46 54 56 60 76 74 67 39 20 17 18 22 26 29 29 28 24 29 52 56 59 60 60 63 63 63 63 66 68 73
100 98 99 97 84 86 82 73 74 92 100 94 95 100 94 73 73 59 22 22 24 26 29 30 36 38 38 50 62 65 38 22 18 19 22 25 29 34 36 35 40 52 56 59 64 67 68 70 69 66 67 69 75 80
91 90 100 98 82 76 82 94 93 91 87 68 84 92 78 67 55 18 15 14 15 19 18 20 18 19 28 36 40 45 37 21 20 23 26 30 33 35 39 51 57 60 63 67 69 71 75 78 78 76 76 78 80 87
100 98 85 95 77 72 62 72 73 44 41 63 86 82 69 29 22 18 18 18 13 12 16 19 21 21 19 18 18 20 21 24 32 37 39 34 29 35 53 59 64 70 74 73 73 79 84 88 92 96 97 96 95 94
100 93 83 81 83 82 58 53 38 36 40 48 49 44 38 32 32 32 30 32 36 37 29 23 22 23 21 22 22 26 30 40 46 45 38 34 42 52 58 64 69 76 81 85 87 82 87 98 98 96 96 98 98 95
86 89 78 80 84 68 63 57 53 51 51 53 54 58 55 49 44 43 43 44 46 50 52 48 40 30 27 37 41 40 33 32 33 35 44 52 55 58 65 69 74 81 88 92 97 97 95 94 95 96 96 95 92 92
92 86 80 92 85 76 76 74 68 64 67 61 54 55 54 53 53 52 51 52 52 52 53 50 50 47 41 35 32 32 34 35 43 54 55 58 60 64 69 74 80 87 95 97 96 98 98 100 99 97 96 95 94 96
96 92 92 87 90 94 85 78 87 86 88 84 76 76 75 75 72 58 56 55 51 46 34 29 29 31 34 36 36 38 46 52 55 57 58 61 66 73 82 90 94 98 98 97 94 99 100 98 97 96 96 97 97 97

GFSWCAN_850_rhum_057.txt.gz
RH
100 99 90 94 87 84 89 71 71 72 53 61 90 92 89 88 89 82 76 70 88 100 97 90 88 98 96 81 86 78 81 78 89 82 78 84 89 86 85 78 83 80 92 83 87 86 87 52 69 78 65 60 61 62
99 99 96 84 88 89 98 89 83 85 69 65 75 86 96 80 93 83 96 84 82 93 91 97 86 80 82 96 98 88 66 75 68 88 88 85 94 96 88 95 75 91 77 81 73 71 49 52 59 50 48 56 58 60
100 100 100 93 87 93 96 88 90 90 75 78 78 85 100 82 90 90 98 100 94 95 65 53 32 63 82 87 97 94 78 71 73 70 81 87 85 91 97 95 88 77 67 80 80 64 64 53 58 59 60 62 61 60
100 100 97 90 88 96 86 88 92 96 93 94 76 97 98 85 91 82 92 94 96 90 95 86 98 90 75 80 92 92 87 77 71 73 80 90 90 81 89 83 89 79 72 68 80 70 61 56 63 60 59 59 59 61
98 100 100 94 96 97 98 86 86 89 90 84 78 94 93 86 83 88 90 90 91 86 97 94 67 94 92 83 99 98 89 81 78 85 90 88 83 86 92 94 98 81 84 89 86 71 74 64 60 61 63 63 63 64
98 100 98 99 100 96 98 86 84 89 83 68 94 96 90 87 85 100 89 78 92 95 94 99 98 100 98 100 98 100 92 84 79 79 82 81 80 76 94 92 71 71 76 77 75 74 71 68 70 73 69 67 65 63
100 100 100 100 99 96 98 84 86 84 69 81 94 95 94 86 98 96 86 95 98 100 95 99 100 100 90 100 99 100 94 92 86 86 92 89 88 81 98 92 76 82 74 72 75 85 76 75 75 74 71 70 68 65
98 100 98 98 99 98 92 83 91 81 69 87 81 84 82 85 98 100 91 83 95 99 99 99 100 99 96 92 99 100 100 99 99 95 98 98 97 96 98 88 76 75 74 73 79 87 83 73 65 75 74 72 70 69
100 100 98 100 99 99 95 87 88 75 86 69 76 90 93 92 85 77 95 98 99 99 98 100 100 100 97 98 100 100 98 99 98 99 97 99 96 92 86 77 77 78 78 79 77 75 77 79 75 75 80 75 73 72
99 100 100 99 99 100 98 89 83 82 82 43 94 99 98 98 99 100 100 99 99 99 99 100 98 99 95 92 99 97 99 99 100 99 100 100 99 93 87 83 79 73 73 84 93 89 81 77 84 82 82 86 80 78
100 99 99 100 100 100 89 90 84 91 54 82 97 100 100 100 100 100 100 100 99 95 99 92 91 97 98 97 98 96 99 98 99 95 100 99 98 99 99 83 75 76 85 94 99 99 100 98 94 93 88 86 82 84
98 99 99 100 100 92 91 84 91 83 52 98 100 99 100 100 100 99 98 96 99 86 88 98 96 94 96 96 93 98 96 100 98 99 100 99 95 88 76 77 81 88 96 100 100 100 100 100 100 98 90 90 85 83
100 99 99 100 92 88 91 91 86 65 38 90 96 99 100 99 99 100 99 100 100 99 100 100 100 94 95 94 99 97 100 99 96 99 92 94 89 83 83 84 90 95 100 100 100 100 100 100 100 100 86 83 84 85
100 100 99 98 93 95 98 99 98 53 65 99 100 98 98 99 96 96 96 95 98 100 100 99 99 99 98 98 97 100 98 96 99 99 92 94 81 83 84 84 82 85 88 94 97 91 89 97 100 100 100 83 76 74
99 99 98 98 97 98 98 99 93 65 99 100 100 97 98 97 95 94 100 99 99 99 100 100 99 92 98 95 94 97 100 98 90 78 95 87 76 79 69 64 71 76 75 74 76 80 85 85 85 85 94 99 100 100
99 98 99 91 96 98 98 97 84 64 87 98 100 99 95 100 100 100 100 100 99 100 100 96 99 98 98 98 99 95 95 86 83 96 82 75 77 71 71 62 51 48 48 45 44 53 64 73 79 83 82 80 82 96
98 98 92 98 98 99 99 97 59 57 79 96 95 97 96 97 95 95 96 99 100 100 100 99 99 85 95 96 99 91 94 87 68 74 70 70 74 75 73 67 47 39 34 30 30 33 36 51 66 78 79 81 82 80
90 96 97 97 95 98 98 68 53 84 100 95 89 87 94 94 96 100 98 98 99 100 100 99 98 99 99 99 97 93 81 72 68 68 70 71 69 62 60 56 42 30 27 26 25 26 28 32 45 58 71 81 87 85
92 98 99 100 98 96 97 84 70 90 87 96 95 92 95 91 89 90 91 95 100 100 99 99 99 97 92 92 86 77 79 71 74 76 73 71 68 64 61 47 33 26 22 17 16 17 19 24 31 43 58 70 80 87
99 99 99 98 98 97 96 97 96 96 96 96 97 98 90 90 91 91 90 87 86 92 99 99 96 85 77 69 67 67 68 71 70 73 74 76 74 66 55 39 26 17 13 17 21 23 25 27 28 29 31 42 61 73
99 99 98 98 97 97 96 96 96 96 96 97 96 97 97 95 92 94 95 82 78 85 99 78 78 72 73 73 71 69 71 73 72 75 74 76 72 63 42 25 16 16 18 20 21 26 30 28 29 30 31 30 34 49
98 99 97 100 96 82 85 95 96 96 96 96 96 96 96 96 96 96 98 98 92 74 64 55 53 55 64 67 68 72 75 78 82 80 78 68 47 34 23 17 16 18 19 22 26 32 37 40 39 40 39 37 38 38
100 100 94 96 82 67 81 79 86 94 95 94 94 96 96 96 96 96 96 88 80 69 64 56 57 63 66 68 67 71 77 82 83 80 68 47 30 19 18 19 21 20 21 24 27 36 43 45 46 47 49 50 48 45
93 95 93 94 77 83 74 81 89 95 96 96 96 92 92 91 96 100 98 82 60 51 47 48 54 62 69 70 68 64 61 77 83 78 59 30 16 18 20 22 23 24 25 22 24 37 47 52 53 54 56 56 57 57
94 97 97 100 95 87 86 93 99 96 95 96 96 92 94 98 98 98 92 68 38 23 28 34 44 56 62 62 64 63 69 75 79 69 38 20 19 20 21 23 24 26 27 25 31 38 46 50 53 55 58 61 62 62
99 96 98 98 100 94 95 83 95 94 96 96 98 95 98 96 91 78 79 30 21 21 28 35 38 50 50 52 59 65 66 77 76 45 24 19 19 22 25 26 25 25 29 29 39 45 50 55 57 58 59 62 66 70
100 100 100 97 88 86 83 76 73 92 98 93 94 100 92 70 71 58 25 16 14 14 16 19 20 25 37 46 48 67 72 71 53 29 20 18 21 24 27 30 29 30 35 43 51 54 55 57 60 63 65 65 68 75
98 96 99 97 86 84 85 94 94 92 88 69 88 96 82 72 69 22 15 13 12 11 11 13 17 19 20 20 24 34 44 43 31 24 19 19 21 28 34 34 34 36 47 53 58 61 63 66 68 70 73 75 75 83
99 96 88 99 82 82 68 75 75 49 45 56 86 86 75 42 36 34 28 22 21 21 21 25 23 18 17 18 20 19 19 22 28 25 20 22 27 35 39 34 44 54 59 62 66 72 74 76 76 78 85 89 84 84
94 93 89 88 88 88 64 61 49 40 44 50 55 51 44 39 37 36 36 36 37 38 40 41 42 42 37 24 20 21 23 27 28 31 37 42 42 33 34 47 58 63 68 73 75 77 84 91 90 89 94 97 96 97
90 96 86 85 88 71 66 64 61 60 58 53 51 56 52 48 46 43 41 40 41 42 42 43 44 46 45 44 36 28 34 40 44 46 38 34 35 42 53 59 65 72 78 84 86 87 91 95 94 95 97 94 94 99
99 95 87 96 88 73 74 74 70 67 66 61 57 57 56 54 52 49 44 45 46 46 47 51 53 53 54 54 48 42 39 37 34 33 34 41 50 56 60 64 72 80 86 88 89 92 95 99 100 98 98 95 97 98
99 100 94 83 83 86 81 77 84 84 85 83 68 66 64 66 64 50 48 49 51 53 54 53 45 34 35 40 43 41 39 38 40 47 52 53 54 58 65 69 74 83 92 97 99 98 98 99 100 99 97 96 97 98

GFSWCAN_850_rhum_060.txt.gz
RH
78 97 100 100 100 99 84 46 63 74 74 77 64 76 90 86 84 87 80 73 68 96 89 74 97 94 97 86 70 80 75 76 76 75 63 64 63 67 71 61 67 65 74 78 69 78 73 47 66 76 64 59 58 62
86 92 100 100 99 100 96 76 82 84 88 88 80 66 80 97 90 96 91 79 93 89 65 58 48 60 75 92 98 90 73 70 63 66 69 66 69 86 69 79 65 68 52 60 56 49 40 50 56 53 55 56 61 63
62 83 98 99 96 100 94 89 94 89 97 90 92 78 85 95 88 91 100 96 100 99 88 91 47 31 35 64 82 100 82 75 76 65 68 67 68 70 80 69 69 61 57 57 60 48 45 45 49 63 62 62 63 62
49 74 91 95 99 97 93 91 92 97 90 88 90 94 77 99 95 88 94 94 99 99 92 68 78 86 46 46 73 90 88 87 79 73 72 70 64 72 68 64 69 59 61 57 57 53 56 56 62 68 65 66 64 63
32 34 86 94 96 100 90 96 99 94 85 87 88 78 86 90 88 85 86 89 92 96 84 76 67 39 62 70 84 92 96 99 91 78 75 70 76 74 78 80 80 67 59 62 53 51 56 61 66 71 66 65 65 66
7 8 85 99 99 99 98 98 99 92 84 87 76 79 97 92 90 90 84 84 87 100 98 88 90 77 91 77 85 100 98 100 88 68 77 78 76 64 74 72 55 68 71 74 60 76 75 74 77 75 72 69 68 66
8 33 97 98 100 100 100 99 99 92 84 85 68 86 88 85 95 98 88 93 96 100 98 94 92 97 100 88 100 100 100 99 86 72 79 80 84 77 84 82 55 73 75 77 74 74 77 76 79 73 73 73 72 69
6 17 79 93 100 99 100 99 98 90 88 76 78 86 78 80 87 97 92 98 96 98 98 100 97 100 99 99 99 100 100 99 96 85 96 87 91 88 97 76 73 77 79 75 74 76 78 80 76 70 66 75 73 72
8 15 71 85 98 100 100 99 95 86 88 75 78 86 89 94 90 90 91 99 99 98 98 99 100 100 99 93 99 98 98 98 98 98 92 94 97 96 84 79 79 76 76 76 78 80 79 75 76 76 75 75 78 73
19 32 70 98 100 100 99 100 94 91 79 80 65 93 98 88 87 100 98 99 99 99 99 100 100 100 98 96 95 92 90 90 100 93 97 100 93 96 85 81 79 77 76 73 70 72 82 83 82 80 79 81 78 81
42 72 70 100 100 100 99 100 99 96 85 60 88 98 100 100 99 100 99 99 98 100 99 98 95 98 97 96 95 95 99 100 100 99 100 99 99 97 96 90 84 78 76 82 87 93 96 97 98 94 90 90 88 82
68 78 90 100 100 99 100 100 98 94 69 62 94 100 100 100 100 100 99 99 100 93 83 94 88 97 98 97 95 97 94 100 99 99 100 99 85 96 91 81 80 85 91 97 100 99 100 100 100 100 99 94 88 90
91 88 89 99 100 100 99 99 97 92 66 85 94 100 99 99 99 100 95 99 98 98 99 100 100 98 100 96 98 95 99 94 99 100 87 80 90 83 81 83 88 94 99 100 100 100 99 100 100 100 100 82 82 87
90 99 100 99 100 99 99 96 98 87 42 90 99 99 100 99 96 92 87 92 98 99 100 100 99 98 92 94 88 97 94 98 99 95 86 79 87 80 82 83 88 93 83 93 95 95 92 92 97 99 100 99 79 76
100 100 100 99 99 98 96 98 98 72 81 99 100 97 97 95 99 100 99 99 99 98 99 100 99 98 99 100 87 98 98 94 82 68 79 90 77 74 74 78 76 72 66 64 65 70 77 82 85 86 83 90 100 100
100 99 99 98 98 98 98 99 97 73 96 98 100 98 96 99 99 99 100 100 99 99 99 94 99 100 90 86 95 88 91 83 73 86 81 82 76 69 59 53 50 47 41 35 34 35 40 50 66 76 80 81 80 80
99 98 98 98 98 99 99 96 86 51 82 98 95 97 97 98 99 99 100 100 100 100 99 100 91 85 94 90 91 88 89 82 67 69 74 74 69 64 66 63 48 40 34 29 26 25 26 30 42 59 66 77 81 82
90 98 98 98 97 98 99 84 52 60 95 91 87 82 91 97 95 100 100 100 100 99 99 100 99 100 94 94 87 84 79 70 65 66 67 69 73 72 69 63 51 37 30 24 19 17 17 20 25 35 46 58 73 83
98 98 97 97 93 88 95 80 67 88 86 93 91 90 95 95 92 91 90 98 100 99 100 100 100 97 82 84 84 71 74 70 68 70 71 73 74 66 64 62 49 39 30 17 12 14 16 17 18 19 21 25 37 62
98 98 98 96 96 90 94 96 84 96 95 93 98 99 94 91 93 94 92 89 92 92 99 98 91 82 78 70 69 69 68 69 68 74 74 72 70 70 67 62 50 36 20 13 16 17 20 24 26 27 27 26 24 26
99 100 99 98 95 95 95 97 97 96 97 98 97 97 98 96 92 92 91 89 83 75 92 77 78 70 74 76 74 71 70 71 68 70 69 70 73 75 71 64 45 23 14 16 18 21 26 30 34 34 36 37 34 33
98 97 98 96 95 94 95 96 96 97 96 96 96 96 97 97 98 96 97 99 90 71 66 60 54 52 56 58 62 70 73 74 78 78 78 77 76 73 65 46 24 14 16 18 19 21 25 31 36 40 42 43 44 45
99 94 91 94 78 68 88 92 84 94 91 95 96 96 96 96 96 96 97 91 81 72 65 63 62 62 64 62 61 62 70 75 79 81 82 80 69 45 30 19 15 17 20 22 21 20 22 28 38 44 48 50 49 50
93 96 97 94 75 86 81 84 89 92 94 91 92 85 88 95 94 96 93 88 54 45 33 31 37 43 54 59 60 59 66 70 81 88 85 78 55 32 19 17 19 21 22 22 22 23 25 33 42 48 51 54 54 54
92 98 96 100 96 88 90 91 94 89 90 93 92 88 91 93 91 92 84 66 43 26 22 28 33 38 50 54 57 59 64 71 75 80 81 73 40 20 17 19 20 22 26 26 25 27 31 42 49 54 57 59 58 57
99 100 97 96 100 88 93 88 90 87 92 95 93 93 96 90 84 77 75 35 19 15 21 25 27 31 35 40 44 50 55 61 73 78 73 56 29 18 17 21 23 24 28 29 29 31 41 50 54 57 58 60 62 63
99 100 100 95 89 85 82 76 74 84 94 89 88 97 88 76 71 60 33 16 12 12 12 15 20 23 24 22 25 38 50 61 69 70 63 37 21 19 20 23 27 32 32 31 32 39 48 53 54 57 58 58 62 68
99 99 99 96 87 83 85 89 88 85 77 70 86 98 87 78 70 33 18 19 22 22 24 26 20 17 18 23 24 24 29 39 47 50 39 25 18 18 20 25 35 39 36 35 40 49 53 56 59 62 64 65 66 73
94 93 89 99 88 89 72 76 74 53 50 57 83 80 75 47 38 36 34 35 35 34 34 33 30 33 38 39 26 20 23 28 33 33 27 22 22 22 26 37 43 38 37 46 54 57 61 64 67 71 75 77 76 77
92 94 92 94 92 92 65 64 57 49 48 50 54 53 47 42 40 41 41 40 42 43 43 44 42 42 41 42 42 39 32 28 28 32 33 28 28 34 47 49 39 39 50 59 62 66 72 78 81 85 90 91 91 90
90 96 95 93 91 75 66 67 68 68 65 59 54 57 54 53 49 45 43 40 36 34 40 38 38 43 46 46 46 46 46 41 39 40 48 53 54 54 41 37 43 53 61 66 71 76 80 84 86 88 94 96 93 96
99 98 96 97 90 66 69 74 72 73 70 68 62 63 59 61 60 53 46 42 41 33 30 39 44 46 49 51 51 54 56 52 46 49 47 43 36 36 42 52 58 63 72 81 85 86 90 94 93 95 95 94 94 95
100 100 100 94 88 79 73 73 82 82 83 76 65 63 66 67 65 49 47 45 42 42 46 49 52 55 55 50 37 40 49 51 46 42 39 41 49 53 55 60 69 76 83 90 95 96 95 96 95 96 97 96 96 95

GFSWCAN_850_rhum_063.txt.gz
RH
57 69 78 97 96 99 100 99 98 59 47 67 74 83 72 82 87 80 98 78 94 75 69 68 72 79 89 90 73 72 73 70 68 70 63 58 54 51 55 46 53 60 64 66 61 74 74 38 55 54 65 57 55 56
30 52 64 74 68 88 90 94 97 92 72 72 83 92 83 68 95 90 99 95 90 100 74 82 58 44 53 87 100 90 72 57 53 57 49 50 54 62 50 61 49 59 45 50 51 50 37 44 51 52 58 62 61 64
14 35 57 84 96 98 84 91 94 87 84 89 89 89 87 79 95 97 98 97 99 99 82 77 74 61 40 28 53 100 81 80 69 68 55 49 56 52 64 54 54 47 41 49 50 41 40 39 47 57 66 60 60 64
8 15 28 40 83 99 97 95 100 90 92 97 80 88 92 85 90 96 95 99 99 96 88 57 58 69 78 79 68 56 94 98 96 88 64 57 53 53 52 59 55 53 49 51 48 41 47 54 53 63 68 65 66 65
4 6 5 10 37 100 100 99 100 98 99 99 84 84 87 81 90 91 86 85 86 92 79 73 72 53 54 66 95 73 76 96 99 81 66 62 54 55 54 63 59 48 51 57 51 41 43 55 71 74 72 70 68 67
4 4 6 8 59 89 95 99 100 100 100 99 91 86 76 84 96 94 90 86 86 99 99 79 69 70 89 68 52 99 97 97 98 79 63 64 64 55 59 59 42 44 49 53 50 69 67 72 69 68 67 68 64 67
5 5 5 5 25 69 95 99 100 100 100 99 96 86 72 87 87 97 80 96 88 98 97 84 81 96 87 94 99 99 100 99 98 82 70 71 71 70 63 68 44 49 57 64 71 74 70 72 70 79 74 68 72 71
8 7 6 7 13 44 76 99 100 100 100 99 97 84 80 82 81 92 83 88 94 94 96 98 86 100 96 94 84 84 95 100 96 82 85 72 73 74 83 58 54 52 67 71 73 75 74 76 77 77 73 69 67 74
8 8 8 7 7 27 74 99 99 100 100 98 96 82 83 89 98 100 87 95 98 94 98 98 97 100 98 99 98 98 92 99 97 91 81 85 92 93 70 65 68 69 73 73 77 76 76 76 76 74 74 72 73 72
10 10 10 9 10 22 62 100 100 99 99 98 97 88 100 98 79 98 99 99 99 100 99 98 98 100 99 100 98 95 94 96 99 91 94 98 91 72 80 77 77 74 78 76 78 80 75 71 76 82 86 87 84 79
22 23 20 27 32 50 71 100 100 100 99 98 92 97 99 100 99 99 99 98 99 100 98 97 99 99 100 95 96 96 97 97 100 96 100 97 93 86 91 86 80 79 78 76 76 79 82 91 96 98 96 97 99 96
63 83 67 56 67 73 78 100 99 99 96 92 78 97 100 99 100 100 99 99 100 93 94 91 91 98 100 97 97 93 99 100 100 98 100 94 82 91 91 92 87 82 82 88 99 100 99 99 99 99 99 99 98 91
91 100 89 82 88 84 100 98 100 99 98 92 96 99 100 99 99 100 94 98 98 89 94 98 98 100 99 96 97 97 99 100 99 100 88 74 90 92 88 82 84 91 98 100 100 100 100 99 99 100 100 100 86 81
80 89 69 76 96 97 100 100 98 99 95 90 98 100 100 99 93 82 79 86 97 97 98 99 98 97 94 97 89 98 96 98 96 90 80 67 84 82 80 83 98 100 99 99 96 94 92 95 99 99 100 100 100 81
71 90 95 93 100 98 98 99 99 97 61 97 99 95 95 88 99 98 99 100 100 100 99 99 99 96 98 99 84 96 97 91 76 70 78 90 84 77 78 82 97 77 71 64 61 62 64 73 81 83 82 81 84 97
80 91 100 100 100 99 99 99 99 93 92 99 100 98 91 98 99 99 99 99 100 100 98 96 100 100 96 84 96 90 86 78 71 92 88 84 78 73 72 71 64 53 40 34 32 30 28 32 44 57 67 75 80 81
99 97 99 99 99 99 99 97 97 72 80 100 97 100 98 99 99 99 99 100 100 100 100 100 99 87 93 86 90 84 86 87 85 77 77 77 70 63 54 48 45 41 38 34 28 21 18 18 23 34 43 50 60 73
98 99 99 97 97 99 99 97 92 64 87 98 88 86 94 99 98 98 99 99 100 100 99 100 99 100 84 82 82 82 85 71 66 71 72 74 71 61 63 64 54 49 44 39 29 16 11 12 14 16 17 18 26 45
97 98 96 98 98 94 95 96 76 84 87 98 97 92 99 98 94 96 94 98 99 100 100 99 100 90 78 74 88 77 74 77 76 71 71 69 70 68 71 67 62 52 47 40 23 14 15 16 16 18 19 20 20 21
98 99 99 98 95 86 87 88 77 96 91 96 100 100 100 100 94 90 91 94 100 99 99 97 87 76 72 77 73 75 72 72 72 73 72 71 73 74 69 66 64 57 52 37 16 14 17 20 23 26 28 30 31 30
98 99 98 97 94 84 88 100 100 100 100 98 100 100 100 96 99 99 99 92 94 91 83 80 79 68 71 76 75 75 73 73 74 76 72 70 70 70 69 70 69 64 51 24 14 16 17 21 26 28 32 35 38 40
98 98 99 87 85 89 92 96 100 98 100 99 99 98 96 93 96 100 96 100 96 82 65 55 51 52 57 56 54 56 61 70 73 75 76 76 75 74 75 76 75 65 34 16 17 20 20 21 24 31 36 39 41 42
95 87 84 87 74 70 91 95 89 92 91 94 97 93 92 94 98 95 96 98 89 71 65 64 64 63 65 65 62 57 54 58 70 73 76 80 78 77 74 61 46 32 17 16 20 20 21 22 23 29 38 43 45 45
86 89 92 85 72 88 80 85 84 91 94 86 87 85 90 95 95 96 92 96 82 67 46 30 27 25 28 34 43 51 57 62 66 73 82 85 83 79 61 38 23 16 18 21 20 21 22 23 25 29 39 44 46 49
90 98 97 99 92 84 85 85 85 80 80 86 85 84 88 93 88 92 89 77 51 35 23 24 28 33 36 34 39 48 55 58 65 70 78 85 85 78 49 26 18 18 20 20 21 24 25 27 29 36 44 49 52 54
96 100 96 93 96 86 83 85 85 81 80 86 85 92 95 87 86 81 74 40 19 14 18 22 25 27 29 30 35 43 46 49 54 63 68 78 78 69 44 21 17 18 22 24 28 29 29 31 35 43 49 54 57 60
98 98 100 93 89 82 75 72 68 71 81 84 82 91 86 86 78 64 38 22 15 18 22 24 20 20 22 24 25 26 32 36 44 54 66 70 66 46 27 19 18 20 23 29 34 36 35 37 42 52 56 59 62 68
97 96 96 96 86 83 82 74 78 80 70 68 75 92 88 80 72 39 21 20 24 28 33 37 34 32 30 33 34 29 26 30 38 47 53 53 44 34 22 18 19 21 25 32 39 37 37 44 54 59 62 65 68 75
96 93 89 98 90 91 81 77 74 58 54 62 77 74 73 48 40 37 37 39 40 40 39 35 32 38 42 43 40 39 40 37 30 32 34 32 32 27 24 22 25 27 34 43 40 37 43 54 60 63 67 70 72 77
89 91 93 96 94 89 73 67 65 57 54 52 53 51 47 42 38 38 38 38 35 30 27 27 26 27 28 36 39 40 41 43 42 40 38 34 35 37 41 40 39 47 54 48 42 48 58 66 70 75 83 85 85 87
92 96 95 94 90 72 64 62 62 64 66 64 59 60 58 55 50 39 34 30 24 21 21 18 22 24 30 36 40 44 47 47 48 47 45 43 45 51 61 63 63 60 45 44 53 62 69 76 82 85 85 86 87 94
100 100 99 100 88 70 65 64 69 73 71 71 65 64 62 60 57 41 33 27 27 27 23 28 32 31 36 40 45 49 51 53 55 54 53 52 51 56 59 52 43 45 55 62 70 79 84 86 88 92 95 94 94 95
99 100 100 96 92 84 76 73 79 82 85 82 70 63 64 64 65 45 38 35 32 35 38 43 47 48 48 50 52 56 54 46 48 53 53 50 46 43 45 52 59 65 72 77 82 86 89 92 93 94 95 95 95 95

GFSWCAN_850_rhum_066.txt.gz
RH
30 38 32 36 52 45 64 91 98 95 88 79 79 72 85 83 83 90 89 93 86 81 69 60 62 62 63 80 98 87 84 76 81 80 86 71 63 59 56 48 57 62 80 82 72 87 84 49 50 60 69 55 57 58
4 9 15 27 41 53 61 78 91 97 95 85 84 80 85 87 72 92 98 96 91 97 75 62 62 57 68 74 89 99 100 84 65 76 70 60 63 63 59 62 48 65 56 63 60 69 46 43 52 54 58 62 62 63
4 6 7 11 18 29 46 85 100 99 96 92 88 88 81 86 86 91 100 99 100 100 85 79 72 59 51 55 48 80 94 91 78 94 76 62 64 66 66 54 57 52 42 56 55 47 46 40 48 54 63 61 59 57
4 5 6 8 9 12 16 29 97 96 91 93 97 96 83 93 88 87 99 97 99 98 98 62 57 57 56 70 68 66 56 93 99 94 84 76 67 51 62 59 66 56 50 55 58 48 44 52 45 46 65 66 66 63
5 5 5 6 11 11 27 46 79 91 92 88 100 99 96 97 95 90 96 89 84 98 85 78 76 60 67 65 63 92 78 84 99 97 92 83 59 61 60 71 75 54 63 70 68 53 51 76 68 65 70 72 71 69
6 5 5 4 4 5 12 52 74 83 98 99 100 100 99 97 89 95 95 90 88 91 99 97 60 54 58 76 78 76 90 93 98 100 82 63 61 58 74 73 47 42 45 47 57 62 65 67 66 68 68 67 65 66
5 5 6 6 6 5 5 15 69 94 96 100 99 100 99 97 91 96 80 93 88 78 100 94 86 77 98 84 70 85 97 96 97 99 88 70 71 68 77 77 49 47 48 54 58 64 64 67 72 73 70 69 68 70
7 9 9 8 7 7 7 10 38 74 98 100 100 100 99 92 89 85 71 87 88 88 97 99 92 92 99 93 91 77 90 99 100 98 81 81 71 78 90 67 54 49 52 63 67 68 68 72 75 74 74 74 71 68
10 9 9 8 7 8 8 10 18 52 95 100 99 99 96 83 88 92 94 97 95 95 97 94 95 98 100 93 85 83 90 100 86 97 87 84 86 91 75 66 62 64 64 68 72 73 76 74 73 74 76 75 76 73
11 11 10 11 15 15 14 16 19 62 100 100 100 92 94 93 93 90 98 99 99 99 99 94 83 98 99 97 99 94 99 99 100 98 95 98 96 70 70 69 71 70 70 73 78 79 78 78 75 73 80 85 84 82
14 13 18 32 51 50 37 35 47 92 100 99 96 82 95 100 99 99 98 99 99 99 98 95 95 98 98 100 100 99 100 99 99 100 98 99 94 83 83 80 80 79 77 78 77 80 80 81 82 84 87 92 95 97
18 27 44 62 90 98 82 77 94 100 99 94 87 94 100 99 99 100 99 96 99 93 98 98 98 99 99 100 97 97 100 99 99 99 98 90 77 89 89 90 87 85 86 86 85 85 89 97 99 100 99 99 100 99
20 38 54 68 95 91 79 79 99 100 99 98 96 99 99 99 99 99 96 99 99 94 87 92 100 99 99 98 94 99 93 99 98 96 92 90 92 89 90 90 88 86 92 97 100 100 99 99 99 100 100 100 99 91
42 54 62 75 95 85 82 99 100 98 98 96 94 98 98 99 98 92 96 100 99 94 99 97 99 98 95 100 95 98 99 99 100 99 89 87 86 88 86 81 98 100 99 99 98 97 96 92 94 96 97 96 98 100
72 76 94 82 100 93 99 100 99 99 96 91 97 96 98 90 99 99 99 98 99 99 100 99 100 99 100 100 94 99 99 97 84 82 95 85 81 82 76 83 99 88 84 70 59 51 46 50 63 71 74 77 80 80
93 100 97 89 98 100 99 99 100 98 97 99 99 99 90 98 97 100 100 99 100 100 100 99 100 100 100 99 98 93 91 82 87 100 86 81 82 76 73 82 81 59 42 35 32 28 23 21 26 35 42 49 56 67
98 100 97 100 99 100 100 100 97 95 89 98 96 99 96 99 98 100 100 100 100 100 100 100 99 99 99 97 94 88 91 94 97 78 76 79 75 68 68 66 53 42 39 40 38 31 21 14 13 17 22 22 25 40
100 99 100 98 97 100 98 97 96 84 86 89 95 88 90 93 99 99 100 99 99 100 100 100 100 99 96 90 86 92 85 84 70 75 76 77 73 64 55 50 49 48 47 48 44 30 15 12 14 16 16 17 18 18
99 99 100 100 99 88 94 97 92 86 80 89 87 88 91 96 99 96 99 100 98 99 100 100 99 98 94 90 98 94 82 83 77 72 72 74 71 64 59 64 64 58 55 53 50 39 18 13 15 18 21 24 24 25
99 99 99 98 94 90 93 91 83 94 95 96 98 97 96 97 100 94 93 96 96 97 99 98 90 81 89 80 76 78 78 77 78 74 72 70 69 68 67 71 70 65 61 58 55 31 14 15 18 22 26 29 31 33
97 99 98 96 94 83 88 100 100 96 98 97 95 98 92 100 98 98 98 98 93 95 97 86 84 77 76 70 68 75 76 75 77 79 76 73 72 72 73 74 69 68 68 64 52 21 13 16 17 19 23 28 33 37
99 99 98 94 84 85 88 97 98 99 99 95 97 99 92 90 92 98 98 100 97 85 73 65 54 48 54 58 58 55 53 53 57 68 75 77 75 75 74 72 72 74 75 72 38 14 15 17 19 20 20 24 32 37
96 96 89 81 71 74 98 94 96 99 92 93 96 94 97 97 95 92 99 93 88 71 66 64 61 63 62 52 48 54 59 58 55 52 60 72 80 80 79 79 79 74 63 48 20 15 18 20 20 21 22 23 30 36
92 94 87 79 69 90 84 84 82 88 91 95 95 95 96 98 91 98 97 89 77 76 72 60 45 30 24 25 27 28 35 54 59 59 58 69 81 84 82 78 71 48 29 18 15 18 20 21 23 24 25 26 35 40
84 93 92 100 83 83 92 94 92 92 89 94 90 94 96 85 97 97 96 78 45 34 20 25 29 31 32 31 33 40 44 52 53 58 63 70 82 89 86 83 64 38 20 17 17 19 22 24 26 27 28 31 39 44
98 99 94 93 97 90 94 92 94 91 91 93 93 92 89 97 94 88 88 42 22 14 20 22 22 22 27 28 29 30 36 41 44 43 50 63 72 80 82 80 59 29 18 16 19 21 26 30 32 31 31 35 43 49
98 96 100 89 86 77 80 69 65 86 90 87 96 98 94 87 85 73 42 26 16 22 29 36 38 36 36 36 34 34 34 31 31 37 44 51 63 68 69 64 47 25 18 18 21 25 29 35 37 34 35 41 50 57
95 93 95 92 84 81 89 88 85 81 87 69 77 95 90 82 77 44 26 18 25 32 39 40 40 35 30 26 25 32 39 41 41 37 33 35 36 38 41 40 34 25 19 19 20 23 28 39 39 37 42 50 56 63
97 92 84 97 88 87 79 84 83 61 56 58 89 88 79 50 42 37 36 38 40 40 38 31 24 21 19 16 19 24 30 38 42 40 40 41 39 33 34 38 37 28 21 20 23 26 38 45 42 43 51 58 61 66
97 93 90 95 94 91 77 70 66 60 56 53 52 50 47 41 34 32 31 28 27 25 22 21 18 16 14 15 16 23 30 33 37 42 44 44 44 45 44 45 47 42 38 37 39 52 58 49 46 56 68 74 79 86
92 90 89 91 92 77 68 62 59 59 62 61 58 60 53 50 44 38 32 26 24 23 24 22 19 17 18 19 24 32 35 36 35 42 48 50 50 49 47 48 60 68 67 68 69 62 50 55 66 74 81 86 87 92
94 97 96 100 85 71 66 62 62 64 62 61 59 58 61 64 61 47 37 34 34 32 29 29 28 26 29 35 39 41 44 45 49 53 56 56 56 54 53 54 58 67 68 56 50 58 69 76 82 86 90 90 92 93
98 99 98 95 88 84 78 70 75 82 85 86 69 63 66 66 64 47 43 42 37 34 37 38 37 37 40 44 47 49 50 52 55 57 54 52 55 55 52 48 46 50 58 66 73 78 82 87 89 92 95 94 92 93

GFSWCAN_850_rhum_069.txt.gz
RH
46 52 54 46 25 20 47 66 84 90 95 95 83 83 79 80 79 77 83 90 95 92 79 71 65 65 66 62 88 96 96 94 91 94 96 91 73 64 62 61 77 78 72 94 88 93 92 55 52 70 66 59 58 58
32 41 39 16 11 21 54 80 79 86 87 99 85 81 80 80 83 81 93 98 100 100 87 82 74 75 68 75 79 83 98 99 92 86 84 75 72 73 71 78 56 72 67 67 71 70 48 50 53 59 59 61 60 61
16 11 10 11 8 8 15 23 77 69 98 99 85 89 92 85 90 92 93 98 99 99 96 85 59 60 57 54 59 75 61 54 100 100 99 88 73 76 83 75 56 54 50 60 56 50 48 43 52 55 58 60 59 58
4 4 5 6 10 13 15 15 36 62 56 94 89 86 87 96 96 97 96 98 100 99 99 68 55 60 55 58 62 59 59 62 80 96 98 91 82 60 75 63 63 61 57 61 63 54 48 46 44 51 62 63 62 63
4 5 5 5 6 10 13 20 36 66 74 90 98 98 94 100 99 98 91 84 91 99 95 84 84 55 68 69 70 71 74 72 90 92 100 94 73 63 71 75 81 63 69 72 76 53 54 65 58 49 61 68 70 71
5 6 6 6 5 5 5 6 7 14 52 77 70 100 100 100 100 95 84 85 80 97 98 97 72 58 66 70 61 69 71 88 97 96 95 88 68 61 82 89 61 44 46 49 55 56 59 68 71 70 69 71 72 67
7 6 6 7 7 7 6 6 5 6 28 78 88 100 100 100 100 92 79 87 88 84 89 94 94 62 79 82 80 80 81 92 87 90 97 90 92 76 87 86 52 45 46 51 56 59 68 66 64 67 68 68 67 66
7 6 8 8 8 7 6 6 6 8 14 59 99 100 100 100 100 98 81 95 98 99 97 99 94 84 92 86 80 81 93 97 89 85 90 90 87 88 98 81 57 50 48 54 56 55 56 68 76 77 75 74 73 71
8 8 8 8 8 7 6 10 10 11 16 57 97 100 100 99 94 77 84 95 95 96 99 99 100 95 99 99 98 77 81 95 85 96 90 91 97 96 86 74 65 64 58 60 65 66 69 73 77 77 76 75 74 74
8 10 10 8 8 9 18 29 17 23 55 88 100 99 98 93 85 98 97 100 99 99 98 97 78 98 88 99 99 93 93 100 98 89 93 98 98 72 67 68 66 66 69 68 71 78 78 80 77 76 77 78 80 82
10 10 9 8 13 34 71 70 47 78 99 100 99 98 99 98 99 97 98 99 99 98 98 92 86 92 90 100 100 99 100 97 99 98 91 99 96 88 77 77 78 76 76 77 77 76 76 80 82 80 79 85 89 93
10 9 11 13 41 72 98 83 72 88 99 95 99 99 99 99 99 100 96 96 97 89 91 97 97 99 99 100 99 99 100 99 99 99 100 98 85 88 88 88 86 84 82 80 83 82 83 85 88 95 99 98 99 100
9 13 26 42 55 81 99 90 94 99 99 98 98 98 99 99 98 98 95 98 98 99 99 100 100 100 100 100 99 99 97 99 98 98 90 84 90 90 90 91 90 90 85 85 93 98 100 100 100 100 100 100 100 99
14 29 52 61 60 78 93 94 93 92 100 90 98 98 98 96 91 91 93 99 99 100 100 100 100 96 100 100 98 99 99 98 99 99 93 84 84 88 90 89 86 98 100 100 100 100 100 100 100 99 95 85 84 92
43 70 99 76 77 96 94 97 100 100 99 94 98 95 98 84 98 98 99 100 99 99 99 100 100 100 100 100 99 99 98 98 92 87 93 83 79 85 86 86 100 99 100 95 63 52 46 50 59 62 60 63 65 72
88 100 98 79 79 96 100 100 100 100 98 90 98 99 94 97 92 99 100 99 99 100 99 100 100 100 100 100 98 98 97 91 85 98 91 82 81 83 77 95 96 90 57 39 34 30 26 21 24 28 33 35 34 44
100 100 100 91 93 100 95 100 98 98 94 99 98 99 100 98 95 94 99 99 100 100 100 100 99 97 99 99 98 98 98 95 100 88 83 84 81 75 76 92 71 49 39 41 43 41 32 20 14 16 16 15 14 16
100 100 98 100 100 100 99 98 97 97 97 90 94 77 85 88 94 97 99 99 100 100 100 99 100 99 98 98 95 94 100 94 78 77 82 80 76 69 70 67 52 44 46 51 54 48 40 18 13 14 15 17 19 20
90 99 100 99 100 97 97 97 98 93 78 86 77 89 91 90 94 98 99 98 100 100 99 99 99 99 98 100 100 96 87 88 85 75 75 78 76 67 56 51 53 54 53 54 55 55 48 23 13 14 17 19 22 24
99 100 100 100 99 94 94 95 88 82 86 85 92 94 92 91 97 100 99 100 100 98 100 99 95 88 94 99 93 84 78 78 78 78 74 73 73 73 68 63 67 69 64 62 60 61 48 18 14 16 19 21 24 28
100 100 99 98 95 94 92 99 100 95 93 96 92 87 88 97 99 98 97 99 100 100 99 86 85 80 84 85 70 60 58 64 72 77 78 75 74 73 72 74 76 78 73 68 67 66 44 15 15 16 16 18 22 28
99 98 98 98 97 90 88 100 98 100 94 96 97 95 95 93 92 94 98 100 98 86 76 68 62 60 57 56 60 61 61 61 59 56 58 66 72 76 75 76 78 76 73 74 76 72 28 14 17 18 19 19 20 24
97 97 96 96 86 81 98 99 97 99 91 94 100 96 98 100 96 94 100 93 88 79 76 75 67 66 68 51 32 26 26 33 53 64 63 58 60 70 79 82 81 80 80 78 74 54 19 17 19 19 20 21 22 24
94 96 96 91 78 90 95 80 85 87 92 98 100 100 99 97 92 99 98 82 70 64 57 63 50 36 31 31 30 29 29 30 34 48 59 63 61 62 74 81 81 79 76 54 36 23 16 19 20 21 24 25 26 27
96 96 95 98 80 82 92 95 97 93 90 98 96 96 94 86 97 100 96 80 59 50 42 50 59 56 37 27 28 29 30 36 42 44 52 57 62 67 77 87 86 83 70 45 24 16 18 20 22 26 29 30 29 31
96 99 92 95 98 86 91 92 97 92 96 95 96 93 92 97 95 83 87 49 44 18 24 28 32 34 34 34 33 34 37 37 34 30 30 36 46 56 66 81 83 80 67 37 20 17 18 21 26 31 34 34 34 34
98 98 98 88 84 76 80 73 72 87 93 85 98 99 95 84 87 71 46 26 18 29 36 39 39 38 34 28 23 21 20 22 34 40 40 34 33 41 51 56 55 59 56 32 18 18 19 23 25 28 35 38 37 39
95 94 92 88 84 82 88 92 89 84 88 80 80 94 86 80 73 47 35 25 19 27 39 39 37 33 27 22 20 19 22 25 26 28 32 37 39 39 38 35 37 43 42 34 24 20 20 22 24 26 35 43 42 44
95 90 86 97 91 90 78 83 81 64 61 62 84 87 78 51 43 37 35 35 36 35 32 30 25 24 24 20 18 17 21 26 32 33 33 27 26 29 37 42 42 42 42 44 36 26 24 25 28 32 47 51 47 52
94 94 88 98 93 85 81 71 67 60 58 54 52 50 44 32 24 24 25 23 22 19 17 17 18 20 19 19 19 19 21 25 30 36 36 34 35 34 43 47 48 50 51 50 42 35 35 38 44 60 62 52 57 68
93 88 84 91 86 74 71 62 57 54 55 49 47 56 47 46 39 27 27 24 26 27 28 25 22 21 23 23 24 26 27 28 33 37 39 38 42 49 52 53 52 51 54 60 62 61 64 74 76 63 62 73 82 86
91 93 91 88 74 74 70 66 61 59 59 59 52 51 56 58 57 39 35 34 34 33 30 30 30 32 34 37 37 36 35 38 43 46 47 47 47 54 58 58 55 55 58 66 78 79 69 60 66 77 81 81 82 84
98 94 95 88 82 79 72 64 68 75 79 82 71 65 71 67 63 44 38 35 36 35 35 36 37 36 36 38 39 42 44 47 50 52 52 53 56 57 56 56 56 54 52 52 58 67 76 79 77 79 83 85 87 90

GFSWCAN_850_rhum_072.txt.gz
RH
93 87 90 81 55 58 95 86 61 42 52 86 96 91 89 81 77 78 82 88 96 95 86 79 76 68 66 70 87 62 55 95 97 99 96 96 95 73 72 69 82 89 91 95 92 97 93 54 55 72 64 62 61 55
87 84 81 68 34 30 56 79 63 34 40 81 99 82 89 89 79 88 92 93 98 100 95 94 90 89 79 78 80 74 72 89 100 100 96 85 80 79 76 82 65 72 66 76 78 76 49 50 50 47 58 60 60 59
90 73 67 32 18 15 25 59 35 26 55 64 91 89 84 85 82 93 96 96 100 99 98 98 62 61 62 51 61 85 74 69 75 90 98 97 79 77 87 83 67 58 56 63 60 50 50 44 47 59 60 60 59 60
72 56 29 27 15 14 16 15 16 18 34 77 64 90 91 97 83 93 94 93 100 98 99 84 61 59 58 63 59 67 63 76 79 92 96 96 98 64 77 61 66 61 60 64 66 57 52 47 44 49 57 60 60 59
30 24 20 7 9 13 11 11 18 24 19 50 87 86 79 100 94 99 98 92 94 98 99 88 86 64 63 62 64 71 77 82 90 88 94 87 98 84 76 78 81 67 71 70 71 50 51 48 48 47 59 61 63 63
12 8 6 6 7 6 5 5 6 6 7 24 54 88 86 98 100 100 95 83 72 96 99 97 66 56 58 86 77 68 72 85 93 98 90 88 64 97 89 86 61 51 51 48 52 53 55 59 60 58 60 65 70 72
8 6 6 6 6 7 7 7 6 6 6 8 15 78 91 100 100 99 90 85 90 93 98 96 90 57 60 82 90 73 71 87 87 95 88 86 77 96 99 89 54 49 47 46 48 57 68 65 62 66 70 72 72 69
6 7 7 7 8 8 7 6 6 7 8 9 9 41 84 100 99 99 99 98 100 98 98 94 92 78 92 94 80 89 97 98 99 88 75 88 77 90 97 87 55 49 49 55 56 61 56 56 64 66 70 73 74 73
9 8 10 10 8 8 8 8 12 14 12 10 45 99 99 100 99 93 88 91 98 99 97 96 99 94 94 99 98 89 87 98 79 96 81 77 88 99 92 80 71 61 58 54 66 68 66 68 74 77 78 77 75 74
11 12 12 10 10 9 10 20 39 27 19 58 72 88 88 91 96 96 99 99 100 99 98 98 85 96 76 80 99 93 96 97 97 81 82 97 96 78 68 72 70 67 64 63 72 80 76 74 75 77 77 74 72 73
14 10 10 11 11 15 31 62 65 45 64 98 88 97 99 100 99 99 98 96 95 99 98 97 93 85 79 96 100 99 99 99 98 96 100 99 97 90 86 80 77 73 73 72 71 72 72 73 73 74 75 76 75 81
9 10 12 12 18 27 53 83 83 83 83 85 82 99 99 99 99 99 97 95 97 92 82 96 98 98 97 99 99 99 100 100 99 97 96 96 84 89 88 87 86 83 81 79 78 78 80 80 82 83 85 93 96 97
9 13 14 21 32 35 72 88 90 83 90 95 96 99 99 99 98 100 97 97 100 90 97 100 100 100 100 100 99 100 99 99 97 100 93 88 89 90 92 93 92 91 90 87 87 88 90 94 97 99 100 100 99 100
13 16 23 30 38 51 79 98 98 96 96 85 98 99 97 99 96 93 92 98 99 99 99 100 100 98 100 100 100 99 100 98 98 99 96 83 86 88 93 95 98 100 100 100 100 100 100 100 100 100 100 100 97 87
17 23 43 46 69 61 75 100 100 97 84 87 98 97 98 78 85 94 92 98 96 93 99 99 100 100 100 100 100 99 98 98 97 96 94 95 86 87 90 92 100 100 100 98 92 77 63 50 58 59 59 55 52 54
25 65 58 69 88 93 97 100 98 100 98 98 99 99 99 97 93 98 99 99 99 100 99 100 100 99 99 99 98 98 98 97 98 99 98 91 86 88 86 99 100 100 90 51 41 34 30 27 28 29 29 25 20 25
86 99 77 88 91 95 99 100 100 98 98 99 99 100 97 97 91 99 99 99 99 99 99 100 99 97 99 98 98 98 98 99 99 97 92 86 84 82 78 99 99 63 41 40 42 42 38 28 19 18 17 15 16 17
98 96 97 100 100 100 100 100 99 98 98 95 98 78 97 90 92 100 100 96 95 99 100 99 100 100 97 98 98 99 99 95 88 82 84 83 80 75 74 88 75 52 42 48 52 46 46 32 20 16 16 18 21 24
99 100 100 99 98 98 98 98 98 97 88 88 82 93 90 87 94 96 91 92 100 100 99 99 99 98 98 99 98 100 91 85 85 80 74 77 76 71 68 70 61 48 48 51 54 55 57 50 24 15 17 20 22 25
98 100 99 100 100 90 92 97 97 89 87 81 90 92 86 89 93 86 86 98 98 99 100 98 96 88 90 91 91 92 83 81 75 75 74 73 73 74 70 59 56 62 64 62 61 61 63 59 27 14 16 18 20 24
99 99 100 99 98 96 95 97 100 98 95 94 95 89 92 92 96 99 96 94 100 99 98 88 81 80 90 99 92 58 54 58 58 63 73 75 76 75 74 74 75 73 73 76 74 68 69 66 26 14 15 17 18 20
100 99 98 99 97 97 96 97 98 99 94 96 94 95 95 96 94 91 96 97 93 95 79 65 59 65 80 82 64 59 58 58 60 62 62 60 58 62 70 76 79 76 78 79 78 74 76 70 23 15 17 19 20 21
98 98 98 97 96 96 96 98 97 96 96 98 96 94 96 98 96 96 100 97 93 74 68 72 73 72 70 67 61 41 27 22 20 23 35 58 63 60 56 61 75 83 82 79 80 81 80 62 21 16 18 19 22 23
98 97 97 94 87 96 98 89 92 94 98 98 100 100 100 99 98 99 99 82 67 65 58 66 62 56 41 31 30 30 31 34 35 33 33 46 55 59 62 61 66 74 81 82 78 68 50 32 18 18 19 22 26 28
97 96 97 97 90 85 95 92 93 88 89 99 98 95 92 92 98 100 99 75 60 53 42 57 62 64 42 35 34 33 34 35 33 32 36 37 46 52 57 60 67 78 83 83 77 54 26 17 17 19 22 28 32 32
94 97 89 88 92 84 88 88 93 90 92 98 97 95 95 99 100 87 86 56 56 56 41 32 54 39 33 29 25 23 23 25 28 36 38 36 33 36 44 52 57 67 80 79 70 44 22 17 17 19 23 29 34 36
99 99 95 88 83 79 81 78 78 85 94 85 96 100 96 89 88 71 47 45 38 31 30 36 38 37 35 32 26 23 21 21 23 22 24 30 39 40 38 37 35 49 62 62 58 34 20 17 18 21 25 28 28 36
95 96 92 90 84 80 86 90 88 85 85 78 81 90 86 78 72 47 33 28 22 25 37 40 40 39 37 33 29 24 22 21 20 21 20 20 21 24 30 39 40 41 42 48 52 47 34 24 20 21 24 26 29 35
94 90 81 96 93 89 77 82 79 61 63 65 83 84 73 48 40 34 26 23 22 25 28 30 31 30 26 26 26 23 25 26 28 26 24 20 16 18 27 28 30 37 42 43 48 52 51 43 36 31 31 31 33 47
98 93 88 98 89 87 79 73 69 58 57 56 52 46 39 24 20 20 21 22 23 22 21 25 27 28 28 31 29 26 27 29 30 30 30 28 30 30 28 30 37 46 50 51 51 52 51 49 42 38 39 47 67 70
95 88 82 88 79 76 75 70 63 58 57 50 47 52 43 44 28 20 20 20 25 27 30 30 32 34 37 37 36 34 31 30 32 32 32 36 43 44 44 43 48 53 55 55 54 58 62 60 60 66 78 80 72 74
90 90 80 68 70 69 63 62 59 56 56 53 49 50 50 52 51 35 28 30 32 34 36 37 36 36 38 39 38 39 39 39 40 40 40 42 45 48 49 52 55 58 61 58 60 66 75 82 84 75 69 77 82 81
92 91 88 80 72 71 68 63 68 76 75 76 69 62 61 61 58 39 36 39 40 42 43 44 44 44 43 43 43 43 44 43 44 45 47 48 50 53 55 56 59 60 60 64 67 64 61 68 76 78 76 78 83 86

GFSWCAN_850_rhum_075.txt.gz
RH
97 100 99 96 87 86 80 77 75 26 20 30 42 45 80 87 82 78 77 80 88 93 87 95 81 75 70 72 84 67 67 77 92 100 99 98 93 78 79 75 87 91 92 96 92 95 91 51 60 69 61 63 63 58
92 99 100 98 93 85 66 86 61 14 23 26 32 55 76 81 89 79 76 85 96 100 92 92 93 91 93 86 97 87 73 85 97 94 94 97 99 83 80 86 71 80 76 90 82 77 51 49 55 50 51 60 62 62
98 94 100 100 96 68 73 94 50 64 17 9 31 59 89 87 83 86 74 89 100 100 95 92 62 61 67 68 68 96 81 77 83 82 97 94 99 89 86 83 73 63 58 67 65 53 56 44 45 52 59 61 61 60
90 98 100 100 80 91 95 84 85 77 12 16 19 82 89 94 96 99 86 98 100 99 99 79 70 67 70 62 60 61 68 82 87 96 98 99 94 93 97 71 68 67 63 67 69 59 54 49 43 41 54 62 61 59
95 93 96 88 95 93 61 25 76 21 18 22 29 72 86 88 98 99 98 99 100 100 97 93 80 65 54 64 62 75 78 88 95 93 97 94 92 93 96 92 84 66 70 70 73 49 47 44 42 44 47 57 62 61
97 97 76 60 51 28 29 31 20 11 12 13 19 27 61 86 100 100 99 92 73 86 100 97 70 57 56 67 89 90 82 94 97 96 88 72 68 95 93 100 63 54 47 40 48 43 46 53 52 54 49 57 64 67
88 74 59 34 18 26 17 11 7 8 6 5 6 8 37 96 89 99 99 88 80 97 98 94 90 56 54 69 97 80 93 93 89 84 89 75 74 98 99 99 66 57 56 50 51 51 64 63 57 55 57 59 63 69
58 28 19 14 16 15 9 8 7 7 6 7 8 9 48 91 100 100 99 98 100 98 97 92 89 79 83 98 90 96 96 91 91 92 91 83 70 80 95 68 46 57 60 54 51 55 54 55 63 67 70 73 74 72
20 16 16 14 13 11 9 8 8 9 11 10 9 24 90 98 100 99 99 97 100 99 96 93 98 92 76 93 99 99 98 98 86 98 87 70 81 97 82 71 66 61 74 57 58 67 63 59 63 66 69 73 74 75
16 16 17 15 12 9 9 12 20 22 21 23 59 66 97 97 100 95 100 99 99 99 99 92 83 97 67 78 90 97 98 96 97 85 76 85 89 58 42 81 82 74 70 66 71 78 72 71 70 72 75 76 76 74
21 20 18 16 11 11 22 30 37 41 60 83 75 94 99 98 100 100 98 94 98 100 94 93 96 95 95 97 97 99 99 99 98 97 92 98 96 91 85 76 79 75 74 73 72 70 70 70 73 77 81 80 80 76
19 16 16 14 15 20 43 51 62 66 57 68 80 98 100 99 99 96 96 93 98 93 78 95 97 98 97 99 99 99 99 100 99 90 98 98 96 94 90 86 84 83 83 81 82 79 78 78 80 82 82 83 86 91
17 17 18 18 21 33 50 89 83 67 68 81 84 98 99 98 96 92 93 94 96 86 84 100 98 99 100 100 98 100 100 99 99 100 98 98 87 93 93 91 90 89 86 85 85 86 86 87 89 93 95 97 99 98
22 25 22 21 25 38 57 86 83 81 86 90 98 98 94 89 84 92 91 90 86 99 99 100 97 93 99 98 100 100 100 99 98 97 95 98 94 91 93 95 95 97 96 95 94 96 98 99 99 99 99 99 98 98
24 22 23 19 32 50 86 85 99 86 70 84 100 98 99 77 80 93 82 96 98 99 100 98 100 98 95 99 100 99 97 97 96 97 98 100 92 92 95 100 100 99 99 99 97 97 96 88 73 64 52 43 38 37
22 28 31 48 46 80 87 100 100 99 90 95 99 99 97 100 88 94 99 99 93 99 99 100 99 98 95 98 98 98 98 96 99 99 99 99 90 93 97 100 100 100 98 73 49 39 35 33 32 31 30 26 18 18
60 92 32 52 77 88 98 99 99 97 97 100 100 98 99 94 93 88 90 90 99 99 95 97 96 98 98 97 98 98 98 97 100 100 88 92 91 98 91 100 100 96 50 42 44 46 42 36 26 22 18 15 15 16
84 84 90 89 96 100 100 100 98 99 99 100 97 87 100 94 92 99 98 99 100 100 99 94 100 95 99 98 96 97 98 95 98 82 78 86 86 81 79 98 98 61 43 47 53 51 51 50 38 21 15 15 18 21
89 99 100 100 97 98 99 98 99 97 95 89 91 90 90 88 90 92 93 100 100 100 100 99 97 97 94 91 90 100 100 99 99 94 80 77 80 75 74 80 82 64 46 47 52 55 57 60 55 27 15 16 18 20
95 97 100 100 100 98 98 98 98 94 89 84 84 88 84 86 90 94 93 98 100 98 99 98 95 87 86 91 99 94 92 90 91 90 71 81 76 77 75 66 62 57 54 56 57 58 61 62 65 41 17 16 17 18
98 100 100 99 98 98 96 98 100 99 92 90 96 92 88 94 88 96 100 99 98 97 97 96 86 78 81 91 100 99 79 59 59 61 61 55 61 73 76 76 76 73 69 70 72 74 73 70 70 58 19 16 18 18
99 100 99 99 98 97 94 94 94 98 96 97 93 93 96 96 93 90 97 98 91 89 88 69 63 62 60 75 88 82 65 59 57 53 50 49 54 58 59 63 74 76 79 79 82 83 82 75 77 73 22 17 19 20
99 99 98 98 96 97 96 98 96 97 94 95 96 97 96 97 95 96 99 95 89 72 65 71 72 74 75 74 70 61 52 45 30 24 23 24 25 34 58 62 60 58 61 71 84 83 80 80 81 75 27 18 20 20
98 98 97 96 96 96 97 96 96 95 96 96 97 100 100 98 99 100 100 82 67 66 67 67 72 65 64 58 35 29 31 31 33 35 38 38 40 47 58 60 63 63 63 67 76 82 81 79 70 55 23 19 20 23
97 96 97 96 97 93 95 98 95 94 95 95 96 94 93 98 96 100 100 74 68 54 39 39 45 40 38 35 29 23 22 22 20 28 35 36 33 34 43 52 55 59 68 74 79 82 80 63 38 23 18 18 20 27
94 96 90 90 91 86 91 91 93 91 87 93 94 90 96 96 94 81 84 56 51 52 55 57 58 66 56 29 26 24 23 21 20 19 23 25 32 39 38 35 34 45 59 66 76 81 79 58 29 18 17 18 22 27
98 100 94 85 80 78 85 84 81 84 89 85 93 98 94 85 86 69 47 44 46 47 44 35 26 38 36 34 36 36 34 28 24 23 20 19 20 22 22 27 32 40 43 47 57 62 60 42 26 20 19 20 23 28
95 95 91 89 91 95 92 86 87 84 82 74 81 88 81 74 69 41 28 26 24 22 27 30 34 38 39 40 40 38 36 34 30 25 22 21 19 18 19 21 22 28 37 40 42 45 51 56 52 32 23 21 23 26
93 88 80 95 94 87 75 78 75 58 61 62 82 84 70 43 35 27 24 25 24 23 23 23 25 33 33 31 31 31 33 36 37 33 28 23 20 18 22 23 25 30 33 34 39 44 47 53 59 61 55 47 39 36
95 90 88 96 89 88 77 75 75 64 62 59 55 49 39 25 18 18 19 20 20 20 24 27 30 32 34 34 33 33 34 34 35 36 32 26 25 25 25 28 34 36 40 42 48 52 53 53 55 55 56 50 44 44
94 88 79 83 82 82 77 69 64 58 59 55 54 54 47 42 28 22 19 21 25 30 33 35 37 38 38 38 40 40 38 38 37 38 39 39 38 36 36 39 44 46 46 47 52 56 58 58 61 64 61 62 74 78
86 84 72 72 74 69 64 63 62 59 60 53 48 50 51 49 46 33 25 26 30 36 38 41 43 45 45 45 45 45 44 43 42 42 41 42 42 42 43 46 49 50 52 55 57 60 62 63 69 78 84 78 71 73
86 84 80 70 66 67 62 56 62 69 71 72 69 62 60 62 56 40 37 39 47 54 59 63 65 62 53 49 50 54 60 60 57 51 50 48 46 46 47 50 54 58 60 62 64 66 69 72 68 66 72 73 74 78

GFSWCAN_850_rhum_078.txt.gz
RH
96 100 97 96 80 79 85 83 76 53 50 28 17 26 36 48 73 72 72 73 74 81 86 82 75 80 79 78 79 74 78 84 93 97 100 94 98 88 81 79 90 86 96 97 97 97 91 53 65 70 59 61 64 66
99 100 99 92 83 80 91 85 78 56 52 28 34 30 42 60 66 82 78 82 92 90 83 90 76 66 73 90 88 88 83 85 84 94 94 95 98 99 84 88 76 83 78 91 82 76 51 52 56 51 53 58 63 64
100 100 98 87 84 89 91 80 73 56 25 26 48 52 70 73 87 89 83 94 98 100 88 79 52 61 64 65 81 98 87 73 81 96 100 93 96 98 98 86 77 68 64 70 69 55 62 49 45 44 51 60 64 62
97 100 88 97 96 97 86 84 91 53 25 29 47 86 90 88 88 92 78 97 100 99 99 73 71 78 73 72 72 80 79 84 82 93 97 96 97 94 96 97 98 72 65 70 70 60 55 50 46 40 43 59 64 62
100 95 90 97 100 99 95 99 98 94 87 78 94 93 93 86 96 100 100 80 99 99 98 88 74 64 59 60 68 73 78 86 96 97 99 94 83 90 92 96 95 69 70 71 70 49 46 42 39 42 46 49 59 62
100 94 98 86 100 100 100 99 98 98 88 76 86 93 68 87 98 100 88 98 99 100 99 96 82 63 65 68 72 88 87 95 99 96 93 75 63 85 100 98 84 66 63 62 54 45 43 46 48 50 50 51 60 63
94 99 92 100 100 98 97 92 35 37 27 38 27 20 30 62 75 100 80 80 93 95 94 95 89 61 54 76 94 95 92 99 95 93 91 81 82 99 97 92 66 54 56 56 56 57 58 52 56 56 55 59 68 68
96 88 100 99 95 91 58 28 23 12 14 14 9 14 46 76 93 100 99 91 99 98 93 92 92 73 82 97 97 100 95 99 98 93 96 96 75 77 94 74 51 43 41 48 55 60 64 57 61 62 64 67 71 74
99 90 97 92 76 46 24 14 11 13 15 10 14 16 72 98 94 90 94 99 99 94 90 96 100 94 72 83 96 100 99 98 90 98 94 90 87 95 73 61 56 58 74 67 61 65 68 63 66 69 72 73 74 74
93 77 71 38 24 17 13 14 17 18 13 14 39 86 100 100 99 95 100 99 99 99 98 87 80 93 91 81 91 93 98 98 98 87 91 96 88 54 47 61 68 77 78 78 75 71 71 70 69 75 76 78 79 79
56 31 22 18 14 14 17 20 19 24 38 77 66 96 98 99 98 98 99 97 99 97 90 87 92 95 90 96 96 98 98 98 98 97 95 97 97 95 86 65 56 60 71 81 76 70 68 70 71 76 78 79 78 77
23 21 20 17 16 18 21 27 37 50 50 55 65 97 99 98 98 93 95 94 97 94 81 93 87 97 95 98 98 97 99 99 97 97 97 97 100 100 99 96 92 86 87 84 80 77 76 76 76 81 84 84 83 83
28 20 18 21 20 21 44 48 60 62 64 68 81 88 90 97 99 94 93 86 91 87 79 99 97 97 100 99 98 100 100 99 99 98 98 100 100 99 99 100 99 95 91 89 87 85 85 84 84 86 90 94 98 98
23 24 20 22 27 27 37 74 72 67 70 75 96 99 96 97 83 94 91 88 75 97 96 99 93 96 91 99 98 100 99 98 98 97 95 98 100 99 99 100 100 100 99 96 96 98 98 98 100 100 100 100 99 97
22 19 19 28 36 60 98 85 74 77 71 79 94 96 98 79 78 90 82 93 95 98 95 92 98 100 100 99 99 99 97 96 97 97 98 99 100 97 99 100 100 100 100 100 100 100 100 100 99 98 87 79 48 37
49 37 30 43 44 44 92 99 94 90 77 78 97 99 95 99 95 95 96 98 93 91 93 100 99 99 98 99 98 97 97 96 98 99 99 97 96 96 99 100 100 100 99 86 65 50 43 40 39 35 31 25 16 15
57 48 45 54 55 85 97 99 99 97 90 100 100 100 97 92 93 89 90 94 93 96 93 96 98 98 99 98 99 96 96 95 100 99 85 90 97 100 100 100 100 90 65 45 45 48 45 42 34 28 20 16 16 18
51 42 32 56 88 100 100 100 95 100 99 99 98 87 99 99 97 94 96 91 97 91 97 98 100 99 93 99 95 94 98 99 99 98 88 81 84 84 88 99 100 86 54 52 65 53 48 54 52 40 22 14 16 19
55 77 95 87 93 98 98 97 98 98 94 96 96 94 93 91 96 97 100 99 98 98 97 99 98 93 90 88 88 85 99 100 100 100 100 93 81 78 74 78 99 100 74 48 48 54 56 59 62 61 40 18 15 16
88 95 100 92 95 98 99 98 95 99 97 87 87 90 92 92 96 100 100 100 99 98 98 98 90 89 84 82 93 98 93 95 80 67 78 94 94 90 78 76 70 72 70 59 52 54 58 62 63 67 64 34 17 16
100 99 99 99 99 99 95 96 100 97 88 84 92 90 91 100 98 96 92 99 93 92 97 86 85 61 79 83 93 98 100 96 60 58 60 56 55 56 58 65 76 79 75 66 65 69 72 75 74 71 74 56 19 16
99 100 99 99 98 97 96 96 91 97 94 96 98 94 95 96 94 96 100 100 93 82 82 72 66 60 64 73 74 85 85 77 66 60 56 40 30 26 26 42 62 61 68 76 80 80 82 85 86 78 77 68 31 17
100 100 99 98 97 97 96 98 96 99 96 97 97 93 94 91 94 97 98 92 83 71 64 64 68 72 71 74 75 70 64 57 42 33 32 33 35 32 26 25 36 60 64 62 68 74 80 87 86 83 82 82 43 18
98 98 98 96 96 96 96 96 98 95 98 98 99 100 100 100 100 100 100 84 69 64 66 66 72 77 74 68 67 55 34 32 32 31 32 33 34 38 41 45 50 54 59 62 64 65 72 83 86 85 77 72 42 20
98 97 97 96 97 94 96 98 100 97 98 99 97 95 95 100 99 100 100 75 66 63 57 42 41 37 33 34 35 30 23 19 18 17 18 18 23 25 34 39 39 40 47 52 59 73 82 85 83 74 54 35 24 19
94 96 93 93 96 87 96 97 98 97 96 97 95 93 93 96 96 85 84 56 53 50 47 44 53 60 62 44 26 26 27 29 31 29 26 21 19 18 17 17 19 29 38 42 48 60 72 81 82 73 49 25 19 19
97 99 94 85 81 79 89 87 86 94 96 90 94 96 96 93 87 70 46 42 44 50 50 46 43 35 44 56 36 35 39 40 40 39 35 30 25 21 20 20 17 20 22 29 41 43 47 55 58 56 38 26 20 20
92 94 95 88 92 94 95 97 96 93 86 73 81 92 86 78 67 42 28 27 27 24 24 26 32 30 28 33 38 40 42 41 40 36 32 29 26 25 20 20 20 20 20 22 26 34 38 41 44 52 58 56 42 29
92 87 83 100 96 96 91 83 79 60 59 66 84 82 70 41 36 31 28 27 23 21 20 20 21 25 26 31 35 36 35 32 31 30 29 27 25 24 28 26 26 26 27 30 33 35 37 40 46 49 52 60 68 67
89 85 87 96 92 91 78 73 74 68 67 66 60 52 42 28 23 23 22 19 21 23 26 30 32 34 37 38 38 36 37 38 38 38 37 34 36 38 35 33 34 36 36 41 44 45 45 46 53 56 58 60 60 57
92 84 76 78 80 87 80 71 66 61 61 58 56 56 49 41 28 20 22 28 30 32 35 37 39 41 43 47 49 49 46 44 44 44 44 42 41 40 40 41 39 37 38 43 48 50 52 53 56 60 64 65 64 67
91 87 76 81 79 74 69 64 64 63 62 59 57 53 51 47 42 32 33 35 38 40 42 53 58 57 56 52 55 64 64 56 50 50 50 49 47 46 46 46 46 46 47 49 52 54 56 60 64 67 70 76 80 71
81 78 79 69 69 72 63 58 63 67 68 69 71 72 66 60 52 38 41 39 42 52 61 64 58 47 43 41 42 53 69 67 66 67 68 67 65 60 55 52 52 54 54 55 57 61 63 65 69 75 75 71 72 72

GFSWCAN_850_rhum_081.txt.gz
RH
98 100 97 99 99 95 79 69 70 71 67 55 30 25 36 35 45 33 40 50 61 70 71 67 72 80 81 84 88 78 76 84 87 91 97 96 96 93 91 79 90 85 94 97 97 97 90 55 65 67 58 60 63 67
95 100 100 100 100 93 75 76 75 79 75 49 19 26 36 43 52 56 52 58 67 74 67 84 70 66 73 90 91 95 83 87 84 94 96 96 93 96 98 96 85 90 79 89 81 74 53 54 50 46 54 55 62 65
100 100 100 100 100 90 88 78 77 81 58 48 21 22 33 62 72 67 74 82 79 88 92 70 58 69 72 71 83 94 92 75 80 88 97 95 100 98 94 97 97 93 68 79 72 57 64 48 45 45 48 50 58 64
99 100 100 100 96 90 84 84 83 82 65 39 20 23 44 84 86 91 82 86 92 98 98 67 67 76 65 68 73 75 84 80 84 87 93 98 93 90 96 97 90 79 76 73 74 59 52 51 45 40 41 44 59 64
99 100 100 100 100 90 92 88 88 84 68 18 20 62 87 88 89 98 98 99 96 99 94 88 79 65 59 60 65 77 88 98 97 97 97 94 84 87 88 91 92 76 75 74 74 52 51 42 39 41 44 45 55 63
99 100 100 100 99 96 97 97 81 77 52 54 88 91 86 86 98 100 87 88 98 80 96 96 85 70 68 60 67 70 78 99 99 96 94 83 66 70 95 93 72 67 62 60 60 58 54 45 54 48 51 51 60 65
100 100 100 98 98 100 100 92 82 96 100 99 93 89 81 84 99 93 78 74 88 94 95 98 88 64 61 85 92 92 97 99 98 97 98 85 81 78 98 94 59 64 64 68 63 60 65 52 56 60 57 55 63 69
100 100 100 98 100 100 97 93 92 98 98 92 90 82 85 100 98 98 96 100 84 84 98 94 93 68 81 97 96 99 98 98 97 91 97 99 83 85 91 70 57 45 44 40 66 68 70 64 63 67 64 67 72 74
99 100 97 100 100 95 92 70 96 86 64 46 15 39 98 96 92 92 99 100 93 89 88 91 99 92 69 78 98 99 99 99 83 97 96 92 87 94 73 66 60 56 50 69 70 76 75 67 69 74 75 77 78 78
100 100 93 97 99 83 50 73 71 42 16 16 47 73 100 100 92 100 100 99 97 99 96 89 84 95 83 86 92 90 99 98 99 90 94 97 88 66 62 56 56 61 65 85 85 86 80 72 70 76 77 76 77 77
100 100 100 100 85 46 63 34 15 17 18 34 76 96 100 98 96 96 98 94 98 91 92 84 85 93 86 95 95 89 98 98 99 94 98 97 96 99 99 99 73 55 56 54 60 84 77 75 72 74 77 80 81 82
100 99 100 82 49 28 16 16 20 19 33 46 42 96 98 95 91 85 97 97 98 91 85 91 81 92 97 98 98 90 99 98 98 97 98 98 100 99 100 100 99 94 91 87 86 85 82 80 80 80 81 84 84 85
100 90 50 31 23 20 21 22 30 36 36 37 71 95 89 100 99 92 95 88 91 86 80 86 99 99 100 99 98 99 97 96 99 98 96 100 99 99 99 99 100 100 95 93 92 91 90 86 86 88 88 91 97 100
69 42 33 24 30 34 35 57 46 42 40 62 83 100 93 100 93 91 89 88 72 92 93 93 91 86 97 99 99 97 95 100 98 96 96 98 100 99 99 99 99 100 100 99 96 95 95 96 99 100 100 100 99 95
34 32 40 41 63 62 52 46 45 53 59 70 78 92 99 80 79 84 74 95 96 95 91 85 95 98 99 100 99 96 97 97 96 97 98 97 99 99 99 99 99 99 100 100 100 100 100 100 98 95 82 66 39 27
40 70 94 95 64 71 63 64 68 61 65 70 88 96 96 94 97 97 94 84 89 90 90 96 99 99 98 99 98 96 97 96 97 96 98 92 95 99 99 99 99 99 99 98 96 92 86 76 59 40 29 22 16 15
85 97 98 98 96 90 87 79 80 79 84 99 100 97 86 89 89 88 83 95 96 90 88 89 100 90 94 98 98 96 97 94 94 99 96 86 87 96 100 99 99 98 96 94 76 50 46 46 43 37 26 16 13 15
90 95 96 95 98 100 100 93 84 96 100 100 99 93 98 91 94 91 95 97 93 85 82 92 97 96 85 92 95 94 98 97 99 100 100 91 83 82 82 99 100 99 97 80 92 57 50 56 61 61 52 27 16 15
95 87 81 86 83 97 98 94 92 98 96 97 98 93 99 99 99 96 96 92 91 90 86 99 92 90 82 82 86 81 89 96 98 96 92 98 99 92 83 78 91 99 89 81 51 48 54 57 60 63 65 64 37 18
84 70 86 90 98 90 97 99 94 95 95 91 93 96 92 92 92 99 100 99 98 94 99 97 84 76 81 76 85 95 98 97 96 77 61 62 60 58 71 82 88 88 76 71 68 58 53 56 61 64 66 69 67 32
100 98 97 100 99 100 93 98 100 98 90 90 97 92 95 99 100 100 100 99 100 96 97 85 79 68 70 74 81 82 85 96 95 83 66 64 59 54 46 41 48 57 68 79 78 72 69 70 76 78 78 75 74 58
100 100 99 99 98 97 95 97 94 98 90 96 98 96 95 98 96 98 100 100 96 79 78 71 63 62 66 71 70 73 76 84 88 76 67 60 47 35 31 30 29 29 44 60 64 70 74 80 84 84 86 84 79 76
99 99 98 98 96 96 98 99 94 99 99 100 98 94 93 93 94 97 99 93 84 72 66 68 71 74 74 75 78 73 66 62 65 61 39 35 35 36 37 41 43 41 38 45 64 65 64 65 70 80 86 86 83 83
100 97 97 96 95 96 97 96 96 96 98 98 99 99 100 100 99 98 98 86 70 65 65 69 72 73 76 78 73 60 66 66 40 34 30 26 30 28 31 36 38 40 43 48 55 61 66 69 76 84 87 86 79 67
98 97 97 97 97 94 95 97 98 97 100 100 100 99 97 100 100 100 100 76 65 64 63 64 61 55 43 36 42 42 34 25 22 23 24 25 24 23 21 19 18 21 34 37 42 50 65 76 82 86 85 79 65 42
93 96 94 95 96 89 95 100 98 98 97 100 98 96 95 97 98 85 85 56 55 47 39 36 47 54 57 46 27 23 24 27 34 37 38 38 38 35 32 27 22 17 22 20 24 37 44 52 63 72 75 70 52 32
98 99 95 87 84 82 91 91 87 94 100 96 98 100 96 90 87 71 46 44 48 52 52 53 55 55 52 49 48 50 33 34 38 40 41 42 42 41 34 29 27 25 21 20 21 25 30 40 47 50 52 55 55 39
87 91 95 89 89 89 94 99 99 98 93 78 82 92 88 80 68 43 28 30 28 26 26 27 28 32 33 31 29 31 39 41 40 40 41 40 35 28 28 29 33 32 28 23 24 26 28 32 35 37 39 41 51 62
89 87 82 100 98 97 92 91 90 77 63 65 85 86 72 45 41 33 30 30 25 23 19 20 22 23 25 26 28 28 30 32 33 33 32 31 30 32 32 31 36 35 32 31 31 32 36 39 39 40 44 51 55 57
88 88 90 97 95 94 81 76 71 66 65 62 60 53 46 36 31 28 24 23 23 24 28 33 36 37 38 38 38 38 40 44 47 48 46 45 44 43 41 41 42 44 44 44 44 45 48 48 46 48 50 53 58 61
88 82 77 86 84 87 84 77 72 67 66 62 61 63 52 43 31 26 30 32 35 38 40 43 46 50 55 57 56 54 52 49 49 54 60 60 56 52 50 50 50 47 46 47 48 48 48 50 53 55 57 60 64 65
92 85 78 87 86 81 75 68 68 67 67 67 65 60 52 46 34 35 41 43 42 46 46 50 56 55 49 41 41 43 44 46 48 54 62 68 66 63 60 59 56 54 54 51 50 52 54 57 58 62 65 67 69 72
81 78 81 78 77 77 62 58 61 64 67 69 72 70 65 54 47 42 46 48 57 60 57 58 60 47 43 48 51 53 55 58 59 60 60 60 60 64 69 71 73 70 65 60 57 56 59 64 69 72 74 77 74 68

GFSWCAN_850_rhum_084.txt.gz
RH
98 96 100 100 95 100 100 92 72 64 58 50 40 21 9 9 10 12 19 24 22 45 55 54 60 70 80 78 72 71 69 76 67 80 84 80 80 81 88 79 90 83 91 84 74 86 72 50 59 52 39 58 59 66
97 97 100 100 100 100 100 91 76 70 65 58 48 22 10 10 11 12 20 38 34 51 60 69 73 69 74 87 82 91 78 75 75 67 73 69 66 70 81 69 69 87 69 63 58 50 47 51 40 44 49 54 59 67
98 99 100 99 100 100 100 87 83 71 69 62 49 20 11 14 14 19 31 52 52 72 73 68 63 70 77 76 88 84 90 84 88 86 79 82 91 73 66 74 77 99 98 77 63 41 49 50 47 48 48 54 54 60
94 97 100 99 100 100 100 88 81 80 78 72 39 16 13 38 35 36 40 66 81 66 74 75 73 82 66 72 76 82 85 79 84 86 82 80 75 74 69 69 74 58 71 93 62 50 46 46 49 47 42 44 46 58
95 97 100 98 98 100 99 91 90 88 81 64 29 19 35 65 72 78 81 90 81 69 72 93 75 70 62 57 61 73 93 96 96 90 83 78 70 70 60 60 55 42 49 69 65 61 56 46 51 47 44 45 46 63
94 100 100 100 100 100 97 94 93 85 79 60 41 67 80 91 82 97 97 96 76 77 81 85 79 69 65 57 62 68 81 99 97 95 85 85 79 72 69 67 43 46 49 49 50 66 68 62 57 57 55 52 52 66
94 100 99 100 100 100 99 97 92 92 80 45 77 89 90 94 94 88 73 76 82 78 85 92 79 66 58 81 90 86 90 98 98 97 91 77 72 82 81 64 38 49 73 60 53 70 76 70 69 69 64 56 63 68
98 100 100 100 100 100 100 97 98 95 65 96 95 96 90 96 97 98 88 93 86 84 81 88 79 67 73 92 92 92 99 98 96 88 95 84 82 86 81 53 52 53 57 64 47 50 85 78 73 77 70 65 72 75
100 100 100 100 100 100 94 98 100 96 99 100 95 96 87 96 94 97 98 94 89 84 87 86 81 78 72 86 97 99 98 90 92 83 77 83 68 86 63 70 64 56 55 52 78 80 92 80 80 80 77 75 76 77
100 100 100 100 100 100 100 99 93 98 100 96 91 44 99 100 98 99 100 97 87 99 87 78 89 78 79 90 88 84 98 82 90 70 92 85 70 60 83 99 99 95 63 63 69 70 95 84 79 80 83 81 80 78
100 100 100 100 100 99 98 99 91 99 98 35 50 96 100 100 91 89 92 87 92 89 90 83 82 81 84 86 85 89 89 88 95 81 85 84 80 95 99 100 100 86 56 45 54 65 86 85 82 81 84 82 82 82
100 100 99 100 100 99 100 78 88 68 23 21 55 97 100 92 85 84 94 96 88 80 91 84 85 89 97 96 89 87 91 94 90 90 90 86 90 99 99 99 100 100 98 91 94 96 89 88 86 83 86 88 85 83
100 100 100 99 99 100 84 56 44 17 27 51 72 93 81 98 94 90 97 91 90 88 88 87 98 99 100 99 95 91 94 90 97 91 82 88 98 100 99 99 99 100 100 98 99 99 92 89 90 91 89 90 92 97
100 100 100 99 98 72 34 22 23 39 54 53 70 97 91 97 86 81 74 79 74 78 84 96 89 85 98 98 91 96 74 98 97 93 85 82 97 100 99 99 99 99 100 100 100 100 98 98 98 99 100 100 100 99
100 100 99 93 47 22 25 36 40 52 55 69 86 83 98 81 87 76 77 90 89 90 84 86 85 90 94 98 95 90 95 91 87 85 86 95 99 99 99 100 99 99 99 100 100 100 99 100 99 92 78 60 35 27
98 71 42 26 31 33 40 43 66 83 58 80 77 90 95 86 99 98 82 96 92 88 87 90 93 93 83 93 95 91 92 88 87 93 92 97 88 97 100 100 99 98 98 98 98 93 89 73 65 54 35 22 17 17
92 97 70 52 46 58 67 92 90 80 89 92 99 86 81 80 83 91 88 84 88 86 94 91 91 86 87 93 96 86 91 87 87 94 99 99 86 87 96 100 99 98 98 99 97 58 48 45 45 42 34 19 15 16
88 85 92 96 94 98 96 92 86 90 100 100 95 98 89 88 90 89 84 89 92 82 78 91 96 97 90 86 86 81 96 97 97 96 98 98 94 87 82 92 100 99 99 99 96 65 55 54 56 60 63 55 38 20
98 98 99 98 97 88 84 80 83 97 100 99 94 98 96 96 91 93 89 96 92 80 84 97 93 86 78 74 82 77 84 89 94 97 86 79 82 76 83 91 87 96 100 100 98 91 56 52 56 59 62 64 66 54
99 100 99 98 79 81 91 97 90 84 97 96 96 99 96 94 95 99 94 91 93 94 98 96 81 75 72 64 70 78 86 92 90 85 80 67 67 64 62 58 54 58 79 98 95 94 78 62 57 61 67 70 70 71
100 100 100 98 86 87 88 98 98 95 96 95 100 98 100 100 100 100 96 96 98 96 94 77 71 64 66 69 73 86 88 88 78 80 85 82 70 67 60 46 38 34 32 46 62 74 79 76 74 74 77 79 81 79
100 100 99 92 86 88 92 96 95 95 90 100 100 92 98 99 100 100 100 100 96 81 78 70 68 69 70 68 62 67 81 84 79 77 80 75 65 43 35 38 39 38 34 30 29 38 57 65 71 73 72 79 87 85
100 100 99 97 90 89 99 97 93 94 96 100 98 93 96 98 96 98 99 95 84 70 65 66 66 68 71 72 75 76 77 73 75 76 71 52 36 36 34 35 38 38 38 46 52 55 60 66 68 68 71 77 86 88
98 98 98 94 92 97 98 96 97 95 97 95 92 98 99 99 99 99 96 84 66 60 61 61 67 68 68 67 65 64 71 73 68 64 40 25 20 21 22 21 20 19 20 34 39 44 52 58 63 66 71 78 85 87
98 97 93 97 96 92 94 95 96 93 98 96 98 99 96 99 98 100 98 76 61 57 64 64 68 68 60 39 45 56 57 62 46 23 22 31 35 37 38 38 36 30 25 21 20 21 36 49 61 74 81 84 84 79
91 95 92 94 95 88 93 96 97 97 95 100 98 100 99 94 98 87 81 58 55 49 45 41 38 44 48 46 32 26 26 24 24 31 38 38 38 40 41 41 38 27 30 29 26 22 22 25 34 44 53 64 66 59
98 99 95 89 86 85 91 90 87 90 98 95 97 96 91 84 83 67 48 48 52 56 46 45 49 56 56 52 54 55 53 44 35 32 35 38 40 41 41 39 34 28 27 29 29 26 27 28 29 30 36 44 48 52
88 91 93 90 86 85 93 96 96 96 91 86 83 94 82 78 68 47 32 38 34 34 33 32 32 33 30 28 29 29 29 30 34 40 41 39 36 35 34 33 32 32 32 32 34 36 32 30 32 34 34 36 41 45
88 86 80 100 100 96 89 89 89 80 74 69 81 81 72 50 44 39 32 33 33 29 24 24 25 27 30 32 33 34 35 35 36 37 38 38 38 40 44 44 42 40 37 38 38 36 38 39 42 42 44 46 46 50
90 86 92 100 96 98 90 87 70 69 65 60 59 54 48 41 39 39 34 30 28 30 35 38 40 40 41 42 44 48 50 50 51 52 53 52 52 51 50 53 55 54 53 50 48 50 52 50 48 40 49 53 56 57
90 82 87 92 88 87 82 78 75 72 68 65 62 64 53 43 36 32 34 37 42 44 50 51 50 49 51 50 40 34 34 36 39 44 48 49 50 52 55 59 63 62 59 56 56 57 57 55 52 53 56 59 62 63
88 78 74 88 91 91 88 78 74 72 73 72 68 65 58 48 40 39 46 48 53 62 56 53 50 51 53 55 52 42 42 45 47 51 53 54 54 56 58 59 63 69 70 69 65 62 62 65 64 62 64 69 72 72
89 76 81 81 86 83 67 64 67 67 72 73 73 68 63 53 46 44 51 53 62 67 63 61 59 58 58 57 54 54 56 61 63 64 65 66 68 70 73 77 78 81 85 85 87 86 78 69 68 72 75 76 76 80

GFSWCAN_850_rhum_087.txt.gz
RH
91 99 100 95 99 98 100 100 96 76 54 54 38 14 10 10 9 10 11 10 13 42 64 42 49 60 67 60 54 61 63 71 58 71 72 68 64 60 68 56 74 79 86 94 85 86 67 39 50 48 40 48 47 54
96 98 97 98 100 100 100 100 91 69 57 53 32 14 10 9 11 12 12 13 14 36 73 51 62 60 77 74 67 72 67 60 64 63 67 66 60 60 64 57 57 72 73 90 56 51 45 45 37 43 39 40 46 59
96 91 96 99 98 100 100 100 87 70 68 54 37 20 11 10 10 12 14 22 28 65 80 70 79 66 70 70 83 70 72 72 74 83 71 67 80 59 52 49 65 69 93 86 62 40 39 42 44 43 48 47 51 56
94 95 88 97 100 100 100 100 83 77 74 57 44 23 12 11 15 18 18 28 33 55 58 77 69 84 67 69 70 85 87 81 82 82 73 69 70 61 56 50 62 41 59 84 76 55 48 40 47 52 49 45 51 54
91 94 91 97 100 100 100 100 86 80 74 66 50 23 16 17 24 30 31 32 31 65 55 79 87 66 60 57 60 75 96 89 91 85 79 75 63 65 55 52 56 40 40 43 47 64 67 51 57 60 60 55 53 56
91 99 98 98 100 100 100 100 90 90 86 78 49 26 24 37 41 38 55 48 46 48 89 78 80 75 71 61 73 88 98 95 96 89 77 74 68 68 73 61 40 38 38 38 38 55 58 68 67 72 74 71 60 63
90 98 99 100 100 100 100 100 97 94 96 88 57 46 72 73 63 49 67 65 66 67 89 86 74 74 58 94 97 100 100 98 97 94 85 71 72 79 81 67 40 40 44 46 66 65 52 68 77 78 77 76 67 70
94 97 98 100 100 100 100 100 97 100 94 72 78 92 89 97 76 70 77 80 72 70 75 84 76 66 74 85 89 90 98 98 98 84 89 77 78 79 79 52 56 63 58 47 54 64 75 58 90 83 79 78 79 74
99 99 100 100 100 100 100 100 100 96 90 92 96 97 100 96 92 97 89 84 79 71 80 77 78 81 64 81 89 99 98 86 92 82 74 83 66 84 58 60 84 90 89 57 56 74 84 96 98 89 83 82 82 82
100 98 100 100 100 100 100 100 100 100 93 96 98 61 97 98 84 94 96 94 86 95 91 66 73 73 82 78 76 81 93 84 90 71 84 83 70 56 62 98 99 99 99 91 62 65 56 70 92 90 87 87 85 85
100 100 100 100 100 100 100 100 99 98 98 91 63 99 100 98 87 96 93 83 89 84 83 71 70 71 79 75 75 80 87 82 86 77 82 76 75 80 98 100 99 99 99 84 72 74 78 85 94 93 88 87 85 83
100 100 100 100 100 100 100 99 100 98 92 37 63 99 99 92 94 83 85 86 83 74 77 75 76 85 98 98 80 80 86 91 84 83 86 83 72 97 99 99 99 98 98 99 99 97 98 98 98 97 95 89 87 85
100 100 100 100 100 100 100 100 98 78 28 66 61 87 84 97 89 87 90 87 83 75 82 90 92 93 98 98 86 83 91 85 90 87 77 68 86 96 100 99 99 100 99 98 100 100 100 100 100 100 100 100 98 91
100 100 100 100 100 100 100 100 78 31 63 60 70 98 88 95 83 76 65 71 78 81 88 88 87 83 94 98 85 93 74 96 94 88 77 75 89 100 98 100 99 99 100 100 99 99 99 100 100 100 100 100 99 99
100 100 100 100 99 100 100 81 43 57 57 69 68 89 94 88 96 89 84 93 92 88 86 82 84 78 87 87 88 90 92 86 76 74 80 94 96 93 97 99 99 100 99 99 99 99 99 99 99 98 93 65 40 34
100 100 100 100 100 100 94 63 63 59 66 74 85 94 94 89 98 97 100 98 98 92 90 83 84 85 77 77 86 80 81 81 81 88 97 96 94 91 91 98 100 100 99 99 98 96 86 72 59 50 38 24 17 16
100 99 100 100 100 65 62 58 73 87 94 94 97 94 90 82 87 91 94 87 89 87 88 79 88 80 87 87 88 73 84 86 94 92 97 95 94 87 81 93 98 99 99 99 99 98 73 48 49 50 48 36 25 18
98 100 100 82 51 58 73 72 92 97 98 99 95 96 93 91 87 94 95 95 92 94 85 88 84 91 90 89 79 76 91 99 94 94 92 89 94 95 94 87 95 99 98 99 99 93 61 56 56 57 62 64 65 51
96 76 52 78 68 87 97 97 95 97 100 99 100 100 99 99 96 84 85 96 89 80 79 95 87 85 76 67 79 87 84 87 87 91 88 76 70 66 63 60 62 73 91 99 99 99 100 98 70 55 56 59 63 67
68 72 81 99 93 93 96 97 92 90 97 100 100 100 100 100 100 100 100 98 92 84 92 94 80 68 62 71 65 71 72 84 88 94 85 80 68 70 68 67 63 56 49 46 53 75 93 97 95 71 62 61 66 71
99 99 99 99 95 87 85 96 94 96 100 100 100 100 100 100 100 100 100 100 99 98 89 80 74 70 63 62 65 67 81 88 85 87 83 80 79 81 67 56 40 36 36 34 33 33 48 61 74 82 79 76 79 82
99 98 86 75 81 86 90 94 98 93 98 100 98 95 100 99 100 99 98 99 97 82 74 71 72 69 70 68 68 68 70 74 78 85 82 70 78 71 42 38 38 40 42 44 46 42 35 31 38 58 66 69 76 78
98 90 74 86 78 81 100 94 97 92 91 98 97 92 96 99 99 100 99 95 91 74 66 67 70 72 72 71 70 69 69 70 72 73 72 77 74 43 32 23 20 20 20 22 33 41 47 56 62 66 68 70 72 75
84 83 93 91 82 98 98 99 94 97 98 91 90 93 95 98 98 99 93 87 67 61 61 60 63 66 68 67 65 64 66 66 75 79 73 63 39 23 26 33 36 36 33 28 24 22 22 35 51 59 67 69 73 80
95 97 93 97 91 90 92 93 93 87 92 91 90 93 95 98 94 95 89 78 63 58 64 66 67 72 71 52 44 54 50 61 66 65 56 27 26 35 38 39 40 41 40 34 29 26 24 24 32 43 56 67 77 81
94 96 90 88 94 85 89 93 94 93 90 94 92 98 97 92 96 90 80 62 60 58 56 58 57 46 44 41 32 27 31 39 38 26 22 30 37 38 37 38 39 39 38 32 29 29 30 31 29 28 29 38 51 59
94 97 95 88 86 83 85 87 82 83 93 93 91 96 90 88 81 67 50 50 56 56 43 45 50 54 56 55 55 54 51 40 30 27 30 33 37 39 41 43 41 37 33 30 31 31 31 34 34 33 30 30 34 42
89 90 93 91 86 82 91 88 91 92 85 84 82 92 88 77 71 49 41 48 44 43 43 41 41 39 36 33 31 30 30 31 31 33 37 40 40 38 35 36 37 38 40 41 39 37 35 36 39 39 37 35 36 40
89 85 79 100 95 91 86 85 85 78 77 79 81 76 72 52 48 47 39 35 34 30 26 22 22 25 29 32 33 33 34 36 39 41 42 42 42 44 50 52 54 55 54 52 50 49 47 47 47 49 47 47 47 47
90 83 88 95 94 93 90 84 81 80 71 64 58 54 50 48 47 46 41 38 33 26 27 32 37 40 41 42 43 44 44 41 38 39 40 39 39 40 42 44 45 46 49 52 55 56 57 59 59 60 55 54 53 56
88 86 90 90 91 90 92 82 73 70 67 64 61 60 55 48 42 36 33 32 32 38 48 49 48 47 44 44 45 44 46 46 46 43 43 45 48 50 52 53 53 52 51 52 57 65 69 66 63 63 61 58 56 58
90 79 76 88 95 90 90 86 82 75 73 71 66 62 55 45 39 36 38 42 48 53 55 56 54 53 54 53 54 56 57 57 56 56 58 61 62 62 62 64 67 70 72 71 69 70 76 81 79 74 70 67 69 70
87 74 79 84 90 88 76 71 71 72 72 75 75 69 62 52 46 42 46 51 58 58 59 59 59 60 62 63 61 60 60 60 62 64 66 66 68 70 73 75 86 95 96 94 87 83 82 86 93 91 81 78 76 77

GFSWCAN_850_rhum_090.txt.gz
RH
88 98 89 85 99 95 97 98 100 100 99 69 50 49 34 22 13 25 19 12 13 39 51 49 47 50 56 54 58 67 71 75 68 76 71 66 64 67 74 56 67 83 93 93 89 96 90 48 50 49 53 47 47 53
91 98 86 100 90 98 98 100 100 100 94 71 56 50 22 22 17 24 15 11 15 20 58 62 53 47 54 65 63 69 67 59 71 83 90 88 87 85 72 86 61 76 87 93 97 78 50 46 46 43 43 42 47 58
94 96 91 78 95 97 98 100 100 100 88 77 71 45 20 20 19 15 14 13 15 35 69 68 77 58 58 59 69 69 69 71 76 80 79 87 89 79 82 78 65 74 84 86 82 55 61 56 46 53 50 48 48 54
97 92 77 85 81 97 98 100 100 95 86 74 50 31 26 18 17 16 13 16 22 42 66 86 74 66 62 62 66 85 77 76 80 80 76 86 83 64 80 68 68 57 51 63 77 61 57 55 61 62 63 56 48 48
85 92 93 68 67 94 99 100 100 88 85 74 48 36 24 18 16 17 18 21 24 43 71 85 84 65 54 57 63 79 84 82 81 87 87 90 65 73 64 64 71 48 47 55 61 48 66 68 58 70 75 74 63 56
73 92 95 89 81 93 100 100 100 88 91 69 51 31 23 20 25 22 30 30 26 32 54 93 84 71 66 64 66 90 90 86 78 89 82 74 67 72 90 86 45 40 38 42 53 60 59 52 69 78 76 80 76 65
50 88 66 97 99 99 100 100 100 92 93 73 56 47 29 27 25 30 48 42 28 33 54 92 86 74 79 92 95 95 93 95 96 92 87 70 72 75 92 87 45 44 55 63 57 46 60 54 66 55 79 80 80 76
50 74 74 99 100 100 98 100 100 98 90 76 56 47 50 44 46 55 58 49 44 40 64 95 90 72 76 88 96 85 96 94 94 94 91 79 72 87 87 62 56 60 92 87 68 50 56 72 79 78 89 83 85 80
66 82 84 98 100 100 100 100 100 96 99 90 76 65 62 54 63 77 80 73 55 58 81 84 90 97 80 80 94 95 86 96 95 89 77 85 78 94 72 61 94 99 99 98 77 70 66 71 73 98 93 85 85 83
67 86 94 100 100 100 100 100 100 100 100 100 96 64 95 86 86 73 79 65 63 71 77 80 67 92 79 78 89 95 94 92 97 82 78 88 78 60 61 86 99 99 92 94 94 84 66 67 73 93 91 90 87 85
74 93 100 100 100 100 100 100 100 100 100 93 61 99 99 91 78 91 94 84 88 88 83 69 71 87 83 78 86 76 94 94 95 92 91 86 82 91 95 99 99 100 98 97 95 78 76 90 98 100 97 92 92 90
88 100 100 100 100 100 100 100 98 100 96 71 76 99 91 84 87 87 91 91 87 85 75 79 81 82 93 82 73 85 92 95 88 85 96 84 93 87 96 97 99 100 97 99 98 98 100 99 100 100 99 99 99 96
100 100 100 100 100 100 100 99 100 97 60 58 78 86 85 94 92 84 90 94 94 76 80 91 91 91 99 92 80 80 94 93 93 95 77 90 85 89 95 98 98 99 100 98 96 96 99 100 100 100 100 100 100 100
100 100 100 100 100 100 100 100 98 64 66 67 75 95 92 99 90 86 86 89 81 81 89 90 88 87 93 97 84 95 83 94 96 97 86 89 85 91 91 95 100 97 100 100 100 100 100 100 100 100 100 100 100 100
100 100 100 100 100 100 100 98 72 75 74 73 72 91 96 98 97 91 87 86 88 77 82 84 81 69 92 96 92 94 97 91 88 89 92 89 89 84 92 100 100 100 99 99 99 100 100 99 100 99 98 82 41 34
100 100 100 100 100 100 100 97 87 80 96 73 80 95 92 91 99 95 92 93 89 86 80 77 86 86 72 73 91 83 69 86 91 86 93 92 90 88 88 97 99 98 99 98 100 94 88 58 46 43 34 24 18 15
100 100 100 100 100 100 99 90 89 96 98 95 99 94 95 87 92 95 98 89 86 77 93 79 85 86 89 81 86 81 82 93 94 90 90 86 87 88 86 86 97 99 98 98 98 99 95 88 70 54 59 60 53 40
100 100 100 100 99 98 98 98 97 98 98 100 96 99 95 90 92 96 87 91 83 86 85 84 82 91 85 87 93 92 91 97 92 88 90 87 87 88 84 83 84 96 100 96 96 97 98 97 76 61 58 60 63 65
99 100 100 100 97 90 98 98 96 96 99 98 99 98 97 96 92 91 93 92 90 82 77 92 89 90 94 75 86 89 93 88 86 82 87 85 70 62 64 63 62 62 62 71 86 92 95 98 97 98 98 68 56 58
100 99 99 98 76 78 94 98 97 94 98 98 98 99 100 99 98 96 100 93 85 77 91 98 93 77 68 65 69 76 72 76 88 87 81 76 75 68 70 70 67 63 51 43 42 42 44 47 52 76 86 83 68 64
96 99 98 98 90 90 95 98 96 98 98 98 100 100 100 100 98 98 97 98 88 96 96 76 75 67 64 63 65 64 65 69 80 82 82 78 74 76 76 67 50 37 39 40 43 43 42 39 38 44 60 76 82 83
98 93 95 97 96 96 94 96 95 97 97 100 99 100 97 97 98 93 99 99 97 77 69 67 64 65 69 70 70 69 69 70 71 79 83 85 88 77 72 46 36 30 27 26 26 35 41 50 54 54 51 53 64 70
98 97 96 97 93 92 97 96 92 97 96 98 97 96 94 96 97 98 99 92 82 77 72 70 71 74 77 76 73 69 68 66 67 69 71 84 80 73 61 32 22 26 30 30 28 24 22 21 26 45 55 60 65 69
91 94 96 95 86 98 99 97 93 96 96 98 96 100 97 98 98 98 99 84 71 63 59 58 61 62 62 63 62 61 65 69 70 73 80 85 80 58 29 31 39 41 42 41 38 32 28 26 23 20 28 42 56 68
86 97 95 97 91 91 95 98 97 94 97 95 92 100 100 96 100 100 96 75 68 62 61 63 64 65 68 48 43 56 56 50 63 66 73 71 49 25 33 40 41 41 41 42 39 32 28 29 30 30 25 24 24 31
94 96 94 90 95 89 94 95 95 95 94 97 98 96 95 99 99 92 91 64 62 56 58 62 64 56 46 40 34 28 37 47 55 55 46 28 25 32 38 39 38 39 42 42 36 32 30 33 32 32 32 30 29 31
94 99 92 87 83 81 87 83 82 91 96 94 96 98 96 92 89 78 54 52 58 53 44 45 50 58 61 60 57 56 54 45 34 26 24 27 32 35 37 40 43 43 38 37 37 38 40 41 39 37 36 36 38 39
90 88 93 87 84 79 93 95 95 94 95 84 83 94 84 79 81 53 48 51 57 53 50 51 52 51 47 40 33 29 28 28 27 28 29 29 31 35 37 40 42 46 48 50 51 52 52 51 50 49 47 42 40 45
89 86 77 97 93 87 85 91 93 80 77 77 89 92 81 55 50 48 44 39 36 30 26 23 23 26 29 31 33 35 37 40 40 40 39 37 37 39 40 44 47 49 49 46 46 48 48 50 52 55 57 55 52 54
89 84 87 94 93 96 97 87 88 82 75 72 61 54 52 49 47 45 38 34 34 32 29 31 36 40 43 44 44 43 42 42 42 45 46 46 45 44 41 43 46 49 51 52 54 52 52 54 57 63 67 65 61 60
86 85 88 89 97 96 96 83 82 79 72 66 62 56 53 46 40 38 40 39 36 34 41 49 52 50 48 46 46 45 47 48 53 56 58 57 54 53 54 55 57 58 60 63 68 74 77 75 71 70 73 72 69 70
88 80 81 94 97 94 89 80 78 72 71 67 66 62 58 51 40 36 33 36 42 52 58 57 55 52 52 52 55 58 58 59 59 60 60 59 59 59 62 63 65 69 74 80 88 92 93 92 86 82 80 84 86 84
76 72 82 88 95 92 82 71 74 75 72 74 71 65 58 51 44 39 39 46 58 62 61 56 55 57 60 59 61 59 58 61 62 63 64 67 68 68 70 72 82 92 94 96 96 94 89 87 88 92 93 93 97 95

GFSWCAN_850_rhum_093.txt.gz
RH
88 88 87 100 92 69 90 82 99 91 86 100 100 97 42 47 33 29 31 21 26 40 52 46 48 47 54 49 75 67 72 75 78 84 91 92 79 79 80 71 82 84 96 96 88 99 94 51 47 50 56 50 50 55
78 86 74 96 92 74 88 98 99 98 81 98 100 64 50 48 35 34 32 25 26 27 65 55 55 51 46 52 60 68 66 68 79 91 95 95 93 93 80 92 66 79 89 91 99 90 80 79 68 64 56 51 50 61
80 76 78 89 89 61 75 100 96 92 99 100 96 62 58 48 42 37 31 23 25 43 75 62 59 58 56 56 57 64 70 69 76 76 82 93 88 92 91 88 70 82 80 93 76 65 65 93 69 74 71 66 55 54
84 68 75 81 82 62 99 100 84 96 100 100 86 80 63 47 51 40 24 22 21 31 77 88 81 65 60 62 61 67 72 72 68 74 76 96 89 72 89 79 77 66 58 70 78 58 55 74 66 76 76 72 67 55
87 71 74 83 82 67 100 100 99 98 100 93 83 73 54 61 49 32 20 20 22 37 87 90 77 64 65 68 70 74 70 70 76 83 92 93 77 78 79 79 86 58 59 65 70 61 62 58 52 57 78 74 79 76
86 76 75 72 76 60 100 100 100 100 98 90 95 87 75 56 36 26 33 30 30 27 37 96 78 82 72 64 77 84 81 77 79 81 86 76 66 74 95 97 60 49 51 64 62 66 64 50 52 74 70 85 88 83
85 81 75 68 61 75 100 99 99 100 100 98 84 67 59 44 33 28 38 32 29 24 33 92 91 78 94 91 94 88 87 85 81 87 82 76 72 72 99 97 57 54 64 67 65 76 82 60 58 67 74 89 95 87
86 81 66 61 85 100 100 99 100 100 97 90 82 72 55 49 44 43 46 44 27 22 48 95 96 77 88 87 96 84 98 88 84 95 88 81 76 85 98 72 60 71 86 88 86 91 87 68 71 82 86 74 97 88
84 77 54 50 98 100 100 99 100 100 97 94 89 77 58 45 48 60 46 46 31 31 77 79 91 97 87 86 95 94 85 96 94 92 84 79 89 95 76 69 96 99 99 98 83 83 74 67 68 63 96 98 98 88
80 71 41 82 100 100 100 100 100 99 99 94 86 49 71 69 66 44 37 39 39 52 70 88 74 92 79 81 93 94 86 95 100 84 77 90 91 61 61 87 96 99 99 88 97 88 83 73 70 74 95 97 92 93
80 40 48 99 100 100 100 100 100 99 100 84 73 91 95 77 44 58 78 77 81 92 77 76 78 95 83 86 93 80 95 94 93 92 95 94 90 84 87 93 98 99 100 91 97 99 98 93 95 98 100 100 98 95
50 39 53 100 100 100 100 100 99 99 97 94 84 97 88 77 77 83 90 93 93 85 83 84 85 90 91 73 74 82 91 95 82 90 99 79 86 81 86 95 97 99 100 94 97 92 93 99 100 100 100 100 100 100
47 56 98 100 100 100 100 100 100 96 91 74 80 89 95 90 94 80 90 96 98 86 91 93 95 96 96 81 79 87 94 98 96 95 76 84 81 79 88 93 92 96 99 100 100 99 99 100 99 100 100 100 100 100
45 97 99 100 100 100 100 100 98 94 83 92 87 97 93 96 94 88 84 90 84 81 90 84 95 87 87 94 87 99 76 97 97 96 90 92 84 84 88 93 98 100 99 99 99 99 99 99 99 100 100 100 99 98
96 100 100 100 100 100 100 100 100 97 98 98 83 96 98 97 98 97 86 87 89 87 79 80 77 70 95 95 93 95 98 98 87 90 94 90 85 84 87 98 99 100 97 95 98 99 99 100 99 98 86 69 42 29
100 100 100 100 100 100 100 100 100 98 99 98 97 97 93 91 99 97 88 95 91 76 76 74 85 86 89 88 89 86 73 82 81 96 83 91 88 86 84 87 98 100 95 94 97 94 84 52 49 44 37 32 26 22
100 100 100 100 100 100 100 99 99 98 98 97 98 94 96 96 93 95 90 89 84 69 96 87 88 83 86 80 87 65 80 89 90 88 85 79 80 85 86 84 98 99 99 94 93 96 95 91 90 75 58 63 64 61
100 100 100 100 99 100 100 98 98 97 98 99 94 98 98 95 96 94 90 91 75 80 78 88 84 91 82 82 89 89 98 98 98 87 83 81 82 86 82 77 77 90 99 98 97 97 97 99 100 98 82 64 59 60
100 100 100 99 93 93 98 98 95 94 98 98 98 98 97 98 96 89 88 81 83 74 80 83 93 96 94 83 88 99 95 99 86 77 83 83 77 72 68 65 66 66 66 65 64 70 82 96 99 99 99 99 99 89
100 100 100 100 94 96 96 98 98 89 97 97 98 97 98 98 100 92 90 90 82 71 84 99 92 77 72 68 71 74 86 83 81 83 79 72 75 77 70 73 74 70 57 43 41 41 42 42 41 45 52 64 76 80
99 99 100 100 96 92 95 97 97 97 97 96 97 97 99 100 100 97 91 89 83 86 98 77 68 63 66 66 64 62 61 63 64 74 78 76 76 73 77 77 71 44 40 41 38 41 45 47 49 47 40 37 43 52
99 99 99 97 96 97 96 97 96 97 96 97 96 95 96 96 97 94 95 96 92 81 75 67 60 62 67 66 66 68 69 70 69 73 81 90 91 87 84 76 58 32 22 21 24 24 24 23 24 32 49 58 63 66
100 94 96 98 96 96 97 97 96 96 95 97 94 96 97 96 95 97 99 93 84 77 73 72 74 75 76 76 74 70 69 69 69 68 69 73 76 83 85 78 39 26 34 39 39 37 32 27 25 26 26 38 58 69
98 95 97 96 95 96 96 96 94 95 95 97 96 100 97 96 98 98 98 83 72 70 70 70 70 67 62 60 61 60 61 63 66 67 67 73 80 82 79 48 29 40 41 39 39 41 38 30 26 27 30 27 28 38
91 97 95 96 94 91 95 98 98 91 99 97 95 100 98 98 100 100 97 74 71 64 61 60 61 63 65 45 46 58 57 52 57 66 67 77 77 66 40 31 39 42 40 39 40 42 37 32 31 33 33 32 33 31
93 96 92 93 96 89 95 97 96 95 94 100 100 99 97 99 100 89 92 64 62 60 64 63 65 63 42 31 28 29 43 50 57 62 66 66 53 32 29 33 39 41 40 41 43 39 32 34 37 41 42 40 38 38
95 99 88 84 82 81 87 85 83 90 96 94 98 100 96 94 92 79 64 59 60 52 58 56 47 49 56 60 58 56 55 48 40 30 28 26 26 28 33 38 38 40 42 42 41 43 47 50 52 52 52 50 49 47
91 87 92 88 87 81 92 94 93 92 96 87 85 95 83 77 78 55 53 53 58 48 48 52 56 57 57 54 45 34 28 28 29 31 31 32 35 36 38 39 42 45 47 49 50 50 49 47 46 45 45 46 46 55
88 85 85 95 94 88 92 93 94 85 82 78 88 93 85 60 51 47 49 54 51 46 39 37 33 28 27 28 32 34 37 40 40 40 40 41 42 41 43 44 44 44 43 43 46 50 53 55 57 55 52 50 47 50
86 82 86 93 93 97 97 94 91 83 81 73 59 56 51 50 49 44 42 39 35 33 30 26 26 32 37 40 42 42 42 42 41 43 46 47 50 53 56 56 55 56 57 58 58 60 65 70 72 75 74 73 69 64
87 82 87 92 99 99 95 92 84 76 70 62 55 49 46 43 44 45 42 38 38 37 32 31 39 46 48 45 44 43 45 47 52 56 59 58 57 57 58 58 60 64 66 70 74 79 83 82 81 82 81 79 76 75
86 84 85 93 98 97 84 80 75 72 71 66 64 58 57 51 45 39 36 40 41 38 40 46 50 50 49 47 51 54 55 59 59 58 58 58 60 64 66 66 67 72 80 86 92 95 97 95 89 87 85 84 84 86
76 79 88 92 98 94 86 75 72 74 73 74 70 62 54 49 38 38 34 36 47 52 53 53 52 51 57 56 55 60 61 59 59 60 65 68 68 67 72 82 93 100 100 100 98 96 93 90 91 93 94 95 96 96

GFSWCAN_850_rhum_096.txt.gz
RH
90 97 94 80 83 90 94 86 76 78 99 94 99 100 100 72 57 48 31 26 28 43 58 52 49 44 50 47 73 68 68 73 82 86 90 91 85 82 84 72 88 85 96 96 92 99 94 92 72 78 77 67 54 59
91 96 86 79 84 85 87 88 65 86 96 96 100 100 100 78 56 52 40 38 25 26 74 62 59 53 42 46 53 66 65 74 75 91 97 96 92 95 83 88 63 91 90 89 92 81 86 88 87 77 84 82 81 65
92 97 86 82 82 79 82 78 44 94 95 99 98 100 98 71 55 47 41 45 31 49 71 57 62 64 60 56 50 56 67 67 74 74 81 94 81 93 90 89 75 71 80 93 84 69 58 84 90 94 88 77 83 72
96 94 83 87 85 76 76 64 71 96 94 100 89 95 100 75 58 51 41 47 28 34 75 86 77 66 65 61 54 49 51 67 71 67 75 96 88 78 90 81 84 70 63 69 80 59 71 68 58 58 74 83 78 75
97 92 88 87 82 71 63 64 98 96 100 100 100 100 75 68 59 50 46 43 28 32 89 87 65 73 84 75 63 66 63 62 67 72 91 92 81 80 85 86 93 67 66 71 73 65 64 57 54 47 63 67 87 90
99 92 94 85 80 62 56 94 97 99 100 100 100 91 82 61 50 64 51 40 35 38 43 95 82 86 82 81 73 69 70 72 79 78 87 79 70 73 96 98 66 56 59 73 71 81 85 80 74 64 70 69 64 90
97 94 94 84 68 64 62 100 100 100 100 100 99 94 70 62 76 52 30 35 34 32 33 93 90 95 95 86 86 82 80 80 75 88 81 79 70 72 99 99 59 62 63 83 93 100 98 78 77 62 56 74 78 92
96 96 92 82 69 64 80 97 100 100 100 100 100 96 88 93 80 48 47 55 43 27 42 96 95 89 89 81 89 84 80 77 77 94 89 77 78 86 99 77 62 67 93 87 81 84 91 84 68 73 67 91 98 90
94 96 88 82 63 59 88 100 100 100 100 100 100 99 98 93 61 54 55 55 38 29 69 81 90 93 93 94 90 91 83 98 91 91 87 76 87 97 76 68 79 96 99 98 85 85 87 79 73 71 76 84 100 99
91 92 82 71 57 80 100 100 100 100 100 100 98 82 78 76 63 48 40 33 27 39 66 90 75 94 82 80 90 92 88 98 100 87 80 93 92 64 60 67 87 91 99 100 91 88 85 79 79 79 98 100 100 98
91 84 71 49 64 100 100 100 100 100 99 96 86 97 91 70 58 50 56 59 69 84 76 85 79 97 86 91 97 84 97 96 84 94 90 93 93 81 77 89 88 95 99 99 89 92 97 100 100 100 99 100 100 100
84 70 51 49 92 100 100 99 100 98 94 73 74 92 90 80 71 74 90 93 87 70 89 91 88 90 88 69 84 81 87 94 88 88 98 86 86 71 86 86 92 91 95 99 96 91 89 95 100 100 100 100 100 100
70 66 59 85 100 100 100 99 100 92 86 78 69 82 73 85 90 78 84 91 97 92 98 97 98 92 81 75 77 90 99 97 92 97 78 86 66 77 84 88 92 95 93 96 100 99 95 99 99 99 99 100 100 100
70 62 98 100 99 100 100 100 100 90 76 90 93 99 96 98 94 87 86 87 74 82 93 83 97 84 79 90 75 90 83 91 98 95 87 88 67 79 86 90 98 99 99 96 99 99 99 100 100 99 99 99 99 99
62 83 99 100 100 100 100 100 100 92 94 88 74 92 100 93 99 96 86 89 87 88 76 82 84 78 99 97 95 92 100 97 81 86 89 78 77 79 82 91 98 99 100 98 95 92 98 99 99 96 83 67 35 39
71 99 100 100 100 100 100 100 100 98 99 95 91 98 98 95 100 95 94 99 87 73 70 68 92 90 93 92 95 90 88 90 82 92 79 80 79 80 81 84 98 98 100 99 96 95 90 61 50 48 47 48 42 33
99 100 100 100 100 100 100 100 98 95 97 94 100 88 91 88 96 96 94 89 76 65 95 90 86 83 91 93 94 85 85 86 77 85 83 74 73 79 82 83 95 99 98 100 96 96 93 89 96 95 95 96 96 96
100 100 100 100 99 100 100 97 98 97 98 97 95 100 98 98 98 98 89 83 75 74 74 85 77 88 93 92 92 88 90 93 94 85 77 74 77 81 84 77 75 77 94 95 94 97 98 98 99 99 100 99 99 98
100 99 100 100 98 96 99 98 94 95 99 99 99 98 98 98 92 92 88 82 72 66 78 82 93 96 92 82 81 89 99 99 90 81 79 81 84 81 76 68 64 69 67 64 60 56 53 52 58 68 79 94 98 98
100 100 100 100 100 98 97 98 96 91 97 98 98 97 98 99 98 94 90 84 75 68 74 99 82 70 69 68 70 72 77 83 81 75 75 79 82 82 78 73 76 75 69 48 40 41 42 43 46 47 46 47 52 60
99 99 100 100 97 93 96 97 96 97 97 96 98 97 99 99 99 97 93 83 77 81 95 72 64 62 67 66 65 69 80 78 70 70 70 76 80 82 79 77 81 75 49 39 30 28 29 27 27 33 46 56 56 49
99 99 99 97 95 97 96 96 96 96 96 97 96 97 97 97 98 95 95 93 91 81 76 64 58 65 64 63 61 62 64 66 66 68 70 77 81 82 81 83 80 65 33 21 26 32 32 30 27 25 25 28 42 59
99 98 97 98 96 96 97 97 96 97 96 96 96 96 96 97 95 95 97 88 82 80 78 74 65 62 65 65 67 68 69 70 70 69 70 73 79 90 95 89 85 60 23 33 40 40 41 40 35 28 25 27 27 27
99 98 97 97 96 96 96 96 96 96 96 96 95 96 96 95 96 98 98 87 78 79 82 82 79 76 74 71 63 60 59 59 63 67 68 68 69 74 79 83 79 44 36 42 41 39 40 42 39 30 29 31 32 30
93 97 96 96 96 95 95 96 96 95 95 95 94 97 97 97 99 100 95 72 69 66 64 64 63 62 61 59 51 54 56 54 56 65 69 70 84 84 77 75 43 34 40 43 42 42 42 43 39 34 35 37 40 41
94 96 94 94 96 91 96 96 95 94 94 95 95 98 98 97 100 86 90 65 67 62 59 58 59 64 54 35 36 49 52 55 64 68 64 71 73 70 49 33 33 36 41 43 42 43 43 40 39 43 47 49 51 52
95 99 86 83 82 82 88 85 83 86 91 92 96 99 97 94 88 80 69 65 60 62 62 63 63 46 34 35 45 51 48 44 35 31 32 30 30 30 32 32 34 36 39 41 43 45 46 46 43 41 40 37 40 47
90 88 91 89 85 82 91 92 90 88 92 86 85 95 84 77 78 62 56 60 56 58 60 49 47 58 61 59 54 44 33 29 28 29 31 34 37 38 38 38 40 41 43 44 44 42 43 45 48 50 50 48 44 46
90 88 85 97 96 94 95 91 91 89 85 79 87 92 83 65 57 53 53 58 50 48 49 56 57 56 50 34 29 32 37 41 42 41 38 38 40 40 44 48 52 55 58 57 56 56 56 58 61 66 68 67 68 65
95 96 95 95 92 96 97 96 92 86 82 73 65 58 56 56 54 51 56 56 50 46 41 33 26 26 30 34 40 43 42 40 39 41 44 48 52 55 58 58 57 58 59 62 64 67 71 75 78 82 85 86 86 86
96 94 92 92 96 99 98 92 84 76 65 60 56 50 52 49 49 47 46 43 36 33 30 27 28 35 43 46 45 43 42 44 48 52 56 58 57 57 57 59 63 67 68 70 73 77 79 80 84 86 85 83 82 84
96 90 88 94 98 96 86 79 74 72 68 63 63 54 51 47 43 44 42 39 36 36 35 34 42 46 48 46 45 50 49 54 60 60 56 56 59 63 64 62 63 67 71 78 87 90 90 88 84 83 84 85 87 89
92 88 92 95 98 94 86 73 70 73 71 71 67 61 54 52 42 43 37 39 44 44 45 49 54 54 52 55 53 53 56 59 57 58 62 64 62 60 61 65 68 71 78 87 89 89 89 88 90 92 94 94 95 97

GFSWCAN_850_rhum_099.txt.gz
RH
80 83 100 99 89 93 91 80 73 85 71 93 99 100 94 100 96 76 46 41 29 54 71 54 47 46 49 49 66 67 64 71 84 86 89 93 87 81 83 75 88 93 91 86 90 100 93 89 74 74 87 87 89 94
84 86 100 99 94 98 83 75 66 79 66 94 99 92 100 100 85 41 35 32 28 38 81 63 60 50 49 53 49 66 57 74 68 89 97 96 94 97 84 85 63 90 81 86 85 76 83 87 79 85 93 87 87 90
92 86 95 99 97 100 84 76 60 82 58 94 100 97 100 100 75 55 34 30 22 61 72 56 62 64 64 56 52 53 66 68 75 68 82 93 83 90 90 90 75 67 81 93 85 70 64 69 89 72 69 93 91 91
95 94 93 97 97 100 84 76 51 81 66 96 99 91 100 100 78 73 51 32 24 39 73 88 73 65 60 56 56 46 45 62 69 65 75 96 88 82 90 80 85 71 66 73 80 65 84 80 59 54 51 60 74 91
98 94 99 97 98 98 85 70 36 62 78 99 100 91 100 100 90 70 58 51 38 38 88 79 74 82 78 71 61 61 57 60 59 68 89 91 84 81 88 88 94 73 72 75 71 63 68 62 55 63 69 64 73 78
84 86 91 97 98 97 84 58 34 60 82 99 100 98 100 96 83 56 58 52 46 34 43 91 83 90 83 73 66 65 62 64 71 74 88 83 75 73 94 96 66 63 58 66 72 81 88 83 82 77 74 67 62 64
87 88 91 96 98 90 83 42 43 80 95 100 100 100 100 98 70 57 52 50 55 34 31 92 91 92 86 76 80 78 73 76 71 86 82 80 75 75 98 99 61 62 68 65 90 93 93 77 83 75 74 72 76 76
97 98 96 97 91 84 80 40 77 97 100 100 100 100 100 99 83 57 53 50 31 31 35 94 96 94 88 84 89 81 78 77 77 94 95 81 83 87 99 79 63 63 83 100 99 84 84 86 80 68 70 72 82 88
99 100 98 96 80 84 70 85 100 100 100 100 100 99 100 90 73 68 70 56 38 31 63 80 95 99 92 96 89 86 84 96 91 91 90 82 88 98 77 69 64 75 89 98 99 82 86 94 88 79 77 85 95 95
99 98 98 85 79 88 61 100 99 100 99 100 99 97 99 99 81 74 63 50 35 36 52 85 78 98 90 90 92 90 93 99 99 85 84 92 92 68 62 61 64 74 88 94 99 83 89 97 94 96 100 100 100 100
97 96 96 79 87 77 95 100 98 100 100 99 99 98 99 98 86 57 59 56 59 84 77 82 84 97 90 89 92 83 98 96 88 90 92 98 96 86 67 62 77 88 90 89 100 88 91 93 99 100 100 100 99 100
97 96 84 84 82 84 100 100 98 99 98 94 80 97 98 80 85 82 83 90 82 67 95 94 89 85 85 71 83 95 92 95 92 88 96 93 86 61 76 84 87 89 90 90 98 98 88 88 100 100 100 100 99 99
94 85 85 72 69 97 100 99 100 97 69 59 62 82 83 96 92 83 84 95 93 95 99 97 97 80 77 68 82 93 86 97 89 96 94 88 62 66 80 86 85 92 94 92 97 100 99 94 100 100 100 100 100 99
82 83 70 67 100 99 100 100 96 69 62 87 96 99 93 98 92 85 85 86 72 87 96 87 95 88 78 88 87 97 85 88 98 88 88 88 57 69 84 88 96 97 98 96 93 93 97 100 100 99 99 99 98 97
72 73 78 99 100 100 100 99 90 79 94 95 78 86 100 89 100 96 81 86 90 89 70 83 88 80 98 97 94 93 99 89 89 85 88 60 57 72 85 87 97 98 97 99 95 89 95 98 96 90 65 43 30 24
61 73 78 99 100 100 100 100 100 98 99 91 89 98 100 97 99 97 93 98 90 70 58 63 93 92 94 92 98 99 92 96 86 90 65 68 75 79 78 79 98 98 98 97 97 96 90 82 53 48 53 59 60 54
67 96 95 100 99 100 100 100 99 98 97 93 99 94 90 91 97 94 92 87 78 59 93 89 85 80 92 96 96 89 90 86 56 62 76 76 70 72 75 78 90 98 99 99 100 95 91 77 77 93 97 96 97 97
88 100 100 99 99 100 100 98 98 98 97 98 97 100 99 94 94 90 86 84 67 67 67 82 77 91 93 91 94 89 73 90 87 81 81 78 75 74 76 74 77 79 91 95 96 97 99 100 100 100 100 100 98 100
94 99 99 100 99 96 99 98 98 95 98 99 99 98 99 100 97 86 87 73 60 59 68 79 92 96 92 84 81 71 83 80 91 87 81 79 77 74 72 68 68 68 70 66 65 59 52 50 50 49 48 49 53 64
99 99 99 100 100 98 97 98 96 88 98 98 98 98 98 99 99 93 82 75 66 62 75 97 78 65 66 62 67 65 64 74 79 82 82 80 80 78 70 69 68 71 74 69 48 40 41 44 47 47 49 53 54 51
99 99 100 100 98 94 96 97 97 98 97 96 98 98 98 99 100 91 85 76 71 76 92 68 60 60 69 69 67 70 75 78 78 70 64 72 76 77 80 80 79 77 76 60 40 29 25 25 26 26 27 27 31 48
99 99 100 98 97 96 95 96 96 96 96 97 97 97 97 97 98 97 94 85 86 78 68 62 58 63 65 62 64 68 71 72 71 67 65 66 68 72 79 79 79 79 76 49 25 27 36 37 38 35 30 27 27 29
99 100 98 99 97 96 98 96 96 97 96 96 96 96 96 96 96 97 95 89 80 76 69 61 59 62 67 66 64 64 64 65 67 67 67 67 70 76 84 91 93 95 89 46 28 40 42 42 41 41 39 30 29 30
99 97 98 97 96 96 97 96 97 96 96 96 96 95 95 96 96 94 97 88 81 79 71 71 69 65 66 67 68 68 68 68 65 62 65 69 68 68 71 78 83 88 89 49 34 43 42 41 42 42 41 35 32 33
98 97 96 96 97 95 96 96 96 96 96 95 95 95 95 95 97 100 95 77 72 74 74 80 80 79 75 71 64 58 55 53 52 58 62 66 69 77 85 86 83 82 75 43 41 45 45 45 44 44 41 40 42 45
95 96 96 95 96 92 96 95 95 95 95 95 94 96 95 93 97 90 86 64 66 65 61 60 66 67 62 53 52 51 50 51 54 60 63 64 70 76 75 67 52 44 38 37 42 44 44 44 45 45 46 45 44 45
95 96 87 87 90 92 96 96 96 95 95 94 94 96 94 90 87 81 67 68 65 58 58 59 60 61 42 34 35 36 38 37 39 42 41 42 37 31 32 32 34 36 37 39 42 44 45 46 46 46 45 45 46 47
92 84 91 90 85 82 93 96 95 94 90 82 84 92 86 81 77 69 66 63 60 63 63 66 61 38 34 52 56 52 46 38 34 32 31 32 36 37 37 38 40 41 43 45 48 52 56 57 58 58 60 59 57 60
91 87 84 97 96 96 96 96 94 90 83 80 88 90 83 70 67 61 62 61 65 66 61 48 51 60 60 54 43 33 30 33 38 38 38 37 38 39 43 48 54 58 60 60 58 59 61 64 67 72 74 75 77 78
96 96 96 96 95 95 96 96 95 91 84 75 69 64 63 63 61 60 62 56 53 56 56 62 59 54 41 31 32 38 41 41 40 40 43 46 52 56 59 58 57 58 60 64 67 68 71 74 75 78 84 86 88 86
96 96 95 95 95 97 98 93 85 74 64 61 59 57 60 58 60 60 58 53 52 52 50 40 26 28 33 38 41 41 40 42 45 48 54 58 58 56 56 60 64 65 64 65 68 73 75 80 85 84 81 81 84 88
96 95 92 95 96 95 88 80 75 72 66 63 57 53 49 48 51 49 51 46 39 32 30 30 29 33 40 45 45 44 48 48 50 54 55 53 57 61 61 58 58 62 65 69 76 82 84 81 81 84 85 86 89 92
95 94 95 95 96 95 83 71 70 71 70 70 69 61 57 47 46 45 43 44 40 38 36 36 42 48 50 49 50 51 50 51 52 52 55 58 58 56 55 59 63 67 72 76 80 81 81 83 86 88 90 92 94 94

GFSWCAN_850_rhum_102.txt.gz
RH
51 79 92 89 100 90 97 95 84 83 45 63 75 100 100 100 94 94 63 48 34 52 73 58 53 45 49 51 68 68 66 76 80 85 91 94 88 84 83 79 86 88 88 80 90 94 90 84 74 68 83 86 90 94
60 79 85 86 100 94 98 98 88 80 55 59 72 99 100 98 100 94 72 44 36 37 81 69 73 56 46 44 51 68 50 72 64 86 96 96 95 98 84 89 73 94 82 88 85 80 70 82 79 84 95 99 96 96
86 81 85 87 99 99 88 92 91 83 59 59 71 99 100 100 100 94 50 40 30 54 71 65 71 72 68 52 44 48 63 64 66 63 82 92 86 90 93 92 74 68 84 96 83 72 70 64 92 67 53 60 69 75
83 83 88 88 98 99 90 91 90 83 63 60 74 100 94 100 98 54 41 34 33 37 72 80 72 70 65 55 51 46 47 62 66 62 74 96 84 81 88 75 84 72 76 82 81 65 75 87 58 62 64 65 63 69
89 87 88 89 95 96 89 85 85 89 64 54 80 100 100 100 85 64 52 40 32 31 83 85 79 81 76 64 53 55 57 61 58 64 88 90 86 83 91 88 95 76 75 77 72 63 66 64 64 68 78 77 73 70
89 84 83 84 88 96 92 81 85 88 61 55 89 100 100 100 78 73 61 52 52 33 39 90 86 86 77 68 64 61 58 58 65 71 90 86 79 74 93 93 64 63 60 56 66 78 83 78 80 78 85 79 77 76
88 89 86 78 76 90 94 82 77 87 56 54 88 100 100 100 87 78 58 57 55 45 32 93 94 90 77 68 70 70 67 70 68 85 85 80 79 78 98 97 60 62 65 71 75 92 88 84 85 78 79 75 76 84
96 98 96 92 86 87 93 82 75 84 59 67 98 100 100 100 100 97 62 57 46 40 33 92 96 92 86 82 83 81 77 76 81 94 94 82 88 89 99 78 66 70 71 75 99 98 85 83 86 80 82 83 82 76
92 90 92 99 98 92 89 81 73 79 76 98 100 100 99 100 100 89 72 66 51 39 51 79 90 96 90 93 88 86 82 96 92 91 89 86 89 97 77 68 65 63 69 80 93 95 85 87 96 90 92 100 99 97
94 96 98 100 98 92 87 78 77 83 100 99 100 98 99 99 92 82 60 48 42 42 38 78 81 98 87 94 96 92 96 99 99 84 89 96 93 68 60 59 57 63 74 91 97 93 82 92 98 98 100 100 100 99
94 99 99 99 90 88 83 93 81 100 100 100 99 98 100 100 90 84 61 60 58 85 66 77 84 96 93 90 97 83 99 91 93 88 95 96 98 85 59 55 62 70 88 87 86 90 86 87 97 100 99 100 100 100
98 98 99 92 88 93 97 89 100 98 99 93 85 98 99 98 100 95 86 88 78 65 96 95 86 78 83 73 90 96 93 93 94 89 84 96 86 60 69 64 77 88 89 89 88 92 97 84 85 99 99 99 99 100
97 92 96 89 99 94 99 100 100 99 88 86 82 98 93 99 99 87 85 96 95 98 98 97 98 78 78 69 90 94 90 96 85 94 86 88 63 63 79 88 90 91 94 91 88 95 99 98 91 98 100 99 96 97
97 92 98 100 96 98 100 100 100 91 74 75 93 100 92 99 94 86 83 86 68 90 99 85 99 85 77 86 91 93 82 88 98 93 89 88 58 63 86 91 91 97 99 96 90 89 90 90 97 98 100 93 82 77
96 94 92 93 92 100 100 100 100 92 95 85 78 93 99 86 99 86 83 91 91 88 67 80 86 80 98 97 90 94 98 90 86 89 87 58 55 68 85 96 100 98 98 97 96 91 90 89 91 88 68 47 37 29
96 95 83 79 100 100 100 100 100 100 99 88 89 98 98 97 98 96 96 98 88 68 55 56 94 93 97 92 96 97 91 92 85 91 57 60 57 72 80 79 91 98 98 97 99 96 92 88 76 53 53 61 70 79
79 87 90 80 99 100 100 100 99 98 98 96 99 96 92 90 96 94 93 86 77 57 90 91 82 77 94 98 100 91 92 85 59 57 70 59 60 72 74 77 84 91 96 98 98 97 91 88 72 72 93 100 100 100
91 96 100 100 99 100 100 99 99 98 97 98 97 100 98 98 94 91 88 82 68 64 63 78 79 97 94 88 93 89 68 87 73 69 72 75 73 71 73 74 74 78 94 97 94 94 96 95 96 96 96 96 98 99
70 81 99 99 99 97 100 99 98 96 98 99 100 100 100 99 88 80 83 73 57 52 62 76 88 94 90 85 82 72 83 81 93 90 85 77 74 71 72 73 74 68 70 68 63 61 52 48 49 46 46 49 49 51
99 94 88 100 100 99 97 98 98 89 98 99 98 98 98 100 100 94 78 68 60 60 76 86 74 63 65 62 62 56 62 72 78 83 82 78 74 73 72 68 64 65 69 75 70 51 43 43 38 31 30 29 29 34
99 100 98 99 99 98 97 97 96 97 97 96 98 98 98 98 98 83 76 68 60 68 88 63 57 58 65 70 71 63 65 72 73 66 68 74 74 78 79 76 76 74 76 77 68 49 32 26 30 31 31 29 27 26
99 99 99 99 97 97 96 96 94 96 95 97 97 97 98 97 98 98 86 79 80 71 60 56 54 66 71 67 67 76 75 80 78 73 68 66 71 73 75 80 87 83 82 78 67 35 26 36 41 41 41 40 36 30
100 100 100 100 96 96 97 97 95 97 96 96 97 96 96 96 97 92 91 84 76 71 60 54 54 65 62 60 58 59 61 64 64 64 63 63 64 67 72 80 85 87 89 91 85 32 35 43 43 41 42 42 41 36
98 98 98 97 96 96 97 96 97 96 97 96 96 96 96 96 97 96 96 86 75 70 66 60 54 64 70 67 64 61 62 62 65 67 67 68 69 70 72 78 87 97 99 97 92 51 37 45 45 45 46 45 43 41
97 97 97 96 97 94 95 96 96 96 96 96 95 95 96 96 96 97 93 77 72 78 76 74 70 66 60 66 69 67 64 59 57 57 60 64 66 66 71 82 81 80 81 84 84 61 46 48 49 49 47 46 46 45
94 96 96 94 97 90 94 96 96 95 96 95 95 96 95 95 95 89 87 68 67 72 74 74 74 74 74 70 62 56 51 52 52 57 61 64 67 75 78 73 62 51 50 50 47 46 47 49 48 47 48 49 50 52
95 98 91 95 93 92 96 96 95 95 96 95 95 95 95 95 85 80 65 69 69 66 68 75 77 72 61 53 51 50 54 58 62 61 57 59 54 40 32 32 34 37 38 41 44 45 47 49 52 56 57 58 60 63
93 84 93 93 96 94 95 97 95 96 96 96 95 95 92 81 78 72 74 70 66 64 64 64 64 58 43 40 40 37 39 41 42 41 36 32 33 35 34 35 37 39 44 50 54 57 57 57 57 60 63 65 68 70
92 86 81 96 96 96 96 96 96 96 94 92 94 87 85 76 75 70 71 70 68 66 61 62 55 35 45 54 51 41 34 31 33 34 35 34 35 36 41 46 54 57 58 56 56 59 62 65 67 70 72 76 79 82
96 98 94 96 95 95 96 96 96 91 85 82 73 70 69 70 66 69 72 72 72 73 62 44 38 52 56 50 39 34 34 37 37 35 37 42 47 51 56 57 55 55 58 60 60 60 64 70 76 82 83 81 82 81
97 95 94 95 94 96 96 96 96 96 92 72 63 61 66 64 68 69 69 74 73 63 59 61 61 54 42 33 32 34 35 37 41 44 46 50 54 53 55 58 60 58 57 59 63 68 72 76 77 78 82 83 86 89
96 96 95 95 95 95 95 95 93 79 69 63 59 60 58 57 58 62 58 60 60 59 60 53 41 32 33 39 41 41 41 43 46 48 49 49 53 56 57 55 54 56 60 64 68 68 73 78 81 83 84 87 88 89
95 95 95 95 95 96 95 94 79 77 72 72 67 58 55 50 56 53 55 49 47 42 36 32 36 41 43 46 46 46 48 48 48 48 49 53 53 51 50 55 58 62 66 69 70 75 79 79 81 84 86 87 88 89

GFSWCAN_850_rhum_105.txt.gz
RH
99 98 88 44 64 83 81 76 83 82 82 76 51 75 100 100 84 94 88 82 64 53 73 64 54 46 48 50 67 68 65 74 80 82 89 95 88 87 86 81 84 86 93 93 85 92 81 78 71 71 74 86 87 94
98 99 52 42 72 81 80 78 79 84 82 75 53 73 98 100 100 100 92 79 48 45 75 72 66 55 46 43 46 65 48 70 62 83 94 96 94 98 83 88 79 92 78 85 80 74 57 84 75 80 93 90 87 91
99 71 38 58 75 96 83 80 82 77 78 72 57 66 100 100 100 98 88 49 42 54 74 68 68 65 63 49 45 45 58 56 59 58 80 91 82 89 92 92 75 74 84 97 87 73 78 69 86 87 61 69 68 67
72 37 48 63 81 94 89 82 79 80 75 74 52 66 98 100 100 99 87 45 37 41 65 75 68 64 59 54 50 45 46 59 61 60 69 94 80 81 85 69 78 74 85 88 87 71 66 86 82 62 66 70 70 67
38 52 55 77 92 98 91 84 84 84 79 73 45 59 100 99 100 100 93 54 38 38 74 83 72 72 64 59 52 50 55 60 57 59 87 88 86 85 92 89 95 77 80 81 69 59 57 63 66 73 78 79 75 76
59 70 86 87 82 91 92 90 89 83 80 73 49 72 100 100 100 82 51 44 42 35 36 86 84 80 73 69 64 61 59 54 56 64 88 86 82 76 92 92 61 61 60 54 55 56 67 79 81 82 82 76 77 80
89 94 88 74 76 83 72 78 83 88 77 73 65 79 99 100 96 63 52 49 46 44 33 95 97 84 74 67 64 64 61 62 62 81 84 80 81 81 97 94 55 58 59 60 66 75 86 84 82 81 76 73 79 83
91 77 78 85 90 92 87 75 70 88 78 74 77 85 100 100 96 69 57 60 46 48 35 93 98 93 79 73 77 76 72 74 80 91 91 84 90 91 99 77 63 63 69 72 71 92 93 87 86 83 74 78 97 83
74 93 94 90 93 92 92 84 69 85 77 82 83 90 100 100 98 97 74 68 56 39 49 79 84 90 87 90 89 85 77 96 93 91 90 87 90 97 74 66 66 68 66 66 85 96 93 85 90 88 97 99 100 100
90 91 93 90 92 94 99 87 78 86 79 100 92 100 99 99 99 99 85 65 48 42 38 84 77 97 88 94 98 91 97 98 98 82 92 98 94 67 58 58 54 59 62 74 90 97 84 85 97 98 99 100 99 100
79 83 93 95 92 92 99 92 87 85 97 99 100 99 100 100 98 99 99 96 62 80 58 74 76 96 88 89 96 84 97 95 95 88 96 97 97 86 60 56 56 58 68 82 87 84 82 84 91 99 100 100 100 99
88 91 89 92 100 98 100 91 92 99 98 96 98 99 100 98 100 98 97 89 82 81 85 91 80 75 82 74 90 96 94 94 89 88 88 96 89 62 66 58 64 67 82 86 88 99 92 85 81 82 93 99 98 96
93 97 98 98 98 100 96 96 98 100 97 99 98 100 99 99 98 96 97 93 91 96 92 94 96 78 82 71 94 93 96 94 86 90 89 88 66 68 68 60 66 84 85 88 91 99 99 100 93 89 87 93 87 87
98 99 99 100 97 94 99 100 97 98 100 100 98 98 93 100 93 89 83 83 63 82 90 79 99 84 77 87 92 92 83 81 94 98 89 89 61 74 84 83 78 86 93 92 98 99 92 85 90 95 96 95 81 64
97 98 99 100 99 98 100 99 99 98 100 96 77 94 99 88 95 81 76 80 82 81 75 76 84 76 99 97 89 87 91 94 90 87 86 58 58 73 87 87 92 95 99 98 96 90 88 86 88 86 83 62 45 42
100 100 99 97 98 96 96 100 100 100 96 81 87 98 98 97 100 95 96 98 88 77 50 52 95 93 94 91 94 100 92 91 80 92 57 57 59 70 80 85 92 97 99 98 99 93 91 89 87 77 56 54 68 83
99 99 99 100 100 100 100 98 100 100 98 93 99 98 91 88 94 95 88 90 74 56 83 90 72 70 94 100 100 87 90 83 61 57 60 54 57 68 77 75 80 83 96 98 100 100 95 94 91 76 76 100 98 98
88 96 99 99 99 99 100 99 98 98 97 100 97 100 100 98 91 90 86 81 63 61 59 74 79 99 90 85 92 88 71 69 60 66 63 57 66 72 72 70 70 73 88 99 99 99 98 93 87 81 70 59 51 50
76 99 100 99 98 97 100 98 98 96 98 98 100 99 100 100 88 82 86 73 55 48 53 71 85 88 84 83 81 71 79 92 89 81 71 72 73 69 70 74 67 66 70 70 62 65 64 53 46 47 45 38 32 34
94 96 100 100 98 89 97 98 98 91 98 99 98 98 100 100 97 89 77 63 54 58 75 83 67 59 62 57 56 52 59 68 74 85 84 78 74 72 70 66 64 66 67 70 74 73 57 44 39 29 27 27 26 25
99 100 100 99 100 98 96 96 97 97 97 96 98 98 98 98 98 89 73 64 56 64 86 59 53 55 64 61 55 57 61 72 70 65 67 75 74 75 77 77 74 70 68 72 77 76 57 34 28 33 38 38 37 35
97 99 99 100 98 97 95 96 95 96 94 98 97 98 98 98 98 98 95 79 76 63 56 53 52 65 73 68 59 65 72 80 70 65 67 67 69 74 78 77 78 78 83 87 87 74 47 28 35 43 43 42 42 41
100 100 99 99 96 95 97 96 95 99 96 97 97 97 97 97 98 98 98 88 74 65 50 48 56 72 67 72 74 77 82 80 75 71 68 67 68 69 69 72 78 88 96 94 91 92 72 33 41 45 45 44 45 46
98 99 98 97 96 98 97 97 96 96 97 96 96 96 97 97 97 97 96 87 74 60 58 49 58 71 76 75 74 72 70 69 63 60 60 61 62 65 69 72 77 86 98 99 100 100 90 43 44 48 48 48 49 48
98 97 97 96 98 94 96 97 98 96 96 96 95 97 97 96 96 98 94 80 73 75 70 62 58 58 53 62 63 61 59 61 62 61 61 60 61 65 66 67 72 75 78 82 89 91 89 64 50 50 51 52 49 48
95 96 96 94 98 91 94 97 96 96 95 96 96 96 96 95 96 93 88 72 68 71 75 70 64 68 68 61 57 61 63 60 53 54 58 61 65 72 78 74 63 54 46 44 42 47 50 51 51 51 51 54 57 58
95 96 95 96 91 91 97 94 93 95 96 95 95 96 95 96 95 85 65 67 67 66 73 75 71 63 60 63 64 58 52 52 54 60 60 64 70 66 40 33 36 36 36 38 41 45 50 54 56 57 57 57 61 65
90 87 94 97 96 92 96 97 95 96 96 96 94 94 94 93 85 75 76 75 73 76 82 87 84 78 73 64 52 49 55 61 56 48 44 40 36 35 33 33 35 38 45 53 56 55 54 55 56 57 58 59 62 68
93 91 90 96 96 95 96 96 96 97 96 96 96 96 92 77 76 74 75 74 77 77 80 79 75 64 53 52 51 45 41 41 36 29 32 31 31 33 37 44 51 55 53 51 52 54 54 55 58 63 68 70 72 76
96 97 94 96 96 95 96 96 96 96 96 96 92 82 74 72 71 75 78 75 74 69 62 58 46 44 41 44 44 40 35 35 36 31 30 33 40 45 51 52 50 51 53 53 53 56 61 66 70 73 76 77 76 78
97 94 94 95 94 96 96 96 96 96 95 89 69 66 70 70 76 86 85 79 75 72 67 46 41 53 52 44 37 32 36 35 35 38 39 40 42 43 45 50 52 52 52 54 57 61 65 68 73 74 75 79 81 82
95 96 93 95 96 96 96 95 95 95 95 83 64 62 62 63 66 74 82 81 75 61 48 48 58 54 43 39 38 36 33 35 38 42 42 42 41 47 51 51 51 53 55 58 64 69 73 74 75 79 80 82 82 83
95 95 95 95 95 95 95 95 94 94 93 80 69 64 60 59 68 62 69 74 66 60 64 61 48 41 39 40 40 38 38 41 44 45 44 45 48 48 48 52 55 58 62 67 71 73 75 76 77 79 80 81 83 84

GFSWCAN_850_rhum_108.txt.gz
RH
98 98 95 99 99 99 38 55 95 92 82 79 72 67 96 99 94 98 63 84 96 60 60 60 57 48 47 51 46 65 56 65 61 64 66 60 56 59 64 60 66 57 65 68 68 77 54 50 67 63 64 79 81 87
99 97 92 100 98 87 41 54 92 92 89 79 70 59 97 98 100 94 72 91 78 57 60 62 58 53 47 42 45 61 49 61 53 51 68 69 62 80 61 43 61 64 48 53 52 41 49 76 69 76 86 84 78 77
99 92 99 100 94 53 50 54 89 92 91 75 72 57 93 99 96 95 87 86 73 52 68 67 67 66 57 48 46 52 49 48 58 50 69 62 63 60 53 52 58 65 64 63 70 54 56 64 82 85 79 72 78 76
99 95 99 94 75 39 56 94 82 92 95 77 69 60 81 100 99 99 91 80 67 44 60 67 64 64 58 51 47 48 47 52 56 58 69 60 50 68 52 51 52 51 68 63 66 60 65 66 75 78 75 70 72 69
90 98 95 89 40 43 58 96 83 94 95 85 67 67 71 100 96 94 96 70 46 40 62 80 70 66 58 49 52 50 50 57 57 64 62 56 67 67 69 67 58 58 56 54 38 48 44 62 71 68 75 79 74 79
95 97 96 62 39 50 88 98 88 87 92 89 74 69 88 98 99 100 99 90 72 51 42 78 75 76 71 68 65 62 62 57 53 68 66 78 79 70 65 57 40 56 57 55 42 52 59 66 73 76 69 72 70 76
97 96 79 46 46 73 96 91 86 81 91 88 75 74 91 100 100 100 92 73 79 42 33 91 85 80 72 66 63 62 60 60 60 77 77 72 76 81 75 60 40 55 58 55 55 58 77 77 78 76 74 76 82 90
94 78 47 58 82 96 86 84 84 72 89 86 75 79 91 100 100 100 83 58 62 38 34 85 88 86 74 74 75 68 70 68 76 86 90 74 84 81 80 53 60 61 63 70 68 67 78 81 77 78 80 95 100 82
64 48 60 96 94 91 76 82 84 73 78 85 81 81 100 100 100 98 91 56 50 42 53 75 81 81 81 90 88 85 72 73 84 76 75 78 65 85 54 52 61 64 66 63 69 79 91 89 87 86 95 98 100 100
50 60 65 65 74 88 88 90 89 85 80 85 94 100 99 99 100 88 86 64 55 49 43 62 79 81 84 88 90 79 92 78 81 65 91 83 70 58 56 51 48 53 57 59 86 97 98 89 90 93 96 98 99 99
58 58 66 94 97 95 92 90 93 95 82 100 98 98 99 100 100 100 100 90 68 77 65 73 74 82 81 75 77 81 85 85 86 74 82 82 79 69 60 50 53 54 59 63 71 78 82 81 88 96 98 96 100 100
61 68 80 90 92 92 87 92 100 100 100 98 88 95 99 100 100 99 97 99 96 78 78 75 77 77 80 67 76 88 84 91 80 79 86 85 69 60 65 54 55 57 60 69 80 83 83 83 85 89 99 100 95 94
77 78 83 87 93 97 94 92 100 100 99 96 96 99 99 99 98 97 96 95 94 88 92 88 90 85 77 72 86 82 90 84 79 87 77 68 64 60 66 59 59 63 73 81 85 100 99 99 100 94 98 98 94 88
82 85 87 88 86 94 100 99 100 100 96 87 99 99 98 98 90 84 76 82 70 83 81 66 90 77 82 80 82 80 71 74 90 92 74 52 63 63 64 65 64 75 81 84 100 99 98 98 95 96 98 95 92 68
93 86 89 90 90 98 100 100 99 100 84 99 100 97 98 88 96 85 70 77 74 75 68 73 80 74 85 90 72 83 95 93 77 67 59 66 58 66 63 62 63 76 81 84 95 100 97 89 91 89 87 82 61 46
91 96 98 96 97 98 100 99 100 97 74 98 98 98 94 92 98 97 91 88 79 71 52 46 84 83 79 81 93 93 80 79 70 77 60 56 64 67 68 71 73 72 76 85 91 91 91 92 91 87 77 60 58 73
98 98 100 100 99 99 100 100 99 90 98 98 97 99 86 84 90 95 85 85 74 58 74 85 75 68 84 94 87 74 82 72 69 55 55 53 58 71 75 76 74 72 74 93 100 100 96 93 92 90 80 84 99 100
98 98 100 99 100 100 100 98 99 94 97 97 98 100 100 93 90 89 82 80 67 62 59 73 79 97 84 80 78 77 75 58 54 56 57 55 59 69 67 63 67 70 75 94 100 99 98 99 88 74 65 57 54 52
87 100 100 100 99 97 99 99 96 97 97 98 100 100 99 99 87 78 77 72 53 48 46 68 75 80 72 73 73 70 66 68 73 75 60 58 61 66 71 67 63 71 85 84 83 70 64 59 52 48 46 40 31 27
99 100 100 100 97 84 97 98 95 98 96 99 99 100 99 100 97 88 87 71 54 51 72 78 61 52 53 50 47 46 52 55 64 71 70 72 74 77 72 67 62 66 76 78 71 71 68 57 44 36 29 28 30 31
100 99 100 100 98 98 98 97 98 98 97 97 99 99 98 96 99 90 75 65 59 64 76 55 49 45 53 52 52 51 54 61 57 53 60 78 80 78 78 79 74 69 66 66 68 75 74 60 39 30 33 38 39 39
99 100 99 100 98 98 97 99 97 100 92 98 97 98 98 98 98 90 80 74 77 55 52 49 46 57 59 54 55 64 60 68 65 64 64 64 71 76 80 76 75 71 71 76 83 84 78 56 34 32 41 43 43 43
98 99 98 98 97 96 97 97 92 98 96 96 98 95 97 97 98 98 97 90 81 65 50 47 49 65 64 63 70 79 81 75 66 67 67 69 69 72 77 80 82 84 88 94 95 90 89 82 51 37 44 47 47 47
99 99 98 97 96 96 97 98 97 96 98 96 95 95 96 96 97 97 95 93 77 65 57 48 55 70 78 79 79 82 80 77 71 71 71 70 71 74 73 71 72 76 80 91 94 96 97 95 75 49 46 49 52 53
98 97 97 96 97 94 96 97 98 94 96 94 94 95 95 96 95 96 93 83 78 73 69 61 58 59 64 78 84 83 80 77 66 57 59 62 63 64 68 69 70 72 74 76 81 87 94 90 80 66 58 57 55 53
96 96 96 93 97 90 94 96 95 94 94 95 95 96 96 95 95 93 88 77 75 79 70 59 56 68 67 59 66 63 57 58 62 62 62 62 64 61 60 63 66 65 59 53 48 46 45 46 48 51 54 57 58 57
96 99 100 96 90 90 96 94 89 92 96 95 94 94 94 95 94 85 76 70 70 73 76 64 51 46 49 54 59 59 62 61 57 56 58 63 66 70 67 46 32 34 33 34 37 43 49 54 55 54 54 56 60 60
91 93 96 99 97 89 95 94 95 96 96 91 86 95 95 92 88 80 76 75 74 72 77 76 70 67 63 59 60 61 58 54 58 61 63 64 64 41 34 32 31 34 40 48 52 51 50 50 52 53 55 58 63 67
94 92 82 98 97 94 97 95 95 98 96 91 94 96 95 85 80 80 80 78 83 88 84 82 80 76 72 68 63 54 53 57 57 54 44 35 31 31 33 36 43 48 48 45 47 50 49 50 53 58 60 65 68 71
97 98 94 96 95 95 96 96 96 97 99 97 96 95 85 79 78 83 85 90 95 94 88 83 76 76 68 56 57 68 57 44 38 30 25 25 28 35 42 44 42 43 47 49 49 52 56 60 61 65 68 70 71 73
97 95 95 95 94 96 97 96 96 96 96 95 96 92 79 78 89 95 91 91 94 93 90 85 72 59 52 52 44 41 39 34 31 29 31 34 36 37 35 39 45 48 49 52 55 58 60 65 67 68 70 73 75 76
96 96 94 95 95 95 95 95 95 95 95 96 92 69 69 70 74 90 85 82 78 70 58 53 51 48 44 40 38 34 32 29 31 35 37 38 37 37 43 45 46 49 53 56 60 63 65 66 68 71 74 75 76 76
95 95 95 95 96 96 96 95 95 95 95 95 95 76 63 68 78 74 83 78 74 69 50 48 50 50 43 39 37 34 34 36 38 40 41 41 40 43 44 46 50 54 58 61 64 66 67 69 71 74 74 76 78 78

GFSWCAN_850_rhum_111.txt.gz
RH
89 91 89 99 100 99 94 96 68 48 61 82 79 76 63 88 99 100 97 100 99 82 70 49 56 52 47 45 38 55 51 57 48 52 52 44 39 43 49 41 50 49 56 56 47 60 51 46 60 61 58 63 64 72
88 92 89 100 99 99 97 97 48 48 66 81 79 73 61 98 100 100 100 100 100 82 74 55 51 48 47 46 52 57 49 47 40 41 55 56 47 64 48 33 46 50 35 42 41 38 44 47 53 62 66 62 68 68
87 92 91 100 100 98 99 94 43 42 78 84 80 72 67 98 100 98 97 96 95 78 77 69 66 52 51 45 41 54 48 54 57 58 58 48 57 45 39 40 40 48 43 49 55 38 42 55 66 67 74 65 68 68
90 90 90 100 100 99 100 94 40 47 78 83 80 71 69 99 99 100 91 88 80 62 61 64 61 58 52 48 45 44 45 45 55 60 63 52 46 49 39 45 42 37 51 48 46 40 54 54 56 67 72 75 74 71
95 90 90 100 100 100 100 87 40 50 97 89 79 72 66 92 100 99 92 88 81 60 59 66 68 64 56 50 50 51 49 63 67 62 60 51 48 54 48 52 43 38 37 46 29 33 38 49 59 69 70 70 72 75
96 93 94 100 100 100 97 67 45 67 94 89 83 79 70 75 100 100 100 92 78 48 45 74 72 72 66 60 63 61 61 67 71 60 50 56 72 64 58 46 29 30 34 35 33 44 49 57 68 73 74 72 76 77
96 95 98 100 96 100 98 54 55 92 89 89 86 84 80 80 98 100 96 94 82 58 45 85 76 85 73 68 67 69 61 73 73 67 66 59 65 72 73 48 23 36 42 52 48 56 66 73 66 75 69 73 73 93
98 99 100 100 100 98 87 52 76 96 86 89 87 86 82 86 98 100 97 78 81 77 40 84 82 81 72 69 68 68 75 79 78 66 77 64 69 67 70 44 38 43 48 56 59 60 63 71 74 76 73 80 95 98
99 100 100 100 100 97 58 61 92 94 84 84 86 87 98 98 100 99 99 74 89 73 65 76 84 87 72 74 78 82 79 70 80 67 64 68 57 79 51 38 40 49 54 58 67 74 79 82 78 81 84 92 99 99
100 100 100 100 99 65 56 91 94 90 82 81 97 100 97 99 97 98 98 94 81 77 49 62 66 77 71 70 70 70 73 65 80 58 76 73 64 48 43 47 46 50 57 63 72 80 82 87 82 80 85 96 98 99
100 100 100 98 63 56 82 91 88 82 90 99 100 100 94 100 98 100 100 99 99 100 78 57 57 77 73 70 73 67 80 75 84 71 70 74 70 60 56 50 47 53 62 66 64 68 73 78 77 79 92 98 98 98
100 100 94 57 55 67 63 72 86 97 100 98 97 100 100 100 100 100 99 99 99 83 62 62 72 75 78 73 69 77 81 84 76 69 76 79 69 60 59 60 54 61 67 71 72 72 78 76 80 88 99 97 97 100
100 85 54 54 66 77 90 95 94 97 100 100 99 100 99 98 99 99 95 99 94 76 77 80 83 82 73 82 76 75 84 79 67 81 74 66 63 57 62 63 60 68 74 72 80 91 94 96 100 100 99 99 99 96
81 56 62 62 83 96 97 94 97 100 100 98 99 99 95 96 91 94 70 71 78 82 77 61 76 75 75 78 73 80 63 70 83 85 73 44 53 56 63 60 60 68 71 75 86 94 100 98 98 98 98 98 96 89
62 63 68 79 81 89 93 93 97 100 98 99 99 96 98 84 97 93 82 76 81 64 64 61 74 69 81 85 67 79 87 89 71 67 57 56 57 57 68 74 64 68 74 83 92 100 97 99 96 90 90 92 87 67
85 91 92 82 81 89 93 95 100 100 99 100 99 98 95 95 96 96 94 87 76 66 55 45 85 85 79 80 84 86 76 78 75 81 71 58 66 68 67 68 60 63 72 76 89 99 99 100 95 92 90 82 68 58
94 98 79 78 87 88 94 100 99 99 99 99 98 96 92 92 78 85 80 79 72 60 63 91 87 73 74 82 79 65 80 77 75 64 59 54 62 66 61 59 61 69 73 75 77 85 90 89 88 87 85 82 71 82
99 95 88 88 98 100 100 98 99 98 97 99 88 94 98 98 88 88 82 76 71 56 65 91 72 89 83 83 76 76 72 66 52 52 54 60 67 58 51 54 67 68 68 74 81 89 93 88 92 93 84 71 64 55
83 79 97 100 97 96 99 99 98 92 97 98 99 99 99 98 96 83 75 76 65 60 44 73 86 83 70 71 84 80 72 56 69 71 64 68 63 60 67 68 66 65 69 73 88 89 88 76 73 64 55 51 44 31
87 96 100 100 95 89 97 98 88 87 89 99 98 98 98 99 100 89 85 86 66 49 80 86 60 49 48 44 41 43 54 50 51 78 86 84 77 70 68 66 62 66 75 72 70 67 67 64 57 48 42 33 29 30
97 100 100 99 99 98 94 99 98 96 98 98 100 95 98 98 100 100 96 77 75 92 84 53 45 37 42 46 43 44 50 47 58 54 68 79 76 72 72 65 62 68 65 62 63 69 74 71 59 45 33 31 35 39
99 100 99 98 96 94 93 97 98 98 99 100 97 97 98 97 94 95 97 97 93 62 49 43 39 39 49 56 53 51 54 63 61 59 58 58 73 79 77 66 63 60 60 63 67 73 79 79 65 46 34 36 42 44
99 99 98 97 95 93 98 97 97 98 95 96 98 97 97 97 98 82 92 80 82 58 48 42 43 54 58 62 65 62 70 64 59 58 60 63 68 72 71 69 69 67 69 74 82 89 90 82 76 60 41 40 46 49
98 98 99 98 95 95 97 97 97 97 98 97 96 95 96 95 97 98 96 96 82 61 55 43 51 69 74 80 74 76 76 72 66 65 65 62 68 74 74 73 76 78 84 89 95 97 90 87 88 89 69 52 51 54
98 98 97 95 99 96 96 96 94 88 94 92 94 95 95 96 96 95 92 89 87 79 60 51 66 64 78 74 78 80 75 70 65 65 73 74 70 74 80 83 79 74 75 84 92 88 81 87 90 82 74 65 58 52
96 96 95 94 93 89 90 95 94 92 90 96 93 93 97 93 95 92 88 82 86 92 69 52 67 79 74 70 77 78 75 76 69 63 67 67 64 56 56 60 64 69 71 74 76 73 68 56 49 49 51 54 55 55
94 94 97 95 89 85 90 86 84 86 95 94 93 95 92 95 94 86 83 82 84 91 83 71 57 60 47 72 84 88 84 65 54 54 57 62 63 60 60 61 63 56 45 38 34 34 36 44 52 52 52 54 54 55
96 94 97 94 92 87 94 91 95 95 93 87 85 94 93 92 89 87 77 75 80 90 93 85 81 64 54 67 63 54 54 58 60 59 61 64 68 70 67 44 34 30 28 31 40 47 47 46 48 49 51 56 59 61
90 95 88 99 97 93 94 92 92 96 95 85 91 96 95 90 82 80 80 80 81 85 91 88 98 93 76 72 61 58 57 54 50 60 64 68 70 45 34 29 28 33 42 46 42 44 46 46 48 52 55 59 61 64
97 98 91 96 95 96 95 100 100 97 98 99 96 95 88 80 80 83 88 91 92 97 96 89 95 93 72 65 66 68 60 55 59 54 51 43 32 26 25 31 40 41 38 42 44 45 46 49 53 56 58 62 65 69
97 94 94 90 93 99 98 98 96 96 96 96 98 95 96 91 94 94 97 96 95 98 96 94 98 97 93 82 64 55 63 64 54 39 28 22 22 28 35 35 34 38 43 44 46 49 52 57 59 60 62 65 68 70
98 94 90 93 94 95 95 96 96 96 96 96 96 95 95 95 95 92 94 97 96 96 97 96 91 83 74 64 57 55 45 34 29 23 24 27 31 32 31 35 40 42 44 47 51 55 59 59 61 63 64 67 71 74
96 97 98 94 95 95 95 96 96 95 95 96 96 95 95 80 84 82 87 91 93 94 90 84 77 68 63 62 46 35 32 28 27 29 33 35 34 33 37 40 41 44 48 52 57 59 61 63 64 65 69 74 76 78

GFSWCAN_850_rhum_114.txt.gz
RH
61 69 82 96 100 99 99 98 89 91 64 42 65 81 70 63 76 85 86 97 97 84 73 62 54 52 46 43 51 52 60 61 57 66 80 76 55 58 56 44 53 66 83 85 63 72 74 52 64 74 66 63 67 72
64 73 80 89 100 100 99 99 92 88 62 38 66 80 72 65 98 100 99 99 99 97 82 62 54 48 48 49 51 53 54 48 48 61 82 85 77 85 58 65 44 64 47 63 54 62 44 52 55 64 62 61 67 70
70 76 82 87 98 100 100 99 96 93 66 37 67 78 67 62 99 100 99 97 100 99 84 75 66 55 47 44 41 58 50 49 49 62 75 72 70 73 73 75 43 50 41 59 55 44 51 46 56 63 68 69 65 66
77 76 86 89 96 100 100 100 98 98 73 35 64 81 68 64 98 100 95 92 97 77 74 72 66 61 52 49 43 45 58 46 49 45 70 90 74 48 64 53 57 45 54 60 57 46 50 46 50 57 69 67 68 71
86 79 87 91 97 100 100 100 98 100 66 39 62 88 84 66 98 100 99 87 95 75 81 67 56 56 54 53 52 49 49 57 61 66 86 86 53 60 55 64 69 47 59 64 61 39 47 50 49 59 68 68 70 72
91 90 93 94 100 100 100 100 98 99 56 41 66 89 87 77 96 100 100 90 87 78 58 95 68 64 60 59 62 63 64 68 67 69 65 54 63 65 88 82 40 31 31 31 35 42 39 51 56 55 62 68 66 68
100 96 99 100 100 100 100 100 100 99 51 53 86 88 88 84 88 98 98 97 86 87 64 78 86 79 80 82 80 76 69 72 71 68 69 62 69 60 96 89 34 28 29 32 41 39 57 57 60 60 60 59 62 71
100 100 99 100 100 100 100 100 100 95 50 76 89 89 90 88 87 96 98 99 96 70 72 95 95 81 75 75 76 76 77 71 68 71 74 71 74 74 92 66 40 32 34 40 47 43 51 50 62 63 60 67 78 83
100 100 98 100 100 100 100 100 100 76 59 83 87 92 99 97 94 89 84 100 94 85 95 83 94 94 74 72 76 72 77 95 74 91 78 75 82 90 62 52 40 40 40 45 50 57 60 58 62 67 68 82 90 95
100 100 100 100 100 100 100 100 98 82 88 86 95 100 99 98 85 90 90 100 99 100 99 91 72 94 68 77 85 78 77 92 96 82 71 91 86 55 41 38 31 35 38 45 60 72 75 75 72 73 76 87 93 97
100 100 99 100 100 100 100 100 98 91 96 99 96 100 98 100 91 91 100 99 99 99 99 80 63 90 71 87 93 69 95 95 98 89 90 94 92 77 40 46 42 37 39 48 46 48 53 52 66 74 83 90 96 98
100 100 99 100 100 100 100 100 98 99 98 91 91 99 99 100 97 97 96 99 98 92 96 78 63 56 66 66 78 78 94 95 94 79 92 96 84 55 48 50 48 41 45 55 61 60 62 68 72 76 84 95 98 96
99 100 100 100 100 100 100 98 99 100 97 100 98 99 99 99 98 98 93 93 95 82 73 76 88 65 63 70 80 86 97 94 74 94 92 82 64 55 49 54 51 47 53 64 69 64 67 72 78 83 96 99 97 100
100 100 100 100 100 100 99 98 99 99 100 99 99 98 98 98 94 90 86 84 74 73 70 70 84 80 74 90 86 94 80 87 97 99 87 72 38 45 43 58 54 62 69 70 68 68 72 80 86 98 98 99 100 92
100 100 100 100 100 99 98 95 96 100 97 99 99 96 96 80 82 84 82 73 71 56 70 69 80 71 94 92 87 89 92 95 84 80 74 46 42 44 50 60 61 71 73 71 70 71 75 82 93 95 98 94 92 89
100 100 100 100 99 98 96 96 99 100 99 100 99 99 87 77 94 94 82 84 74 70 64 52 86 94 90 90 96 92 88 86 76 84 58 48 48 49 54 60 66 71 68 66 70 72 78 93 99 96 88 89 85 77
100 98 98 98 98 95 96 100 100 100 98 99 99 96 72 69 74 78 76 76 70 71 81 95 90 84 90 97 98 84 90 81 61 56 48 48 44 53 60 62 67 69 68 70 72 72 94 99 98 93 88 82 76 65
99 98 94 92 93 99 100 100 100 99 99 99 92 91 83 66 66 74 72 73 75 70 65 88 75 89 87 86 92 89 48 46 42 46 46 49 52 60 57 64 70 63 64 64 58 61 77 83 84 85 84 82 77 60
98 93 91 92 98 99 99 99 99 98 98 96 89 82 86 85 80 76 78 78 74 76 68 78 97 93 86 88 86 50 46 44 49 48 53 58 60 64 66 63 62 64 63 59 62 68 76 80 79 75 62 57 53 47
96 92 97 96 99 98 99 98 99 96 98 98 99 99 91 86 86 94 87 82 98 96 98 96 86 76 58 40 31 44 44 47 44 66 88 85 75 68 62 61 65 65 64 73 76 73 71 65 56 56 51 47 41 32
100 95 100 100 100 98 98 98 98 98 98 97 99 99 100 100 100 100 98 100 98 98 97 93 62 38 34 33 38 39 46 52 50 46 67 95 85 62 63 70 68 64 62 60 61 64 59 60 60 54 47 39 34 34
99 100 98 99 99 98 97 99 99 99 95 99 98 93 98 98 100 99 100 98 93 88 86 76 50 36 35 39 46 54 60 61 61 57 74 81 84 81 79 74 68 67 63 52 54 57 64 71 70 64 49 37 35 39
100 100 99 99 97 93 98 99 98 98 94 95 98 98 99 99 99 91 96 93 87 86 88 88 61 58 44 48 61 78 77 73 70 70 86 85 78 71 73 70 65 57 55 58 63 68 74 81 79 67 55 44 39 44
98 99 99 98 94 97 98 98 98 96 98 99 98 98 99 98 99 99 97 97 82 78 86 91 95 76 71 80 68 70 79 84 78 85 87 76 74 74 68 63 62 60 61 68 74 83 89 89 87 86 87 80 61 53
98 98 98 97 96 95 97 98 98 97 97 97 97 98 99 98 97 97 97 93 87 82 88 95 98 99 95 75 74 79 79 82 76 80 84 72 63 73 79 78 76 78 78 80 81 88 92 88 83 87 89 80 73 57
97 97 97 94 98 90 94 97 97 96 96 96 96 97 96 96 97 96 94 82 93 94 77 80 96 98 93 73 79 86 83 79 78 78 78 76 68 60 65 71 78 86 79 72 74 79 81 82 84 71 51 46 49 49
96 96 98 93 84 85 98 96 82 94 96 95 96 98 97 96 96 92 87 95 98 99 93 87 80 90 84 83 86 88 88 78 75 71 80 89 88 82 74 60 60 61 64 65 70 65 49 39 39 46 47 46 46 49
97 93 97 97 94 87 94 96 96 96 94 87 88 100 96 90 91 94 85 80 86 100 100 99 99 98 85 83 81 78 81 84 81 95 92 85 83 73 65 65 62 58 47 38 32 31 40 45 41 43 44 48 53 57
96 94 82 99 98 97 97 96 96 96 91 84 95 99 99 94 88 84 84 90 100 98 98 98 99 98 90 88 86 87 76 56 53 68 74 75 73 72 71 57 34 29 26 29 41 44 40 42 43 46 50 56 58 59
98 98 96 96 96 96 96 96 97 98 97 95 92 92 81 80 81 82 84 89 98 97 97 98 97 95 95 95 99 97 78 50 52 55 48 52 61 57 38 31 25 30 39 40 36 39 41 44 46 53 56 58 60 62
95 88 93 95 99 96 94 95 96 97 96 95 96 92 93 88 92 93 92 93 100 98 96 98 98 99 97 96 85 81 81 77 77 57 54 56 43 30 24 27 37 38 34 39 40 42 44 49 53 55 57 59 61 63
96 94 94 98 100 95 95 96 96 96 96 95 96 94 93 96 96 94 99 100 100 97 96 97 97 97 99 99 97 95 93 70 55 58 45 31 22 23 32 36 33 37 40 41 43 45 51 53 54 57 58 60 64 67
94 93 94 95 99 97 96 93 96 96 96 96 96 95 96 96 96 93 96 100 98 96 96 97 98 98 98 99 98 89 63 56 40 26 23 25 28 30 30 34 38 39 42 44 47 52 54 55 57 59 62 64 67 70

GFSWCAN_850_rhum_117.txt.gz
RH
95 95 86 82 74 100 100 90 82 88 92 84 37 46 70 56 49 50 68 83 81 84 81 80 68 54 50 47 61 55 58 61 65 70 87 87 62 63 57 54 62 68 86 87 79 80 59 60 70 65 57 69 67 73
95 97 88 86 72 99 100 99 88 88 92 85 51 40 71 61 52 72 85 90 92 91 81 76 74 70 55 51 56 54 57 56 51 74 88 93 79 92 64 64 48 58 56 62 62 58 40 56 53 55 59 59 67 73
97 97 89 89 72 97 100 99 96 90 93 85 71 37 67 67 61 99 99 95 100 99 94 95 73 65 62 49 49 55 51 52 52 63 73 79 70 84 77 81 55 53 49 57 51 37 52 43 55 58 60 59 65 68
97 97 90 92 79 92 100 99 100 97 97 86 77 39 70 68 66 100 98 93 94 90 88 76 68 63 54 50 47 46 54 56 57 52 64 94 73 57 68 53 61 50 54 59 68 56 47 46 47 58 61 64 65 65
94 97 94 95 91 86 100 100 100 100 99 91 78 39 69 72 77 98 99 78 93 82 83 61 58 57 57 57 51 50 50 51 55 56 89 89 67 66 68 70 79 51 62 60 52 42 40 42 41 50 59 63 63 62
99 97 96 92 99 91 100 100 100 100 99 94 76 41 84 88 88 100 99 87 82 100 69 83 66 57 54 54 58 54 53 60 71 73 75 62 61 61 92 90 54 35 32 29 35 32 40 39 48 55 56 60 59 62
99 98 98 91 94 97 99 100 100 100 100 98 64 56 87 88 91 96 99 99 90 95 79 72 77 80 73 73 76 77 71 70 70 68 76 70 65 63 97 91 41 24 23 27 33 37 53 51 50 55 52 55 58 56
100 100 99 95 98 99 100 100 100 100 100 99 54 79 90 91 91 94 99 100 99 98 76 92 95 82 82 80 78 74 74 74 69 68 77 77 75 78 92 68 27 30 26 31 33 35 35 37 43 49 55 56 56 67
100 100 100 100 100 100 100 100 100 100 100 79 79 92 97 100 99 83 80 96 100 86 99 99 96 85 78 76 81 79 78 98 72 87 85 78 87 92 64 47 35 29 32 30 36 41 42 41 43 54 57 59 62 78
99 100 100 100 100 98 100 100 100 100 100 98 99 99 100 98 89 81 75 90 100 100 100 99 76 95 72 81 89 83 82 95 99 84 72 92 88 58 40 29 28 23 26 34 48 64 58 55 56 57 56 56 63 78
100 100 100 100 100 100 100 100 100 100 98 99 99 100 95 100 93 80 99 99 99 99 99 95 75 91 70 90 93 74 95 96 98 80 89 93 95 77 23 26 33 38 29 32 27 26 40 40 48 53 62 69 81 88
100 100 100 100 100 100 100 100 100 99 100 96 95 96 100 99 99 98 96 96 99 91 98 97 75 52 64 65 79 85 92 95 97 82 95 95 76 32 34 33 32 43 42 35 36 36 41 47 48 53 60 75 85 89
100 100 100 100 100 100 100 100 100 100 100 99 99 99 97 99 98 99 97 98 99 97 99 82 90 59 70 66 77 91 96 96 81 99 92 82 42 23 33 37 37 47 45 39 42 47 49 54 59 62 69 80 84 98
100 100 100 100 100 100 100 100 99 100 100 98 99 98 97 98 90 87 87 89 70 77 83 75 84 73 68 93 87 90 80 88 100 100 93 72 28 21 31 40 43 48 45 46 52 58 61 64 65 71 76 79 98 99
100 100 100 100 100 100 100 100 99 100 97 99 99 97 97 84 78 78 62 66 69 69 77 72 84 68 97 88 92 91 98 95 83 78 74 29 25 28 28 35 43 48 52 55 60 64 68 67 67 72 77 89 99 98
100 100 100 100 100 100 100 99 99 99 99 99 98 98 92 90 100 99 84 70 67 74 68 56 90 94 90 92 98 96 91 90 78 86 32 36 35 35 37 43 49 53 57 63 65 64 67 70 68 69 84 91 90 90
100 98 99 99 100 100 99 99 99 99 96 99 99 97 82 75 81 84 74 65 72 76 87 94 90 89 89 99 100 88 91 82 47 30 32 26 31 31 34 43 52 60 66 68 68 70 70 77 81 86 77 83 87 83
100 99 100 100 100 99 99 98 98 98 99 99 98 99 85 66 67 70 59 68 78 75 66 85 70 98 95 90 92 88 61 37 33 29 30 34 32 33 36 36 49 60 69 71 66 68 78 83 75 77 83 85 80 79
100 98 100 100 98 98 99 99 99 98 96 96 88 69 76 76 65 55 52 50 62 65 61 80 88 97 95 89 85 44 39 37 33 30 39 44 37 36 37 54 54 64 71 72 75 73 67 61 72 81 78 80 80 70
100 100 100 99 98 98 98 98 98 98 99 97 87 85 78 76 68 65 63 73 78 78 95 99 95 83 78 57 50 46 40 50 53 58 56 52 53 44 48 54 61 67 73 78 75 68 77 84 83 78 68 63 56 51
99 99 99 99 99 99 98 98 99 99 94 98 99 94 96 96 92 90 89 85 92 99 92 75 64 60 59 59 57 52 33 34 47 58 58 75 70 70 72 73 68 72 78 77 74 80 75 66 60 59 59 52 46 38
100 99 99 99 98 98 97 99 92 98 96 100 100 93 98 98 99 96 96 99 98 86 78 69 70 72 63 58 56 48 42 41 63 70 65 66 74 85 81 84 81 82 74 65 64 55 57 60 62 60 54 45 39 35
100 99 98 99 97 97 97 98 96 97 97 98 99 97 97 99 94 98 98 96 83 72 68 68 62 64 65 64 58 45 46 57 64 82 75 84 80 87 95 89 77 66 68 67 53 53 60 67 70 69 64 55 46 39
99 99 98 98 95 96 97 97 97 98 98 97 97 96 98 96 100 99 98 98 70 64 65 65 69 74 71 70 67 55 54 70 70 82 83 91 99 98 88 85 73 61 48 48 56 62 70 76 78 74 72 74 74 62
98 99 97 97 97 95 96 96 96 97 99 98 100 100 99 99 98 97 97 86 62 64 62 67 73 84 88 95 90 93 86 98 85 89 99 100 96 97 94 87 84 78 63 59 63 71 78 84 84 84 83 86 81 75
95 97 95 95 96 90 96 100 100 98 99 100 98 97 98 98 100 95 92 70 65 65 73 84 96 100 100 98 98 99 95 99 92 93 99 100 88 79 81 84 82 79 75 74 73 82 86 86 82 80 80 67 49 48
95 96 98 93 86 91 98 93 90 95 99 96 98 99 96 96 94 86 82 90 93 92 86 86 84 96 100 99 100 100 99 99 96 94 98 99 87 77 65 63 70 78 81 86 86 84 75 70 68 51 40 46 46 46
96 93 96 98 97 88 96 97 98 94 93 91 90 100 94 90 86 85 84 82 91 100 99 99 100 100 99 98 99 100 99 99 97 92 96 99 92 88 91 95 95 92 90 86 81 72 56 36 36 41 41 43 45 49
98 94 82 100 99 97 96 93 94 94 88 85 92 95 91 88 89 80 74 73 89 100 100 100 100 99 99 100 99 99 99 97 93 95 95 99 98 97 94 83 74 78 81 66 46 34 39 41 38 40 42 46 50 52
100 95 96 99 95 100 97 94 97 98 94 91 95 95 88 80 75 74 74 78 93 98 98 98 98 98 98 98 97 98 98 98 93 77 73 68 73 74 68 68 61 53 36 27 30 38 37 39 40 42 48 50 53 54
96 87 95 96 99 98 96 95 97 97 96 95 98 95 86 79 82 84 80 82 93 96 96 97 98 98 98 98 96 97 98 96 78 73 86 80 57 55 70 49 33 26 30 36 32 35 38 41 45 47 49 51 54 58
96 94 95 97 99 98 96 97 96 95 97 95 95 93 95 96 96 85 88 92 95 97 96 96 97 97 99 97 98 94 77 78 94 97 55 49 52 54 37 28 29 37 33 37 40 41 44 45 46 50 51 55 60 62
95 94 94 96 96 96 96 96 96 98 95 95 95 95 96 97 95 92 92 94 95 94 96 96 97 98 98 99 97 89 94 99 96 60 57 52 38 26 23 32 33 34 38 40 43 46 47 48 51 53 57 60 62 67

GFSWCAN_850_rhum_120.txt.gz
RH
100 96 95 94 95 81 70 77 90 98 93 98 89 65 33 48 40 53 58 70 73 79 72 74 71 61 54 51 61 54 53 59 64 70 86 89 62 60 67 53 65 62 85 90 86 84 42 65 70 59 46 68 63 70
100 100 98 97 99 92 81 70 88 92 95 100 93 81 32 48 56 46 55 78 82 84 80 77 74 63 61 62 50 56 52 58 53 73 89 94 85 94 64 52 53 63 54 58 60 53 35 61 46 44 52 56 64 60
100 100 100 100 100 100 87 73 91 94 89 99 98 86 44 47 62 49 70 99 100 99 88 90 62 60 58 61 62 49 52 49 58 65 75 80 74 85 77 83 54 52 52 60 48 36 50 41 49 50 51 54 55 57
100 100 100 100 100 100 94 74 90 95 94 95 100 92 63 48 71 70 95 94 99 92 96 76 74 75 62 53 52 50 49 51 53 59 54 94 69 58 66 52 64 48 57 59 66 55 46 41 42 43 56 59 58 61
98 100 100 100 100 100 99 84 86 97 98 97 100 98 76 48 76 75 96 98 92 95 86 70 66 58 57 55 50 50 51 53 53 54 89 87 72 72 74 74 82 54 60 52 42 30 29 27 29 39 57 56 56 59
86 93 99 100 100 100 100 98 82 99 99 100 100 100 75 57 80 91 99 86 91 100 86 91 68 62 59 63 66 61 57 59 55 63 75 64 64 60 86 82 50 32 30 26 25 23 27 29 33 34 52 57 58 60
80 90 92 100 100 100 100 100 96 99 100 100 100 100 72 80 87 91 83 87 89 100 95 83 77 81 77 72 79 79 78 71 67 66 78 71 66 66 95 65 36 22 22 22 25 35 42 37 38 37 48 57 58 54
93 92 97 98 100 99 100 100 100 98 100 100 100 100 84 92 94 94 100 100 99 99 91 97 94 86 85 86 81 80 79 80 75 69 84 84 78 81 89 59 26 23 27 28 26 27 30 31 40 45 52 57 53 53
99 100 100 100 100 100 100 100 100 100 100 100 100 99 99 100 100 98 89 100 100 97 99 100 98 88 86 79 82 86 82 99 73 92 86 81 89 94 68 52 30 23 29 24 24 27 36 38 37 43 50 53 50 48
99 100 100 100 100 100 100 100 100 100 100 100 100 99 100 99 93 93 86 85 100 100 100 98 88 94 78 88 93 83 89 96 100 88 78 98 91 58 32 26 24 23 27 29 34 52 50 46 40 42 41 40 43 46
100 99 100 100 100 100 100 100 100 100 100 99 99 99 100 100 99 98 94 99 97 99 99 99 82 90 69 87 88 75 95 97 98 82 88 93 98 80 26 26 25 26 36 40 34 28 22 23 32 40 44 45 49 57
100 99 100 100 100 100 100 100 100 100 98 98 98 100 100 99 100 99 98 98 97 95 99 98 84 60 68 63 75 92 94 94 94 84 98 98 82 26 28 23 21 24 26 30 41 38 30 30 33 41 41 46 53 63
100 100 100 100 100 100 100 100 99 100 100 100 98 99 99 99 98 98 97 99 99 98 99 93 91 63 76 68 73 89 96 96 86 98 98 89 47 22 22 26 30 28 24 31 45 43 38 34 38 46 45 49 58 76
100 98 99 100 100 100 100 100 100 100 100 98 99 98 97 98 93 92 89 88 76 83 100 88 82 75 70 90 84 91 79 91 100 100 94 79 35 23 22 26 28 29 29 31 42 44 43 41 45 52 52 54 69 84
98 100 100 100 100 100 100 100 98 100 98 99 99 96 97 82 75 74 65 64 70 80 90 80 85 69 96 87 91 90 100 99 85 82 77 39 26 26 25 26 27 33 33 34 43 46 46 48 56 59 62 66 78 84
100 100 100 100 100 100 100 99 100 100 100 99 99 99 95 90 99 97 78 73 75 89 83 67 89 94 88 92 99 94 93 98 81 88 34 32 35 30 28 30 32 38 40 41 43 48 52 58 60 61 71 80 84 77
100 100 99 100 100 100 100 100 99 99 98 99 99 98 88 79 85 91 73 79 83 86 89 90 92 85 91 100 100 91 93 82 56 36 35 34 33 30 33 34 31 33 42 50 50 52 59 64 67 73 76 79 83 87
100 100 99 100 100 100 99 98 98 99 98 99 98 99 82 71 76 77 70 77 84 78 73 87 71 99 96 97 96 88 64 39 40 38 36 35 32 35 36 36 38 42 48 54 60 60 65 73 76 74 70 78 89 89
99 98 100 100 97 96 97 99 99 98 98 98 88 86 82 69 65 57 58 72 78 69 60 77 83 96 91 91 84 51 47 45 43 41 40 38 37 44 46 40 44 48 53 61 70 70 68 69 69 71 73 83 81 80
100 100 100 100 99 98 98 98 99 97 98 98 87 99 83 74 59 66 73 86 81 74 92 100 72 76 74 49 45 42 40 44 50 46 42 40 42 49 49 46 48 56 62 78 79 76 77 81 82 79 81 80 80 77
100 100 100 100 99 99 98 98 100 98 99 99 96 87 93 79 81 79 84 80 86 98 88 64 58 53 48 47 45 48 49 48 47 53 48 42 40 54 58 60 61 72 79 88 85 85 75 64 69 78 80 75 67 62
100 99 99 99 98 98 98 99 93 99 97 100 97 90 99 98 98 93 82 91 77 69 67 60 56 59 60 57 51 46 47 53 52 50 46 48 49 58 66 86 92 87 93 92 86 80 72 71 74 76 70 62 55 48
99 99 97 98 97 97 97 98 92 96 98 98 96 97 97 97 95 91 98 94 78 70 65 68 63 64 66 63 63 58 55 55 55 55 54 53 64 73 69 85 95 92 92 98 88 74 68 72 72 68 64 55 47 42
98 98 98 97 96 97 98 97 96 97 98 97 97 96 97 98 100 99 97 99 67 70 76 71 75 77 74 71 69 66 64 61 62 65 62 72 73 72 88 100 100 95 94 86 80 72 69 64 69 64 59 55 51 48
98 99 96 96 97 95 96 97 96 94 96 97 97 97 97 98 97 98 96 85 58 66 63 68 73 82 80 76 79 79 66 66 65 59 64 77 77 87 98 100 100 97 93 86 82 68 67 71 74 73 71 76 71 75
95 97 96 93 97 88 95 98 98 98 96 100 98 97 100 98 100 98 92 58 51 52 54 66 77 86 88 81 80 85 72 67 63 70 76 81 83 87 96 98 98 98 91 74 60 64 72 81 84 90 87 81 78 65
95 97 98 92 84 87 95 91 87 92 97 100 96 98 99 100 99 86 70 71 67 63 69 76 81 87 85 86 88 89 82 79 84 88 90 93 94 99 94 90 88 81 78 76 70 70 78 90 92 83 77 71 50 46
96 94 98 100 98 88 95 96 95 92 94 92 90 100 94 87 84 72 76 77 74 81 83 83 91 99 99 95 94 97 99 100 100 99 99 99 98 98 99 97 94 83 72 74 85 94 97 88 75 63 43 42 41 44
97 92 82 100 98 96 94 91 90 86 80 83 87 93 91 72 78 80 77 71 71 81 96 100 99 99 100 100 100 99 100 99 97 97 98 99 100 98 98 93 78 88 97 96 98 96 88 74 43 39 40 42 44 48
99 90 94 98 94 98 97 99 99 100 96 85 84 85 88 84 76 78 73 67 68 75 96 100 100 99 98 98 98 98 98 99 99 90 95 97 97 95 97 98 99 98 97 95 88 80 56 43 40 41 42 45 48 49
94 85 93 94 97 97 98 100 100 99 95 93 96 91 84 74 74 71 70 68 72 88 96 96 98 98 98 97 97 97 97 98 98 98 93 93 97 95 91 91 90 89 89 78 40 27 35 38 40 40 45 46 48 50
93 96 94 99 98 98 97 98 97 96 97 97 95 92 92 84 87 74 71 69 74 86 94 99 97 96 97 98 98 98 96 95 98 98 98 98 90 95 88 83 92 71 40 29 36 35 38 37 40 43 44 46 49 54
95 94 95 99 97 97 96 96 96 98 97 98 97 95 94 92 94 85 83 76 73 84 94 96 97 97 97 97 97 98 98 98 99 99 98 98 95 80 92 71 35 30 37 34 36 38 40 42 41 45 47 51 55 58